[[{"header":{"parameterUnit":"m.s-1","parameterCategory":1,"la1":30.6,"la2":28.766,"lo1":-90.7593,"lo2":-88.6598,"dx":0.0162,"dy":0.0183,"nx":116,"ny":114,"refTime":"2022-12-11T18:00:00:Z","depth":0,"parameterNumber":2,"parameterNumberName":"U-component_of_WINDS"},"data":[0.0,0.0,0.0,0.0,0.0,0.0,0.0,0.0,0.0,0.0,0.0,0.0,0.0,0.0,0.0,0.0,0.0,0.0,0.0,0.0,0.0,0.0,0.0,0.0,0.0,0.0,0.0,0.0,0.0,0.0,0.0,0.0,0.0,0.0,0.0,0.0,0.0,0.0,0.0,0.0,0.0,0.0,0.0,0.0,0.0,0.0,0.0,0.0,0.0,0.0,0.0,0.0,0.0,0.0,0.0,0.0,0.0,0.0,0.0,0.0,0.0,0.0,0.0,0.0,0.0,0.0,0.0,0.0,0.0,0.0,0.0,0.0,0.0,0.0,0.0,0.0,0.0,0.0,0.0,0.0,0.0,0.0,0.0,0.0,0.0,0.0,0.0,0.0,0.0,0.0,0.0,0.0,0.0,0.0,0.0,0.0,0.0,0.0,0.0,0.0,0.0,0.0,0.0,0.0,0.0,0.0,0.0,0.0,0.0,0.0,0.0,0.0,0.0,0.0,0.0,0.0,0.0,0.0,0.0,0.0,0.0,0.0,0.0,0.0,0.0,0.0,0.0,0.0,0.0,0.0,0.0,0.0,0.0,0.0,0.0,0.0,0.0,0.0,0.0,0.0,0.0,0.0,0.0,0.0,0.0,0.0,0.0,0.0,0.0,0.0,0.0,0.0,0.0,0.0,0.0,0.0,0.0,0.0,0.0,0.0,0.0,0.0,0.0,0.0,0.0,0.0,0.0,0.0,0.0,0.0,0.0,0.0,0.0,0.0,0.0,0.0,0.0,0.0,0.0,0.0,0.0,0.0,0.0,0.0,0.0,0.0,0.0,0.0,0.0,0.0,0.0,0.0,0.0,0.0,0.0,0.0,0.0,0.0,0.0,0.0,0.0,0.0,0.0,0.0,0.0,0.0,0.0,0.0,0.0,0.0,0.0,0.0,0.0,0.0,0.0,0.0,0.0,0.0,0.0,0.0,0.0,0.0,0.0,0.0,0.0,0.0,0.0,0.0,0.0,0.0,0.0,0.0,0.0,0.0,0.0,0.0,0.0,0.0,0.0,0.0,0.0,0.0,0.0,0.0,0.0,0.0,0.0,0.0,0.0,0.0,0.0,0.0,0.0,0.0,0.0,0.0,0.0,0.0,0.0,0.0,0.0,0.0,0.0,0.0,0.0,0.0,0.0,0.0,0.0,0.0,0.0,0.0,0.0,0.0,0.0,0.0,0.0,0.0,0.0,0.0,0.0,0.0,0.0,0.0,0.0,0.0,0.0,0.0,0.0,0.0,0.0,0.0,0.0,0.0,0.0,0.0,0.0,0.0,0.0,0.0,0.0,0.0,0.0,0.0,0.0,0.0,0.0,0.0,0.0,0.0,0.0,0.0,0.0,0.0,0.0,0.0,0.0,0.0,0.0,0.0,0.0,0.0,0.0,0.0,0.0,0.0,0.0,0.0,0.0,0.0,0.0,0.0,0.0,0.0,0.0,0.0,0.0,0.0,0.0,0.0,0.0,0.0,0.0,0.0,0.0,0.0,0.0,0.0,0.0,0.0,0.0,0.0,0.0,0.0,0.0,0.0,0.0,0.0,0.0,0.0,0.0,0.0,0.0,0.0,0.0,0.0,0.0,0.0,0.0,0.0,0.0,0.0,0.0,0.0,0.0,0.0,0.0,0.0,0.0,0.0,0.0,0.0,0.0,0.0,0.0,0.0,0.0,0.0,0.0,0.0,0.0,0.0,0.0,0.0,0.0,0.0,0.0,0.0,0.0,0.0,0.0,0.0,0.0,0.0,0.0,0.0,0.0,0.0,0.0,0.0,0.0,0.0,0.0,0.0,0.0,0.0,0.0,0.0,0.0,0.0,0.0,0.0,0.0,0.0,0.0,0.0,0.0,0.0,0.0,0.0,0.0,0.0,0.0,0.0,0.0,0.0,0.0,0.0,0.0,0.0,0.0,0.0,0.0,0.0,0.0,0.0,0.0,0.0,0.0,0.0,0.0,0.0,0.0,0.0,0.0,0.0,0.0,0.0,0.0,0.0,0.0,0.0,0.0,0.0,0.0,0.0,0.0,0.0,0.0,0.0,0.0,0.0,0.0,0.0,0.0,0.0,0.0,0.0,0.0,0.0,0.0,0.0,0.0,0.0,0.0,0.0,0.0,0.0,0.0,0.0,0.0,0.0,0.0,0.0,0.0,0.0,0.0,0.0,0.0,0.0,0.0,0.0,0.0,0.0,0.0,0.0,0.0,0.0,0.0,0.0,0.0,0.0,0.0,0.0,0.0,0.0,0.0,0.0,0.0,0.0,0.0,0.0,0.0,0.0,0.0,0.0,0.0,0.0,0.0,0.0,0.0,0.0,0.0,0.0,0.0,0.0,0.0,0.0,0.0,0.0,0.0,0.0,0.0,0.0,0.0,0.0,0.0,0.0,0.0,0.0,0.0,0.0,0.0,0.0,0.0,0.0,0.0,0.0,0.0,0.0,0.0,0.0,0.0,0.0,0.0,0.0,0.0,0.0,0.0,0.0,0.0,0.0,0.0,0.0,0.0,0.0,0.0,0.0,0.0,0.0,0.0,0.0,0.0,0.0,0.0,0.0,0.0,0.0,0.0,0.0,0.0,0.0,0.0,0.0,0.0,0.0,0.0,0.0,0.0,0.0,0.0,0.0,0.0,0.0,0.0,0.0,0.0,0.0,0.0,0.0,0.0,0.0,0.0,0.0,0.0,0.0,0.0,0.0,0.0,0.0,0.0,0.0,0.0,0.0,0.0,0.0,0.0,0.0,0.0,0.0,0.0,0.0,0.0,0.0,0.0,0.0,0.0,0.0,0.0,0.0,0.0,0.0,0.0,0.0,0.0,0.0,0.0,0.0,0.0,0.0,0.0,0.0,0.0,0.0,0.0,0.0,0.0,0.0,0.0,0.0,0.0,0.0,0.0,0.0,0.0,0.0,0.0,0.0,0.0,0.0,0.0,0.0,0.0,0.0,0.0,0.0,0.0,0.0,0.0,0.0,0.0,0.0,0.0,0.0,0.0,0.0,0.0,0.0,0.0,0.0,0.0,0.0,0.0,0.0,0.0,0.0,0.0,0.0,0.0,0.0,0.0,0.0,0.0,0.0,0.0,0.0,0.0,0.0,0.0,0.0,0.0,0.0,0.0,0.0,0.0,0.0,0.0,0.0,0.0,0.0,0.0,0.0,0.0,0.0,0.0,0.0,0.0,0.0,0.0,0.0,0.0,0.0,0.0,0.0,0.0,0.0,0.0,0.0,0.0,0.0,0.0,0.0,0.0,0.0,0.0,0.0,0.0,0.0,0.0,0.0,0.0,0.0,0.0,0.0,0.0,0.0,0.0,0.0,0.0,0.0,0.0,0.0,0.0,0.0,0.0,0.0,0.0,0.0,0.0,0.0,0.0,0.0,0.0,0.0,0.0,0.0,0.0,0.0,0.0,0.0,0.0,0.0,0.0,0.0,0.0,0.0,0.0,0.0,0.0,0.0,0.0,0.0,0.0,0.0,0.0,0.0,0.0,0.0,0.0,0.0,0.0,0.0,0.0,0.0,0.0,0.0,0.0,0.0,0.0,0.0,0.0,0.0,0.0,0.0,0.0,0.0,0.0,0.0,0.0,0.0,0.0,0.0,0.0,0.0,0.0,0.0,0.0,0.0,0.0,0.0,0.0,0.0,0.0,0.0,0.0,0.0,0.0,0.0,0.0,0.0,0.0,0.0,0.0,0.0,0.0,0.0,0.0,0.0,0.0,0.0,0.0,0.0,0.0,0.0,0.0,0.0,0.0,0.0,0.0,0.0,0.0,0.0,0.0,0.0,0.0,0.0,0.0,0.0,0.0,0.0,0.0,0.0,0.0,0.0,0.0,0.0,0.0,0.0,0.0,0.0,0.0,0.0,0.0,0.0,0.0,0.0,0.0,0.0,0.0,0.0,0.0,0.0,0.0,0.0,0.0,0.0,0.0,0.0,0.0,0.0,0.0,0.0,0.0,0.0,0.0,0.0,0.0,0.0,0.0,0.0,0.0,0.0,0.0,0.0,0.0,0.0,0.0,0.0,0.0,0.0,0.0,0.0,0.0,0.0,0.0,0.0,0.0,0.0,0.0,0.0,0.0,0.0,0.0,0.0,0.0,0.0,0.0,0.0,0.0,0.0,0.0,0.0,0.0,0.0,0.0,0.0,0.0,0.0,0.0,0.0,0.0,0.0,0.0,0.0,0.0,0.0,0.0,0.0,0.0,0.0,0.0,0.0,0.0,0.0,0.0,0.0,0.0,0.0,0.0,0.0,0.0,0.0,0.0,0.0,0.0,0.0,0.0,0.0,0.0,0.0,0.0,0.0,0.0,0.0,0.0,0.0,0.0,0.0,0.0,0.0,0.0,0.0,0.0,0.0,0.0,0.0,0.0,0.0,0.0,0.0,0.0,0.0,0.0,0.0,0.0,0.0,0.0,0.0,0.0,0.0,0.0,0.0,0.0,0.0,0.0,0.0,0.0,0.0,0.0,0.0,0.0,0.0,0.0,0.0,0.0,0.0,0.0,0.0,0.0,0.0,0.0,0.0,0.0,0.0,0.0,0.0,0.0,0.0,0.0,0.0,0.0,0.0,0.0,0.0,0.0,0.0,0.0,0.0,0.0,0.0,0.0,0.0,0.0,0.0,0.0,0.0,0.0,0.0,0.0,0.0,0.0,0.0,0.0,0.0,0.0,0.0,0.0,0.0,0.0,0.0,0.0,0.0,0.0,0.0,0.0,0.0,0.0,0.0,0.0,0.0,0.0,0.0,0.0,0.0,0.0,0.0,0.0,0.0,0.0,0.0,0.0,0.0,0.0,0.0,0.0,0.0,0.0,0.0,0.0,0.0,0.0,0.0,0.0,0.0,0.0,0.0,0.0,0.0,0.0,0.0,0.0,0.0,0.0,0.0,0.0,0.0,0.0,0.0,0.0,0.0,0.0,0.0,0.0,0.0,0.0,0.0,0.0,0.0,0.0,0.0,0.0,0.0,0.0,0.0,0.0,0.0,0.0,0.0,0.0,0.0,0.0,0.0,0.0,0.0,0.0,0.0,0.0,0.0,0.0,0.0,0.0,0.0,0.0,0.0,0.0,0.0,0.0,0.0,0.0,0.0,0.0,0.0,0.0,0.0,0.0,0.0,0.0,0.0,0.0,0.0,0.0,0.0,0.0,0.0,0.0,0.0,0.0,0.0,0.0,0.0,0.0,0.0,0.0,0.0,0.0,0.0,0.0,0.0,0.0,0.0,0.0,0.0,0.0,0.0,0.0,0.0,0.0,0.0,0.0,0.0,0.0,0.0,0.0,0.0,0.0,0.0,0.0,0.0,0.0,0.0,0.0,0.0,0.0,0.0,0.0,0.0,0.0,0.0,0.0,0.0,0.0,0.0,0.0,0.0,0.0,0.0,0.0,0.0,0.0,0.0,0.0,0.0,0.0,0.0,0.0,0.0,0.0,0.0,0.0,0.0,0.0,0.0,0.0,0.0,0.0,0.0,0.0,0.0,0.0,0.0,0.0,0.0,0.0,0.0,0.0,0.0,0.0,0.0,0.0,0.0,0.0,0.0,0.0,0.0,0.0,0.0,0.0,0.0,0.0,0.0,0.0,0.0,0.0,0.0,0.0,0.0,0.0,0.0,0.0,0.0,0.0,0.0,0.0,0.0,0.0,0.0,0.0,0.0,0.0,0.0,0.0,0.0,0.0,0.0,0.0,0.0,0.0,0.0,0.0,0.0,0.0,0.0,0.0,0.0,0.0,0.0,0.0,0.0,0.0,0.0,0.0,0.0,0.0,0.0,0.0,0.0,0.0,0.0,0.0,0.0,0.0,0.0,0.0,0.0,0.0,0.0,0.0,0.0,0.0,0.0,0.0,0.0,0.0,0.0,0.0,0.0,0.0,0.0,0.0,0.0,0.0,0.0,0.0,0.0,0.0,0.0,0.0,0.0,0.0,0.0,0.0,0.0,0.0,0.0,0.0,0.0,0.0,0.0,0.0,0.0,0.0,0.0,0.0,0.0,0.0,0.0,0.0,0.0,0.0,0.0,0.0,0.0,0.0,0.0,0.0,0.0,0.0,0.0,0.0,0.0,3.552,0.0,0.0,0.0,0.0,0.0,0.0,0.0,0.0,0.0,0.0,0.0,0.0,0.0,0.0,0.0,0.0,0.0,0.0,0.0,0.0,0.0,0.0,0.0,0.0,2.0779,2.0706,2.0947,2.1502,0.0,0.0,0.0,0.0,0.0,0.0,0.0,0.0,0.0,2.543,2.543,2.543,2.5739,2.6329,2.6666,2.6469,2.5907,0.0,0.0,0.0,0.0,0.0,0.0,0.0,0.0,0.0,0.0,0.0,0.0,0.0,0.0,0.0,0.0,0.0,0.0,0.0,0.0,0.0,0.0,0.0,0.0,0.0,0.0,0.0,0.0,0.0,0.0,0.0,0.0,0.0,0.0,0.0,0.0,0.0,0.0,0.0,0.0,0.0,0.0,0.0,0.0,0.0,0.0,0.0,0.0,0.0,0.0,0.0,0.0,0.0,0.0,0.0,0.0,0.0,0.0,0.0,0.0,0.0,0.0,0.0,0.0,0.0,0.0,0.0,0.0,0.0,0.0,0.0,3.5833,0.0,0.0,0.0,0.0,0.0,0.0,0.0,0.0,0.0,0.0,0.0,0.0,0.0,0.0,0.0,0.0,0.0,0.0,0.0,0.0,0.0,2.0995,2.0634,2.0628,2.0855,2.1389,2.2088,2.2643,2.3127,2.4282,0.0,0.0,0.0,0.0,0.0,2.616,2.5936,2.6048,2.6273,2.6975,2.8099,2.8212,2.7762,2.6863,2.6413,0.0,0.0,0.0,0.0,0.0,0.0,0.0,0.0,0.0,0.0,0.0,0.0,0.0,0.0,0.0,0.0,0.0,0.0,0.0,0.0,0.0,0.0,0.0,0.0,0.0,0.0,0.0,0.0,0.0,0.0,0.0,0.0,0.0,0.0,0.0,0.0,0.0,0.0,0.0,0.0,0.0,0.0,0.0,0.0,0.0,0.0,0.0,0.0,0.0,0.0,0.0,0.0,0.0,0.0,0.0,0.0,0.0,0.0,0.0,0.0,0.0,0.0,0.0,3.7821,3.8074,3.8074,3.8636,3.8861,3.8749,3.6775,3.5874,3.6024,3.5874,0.0,0.0,0.0,0.0,0.0,0.0,0.0,0.0,0.0,0.0,0.0,0.0,0.0,0.0,0.0,0.0,0.0,0.0,0.0,2.0129,2.0538,2.0656,2.0911,2.1462,2.2535,2.323,2.3258,2.4364,0.0,0.0,0.0,0.0,2.602,2.5936,2.616,2.6694,2.779,2.8689,2.9364,2.9926,3.0375,3.0656,2.8493,2.7481,2.7453,0.0,0.0,0.0,0.0,0.0,0.0,0.0,0.0,0.0,0.0,0.0,0.0,0.0,0.0,0.0,0.0,0.0,0.0,0.0,0.0,0.0,0.0,0.0,0.0,0.0,0.0,0.0,0.0,0.0,0.0,0.0,0.0,0.0,0.0,0.0,0.0,0.0,0.0,0.0,0.0,0.0,3.2755,3.3407,0.0,0.0,0.0,0.0,0.0,0.0,0.0,0.0,0.0,0.0,0.0,0.0,0.0,3.7625,3.754,3.8187,3.8524,3.8608,3.8693,3.8749,3.8749,3.8833,3.8861,3.8833,3.8524,0.0,3.8464,3.8464,0.0,0.0,0.0,0.0,0.0,0.0,0.0,0.0,0.0,0.0,0.0,0.0,0.0,0.0,0.0,0.0,0.0,0.0,0.0,0.0,0.0,2.1476,2.1921,2.2407,2.3285,2.4068,2.475,2.5911,0.0,0.0,0.0,2.7902,2.7481,2.8155,2.8633,2.8886,2.9813,3.0403,3.0684,3.0937,3.1218,3.1443,3.0347,2.9673,2.9336,2.9617,0.0,0.0,0.0,0.0,0.0,0.0,0.0,0.0,0.0,0.0,0.0,0.0,0.0,0.0,0.0,0.0,0.0,0.0,0.0,0.0,0.0,0.0,0.0,0.0,0.0,0.0,0.0,0.0,0.0,0.0,0.0,0.0,0.0,0.0,0.0,0.0,0.0,0.0,0.0,3.3972,3.4455,3.5079,3.5793,3.6151,0.0,0.0,0.0,0.0,0.0,0.0,0.0,0.0,0.0,3.7811,3.8239,3.8608,3.8945,3.9226,3.9564,3.9901,4.0238,4.0407,4.0435,4.08,4.094,4.094,4.094,4.094,4.0856,3.9451,3.8693,3.844,0.0,0.0,0.0,0.0,3.7653,3.7597,0.0,0.0,0.0,0.0,0.0,0.0,0.0,0.0,0.0,0.0,0.0,0.0,2.1904,2.2511,2.3175,2.3834,2.4475,2.53,2.6315,2.7248,2.7987,2.8436,2.9476,2.9701,2.8942,3.015,3.0853,3.0993,3.164,3.2033,3.2202,3.2342,3.2426,3.2426,3.2426,3.1808,3.0769,3.0769,3.0347,2.9617,0.0,0.0,0.0,0.0,0.0,0.0,0.0,0.0,0.0,0.0,0.0,0.0,0.0,0.0,0.0,0.0,0.0,0.0,0.0,0.0,0.0,0.0,0.0,0.0,0.0,0.0,0.0,0.0,0.0,0.0,0.0,0.0,0.0,0.0,0.0,0.0,0.0,3.5309,3.5674,3.6297,3.6457,3.6475,0.0,0.0,0.0,0.0,0.0,0.0,3.8159,3.8749,3.9114,3.9114,3.9395,3.9788,4.0238,4.0407,4.08,4.1418,4.1868,4.2177,4.2345,4.2823,4.3048,4.3048,4.3048,4.3048,4.2879,4.0716,3.9732,3.9564,3.9564,3.9479,3.9339,3.9339,3.9339,3.9339,0.0,0.0,0.0,0.0,0.0,0.0,0.0,0.0,0.0,0.0,0.0,2.1368,2.2975,2.3715,2.4558,2.5643,2.6297,2.6946,2.7678,2.7762,2.779,2.7818,2.8436,2.9026,2.956,3.0797,3.1724,3.2314,3.2932,3.3522,3.4112,3.4702,3.5029,3.5029,3.5029,3.3663,3.1443,3.1443,3.1752,3.2117,3.0909,0.0,0.0,0.0,0.0,0.0,0.0,0.0,0.0,0.0,0.0,0.0,0.0,0.0,0.0,0.0,0.0,0.0,0.0,0.0,0.0,0.0,0.0,0.0,0.0,0.0,0.0,0.0,0.0,0.0,0.0,0.0,0.0,0.0,0.0,0.0,0.0,0.0,0.0,3.6297,3.6231,0.0,0.0,0.0,0.0,3.8774,3.9021,3.9078,3.8887,3.9395,3.9732,3.9732,4.0884,4.1502,4.1531,4.2121,4.2739,4.3357,4.3385,4.3694,4.4284,4.4312,4.4312,4.4312,4.4312,4.4312,4.4228,4.2935,4.2036,4.1474,4.1474,4.1109,4.0603,4.0603,4.0603,4.0603,0.0,0.0,0.0,2.274,2.2513,2.202,2.1262,2.1167,2.131,2.1746,2.2432,2.3313,2.4258,2.5273,2.6022,2.6467,2.7057,2.7706,2.8324,2.8745,2.9139,2.9532,3.0544,3.1555,3.2567,3.2651,3.3157,3.4169,3.4393,3.4618,3.4843,3.5113,3.5226,3.5226,3.5226,3.4747,3.3859,3.3859,3.3747,3.3522,3.2651,3.2455,0.0,0.0,0.0,0.0,0.0,0.0,0.0,0.0,0.0,0.0,0.0,0.0,0.0,0.0,0.0,0.0,0.0,0.0,0.0,0.0,0.0,0.0,0.0,0.0,0.0,0.0,0.0,0.0,0.0,0.0,0.0,0.0,0.0,0.0,0.0,0.0,0.0,3.7459,3.7494,0.0,3.8682,3.8767,3.9021,3.9423,3.99,4.0294,4.0603,4.125,4.1755,4.2149,4.2598,4.3216,4.4003,4.4228,4.4678,4.5296,4.5296,4.5408,4.5633,4.5633,4.5633,4.5633,4.5633,4.5633,4.5605,4.5155,4.4369,4.3413,4.3413,4.3273,4.3076,4.3076,4.3076,4.3076,0.0,0.0,0.0,2.3036,2.2609,2.2189,2.1652,2.1549,2.1925,2.283,2.3689,2.4558,2.5488,2.6329,2.6975,2.7397,2.8015,2.8661,2.9279,2.9897,3.0516,3.1134,3.2342,3.3494,3.4534,3.414,3.445,3.5536,3.5536,3.5648,3.577,3.577,3.577,3.577,3.577,3.577,3.577,3.577,3.5293,3.4506,3.4112,3.3944,3.3859,0.0,0.0,0.0,0.0,0.0,0.0,0.0,0.0,0.0,0.0,0.0,0.0,0.0,0.0,0.0,0.0,0.0,0.0,0.0,0.0,0.0,0.0,0.0,0.0,0.0,0.0,0.0,0.0,0.0,0.0,0.0,0.0,0.0,0.0,0.0,3.7402,3.8422,3.8653,3.894,3.9671,3.9926,4.021,4.0688,4.1306,4.1812,4.2233,4.3048,4.3694,4.4088,4.4312,4.4818,4.5661,4.5661,4.597,4.6588,4.6588,4.6701,4.6926,4.6926,4.6926,4.6926,4.6926,4.6926,4.6926,4.6926,4.642,4.5633,4.5212,4.5043,4.5043,4.5043,4.5043,4.5043,0.0,0.0,2.3979,2.2954,2.2607,2.2722,2.3332,2.2459,2.2721,2.5518,2.4914,2.4915,2.661,2.6835,2.7369,2.8577,2.9279,2.9897,3.0488,3.1162,3.1836,3.2455,3.3635,3.4562,3.5254,3.5254,3.5564,3.6107,3.6107,3.6416,3.6978,3.6978,3.6978,3.6978,3.6978,3.6978,3.6978,3.6978,3.6304,3.5282,3.5282,3.5254,3.5198,0.0,0.0,0.0,0.0,0.0,0.0,0.0,0.0,0.0,0.0,0.0,0.0,0.0,0.0,0.0,0.0,0.0,0.0,0.0,0.0,0.0,0.0,0.0,0.0,0.0,0.0,0.0,0.0,0.0,0.0,0.0,0.0,0.0,3.8517,3.836,3.8535,3.9187,3.9645,4.0069,4.0688,4.1306,4.1952,4.2598,4.3216,4.3554,4.3582,4.4706,4.538,4.538,4.5998,4.6335,4.6364,4.6364,4.6645,4.7235,4.7235,4.7544,4.8134,4.8134,4.8134,4.8162,4.8162,4.8162,4.819,4.819,4.819,4.805,4.6841,4.6364,4.6364,4.6364,4.6364,4.653,2.4768,2.4993,2.475,2.3634,2.2991,2.2538,2.2247,2.2247,2.2858,2.4476,2.5494,2.6246,2.6778,2.7621,2.8324,2.8661,2.9645,3.0347,3.0516,3.1977,3.3297,3.4337,3.4731,3.518,3.5798,3.5826,3.6107,3.6726,3.6726,3.681,3.6978,3.6978,3.6978,3.6978,3.6978,3.6978,3.6978,3.6978,3.6782,3.6445,3.5995,3.5826,3.5742,0.0,0.0,0.0,0.0,0.0,0.0,0.0,0.0,0.0,0.0,0.0,0.0,0.0,0.0,0.0,0.0,0.0,0.0,0.0,0.0,0.0,0.0,0.0,0.0,0.0,0.0,0.0,0.0,0.0,0.0,0.0,3.8795,3.9278,3.9069,3.9247,3.9591,4.021,4.0744,4.1362,4.2008,4.2626,4.3245,4.3863,4.4481,4.5043,4.5493,4.583,4.6223,4.6673,4.6869,4.7178,4.7628,4.7628,4.7712,4.7881,4.7881,4.7965,4.8134,4.8134,4.8359,4.878,4.878,4.9033,4.9454,4.9454,4.9454,4.9342,4.8106,4.7628,4.7628,4.7628,4.7999,4.8465,2.5467,2.5687,2.5458,2.4119,2.3626,2.3365,2.3065,2.3177,2.3771,2.5163,2.619,2.6919,2.72,2.8099,2.8886,2.942,3.0347,3.1134,3.1668,3.3438,3.4787,3.5517,3.5798,3.6079,3.6445,3.6445,3.6641,3.6978,3.6978,3.7119,3.7372,3.7372,3.7512,3.7765,3.7765,3.7765,3.7765,3.7765,3.7765,3.7709,3.7091,3.6669,3.6416,3.6051,3.5911,3.5939,3.6023,3.6079,3.6023,3.577,0.0,0.0,0.0,0.0,0.0,0.0,0.0,0.0,0.0,0.0,0.0,0.0,0.0,0.0,0.0,0.0,0.0,0.0,0.0,0.0,0.0,0.0,0.0,0.0,3.9871,4.0323,4.0576,4.0576,4.0772,4.1418,4.2261,4.2935,4.3301,4.4144,4.4818,4.5183,4.5774,4.6279,4.6673,4.6926,4.7207,4.76,4.76,4.7769,4.8134,4.8387,4.8499,4.8499,4.878,4.8893,4.8893,4.8893,4.9089,4.9426,4.9426,4.9623,4.996,4.996,4.996,0.0,0.0,0.0,0.0,0.0,4.9172,4.9681,2.5742,2.6119,2.5931,2.4374,2.4343,2.4549,2.4682,2.4526,2.4996,2.6665,2.6891,2.7144,2.7706,2.838,2.9251,3.0431,3.1106,3.2061,3.3438,3.5068,3.6023,3.6164,3.6697,3.6978,3.6978,3.6978,3.6978,3.6978,3.6978,3.7288,3.7906,3.7906,3.8243,3.8861,3.8861,3.8861,3.8861,3.8861,3.8861,3.8805,3.8243,3.7653,3.7063,3.7007,3.6978,3.6922,3.636,3.6164,3.6079,3.562,0.0,0.0,0.0,0.0,0.0,0.0,0.0,0.0,0.0,0.0,0.0,0.0,0.0,0.0,0.0,0.0,0.0,0.0,0.0,0.0,0.0,0.0,0.0,0.0,4.1083,4.1502,4.2626,4.2402,4.2317,4.2739,4.3863,4.4621,4.4621,4.5689,4.6392,4.6392,4.6954,4.7319,4.7319,0.0,0.0,0.0,0.0,4.8274,4.8331,4.8864,4.9145,4.9145,4.9707,4.996,4.996,4.996,4.9988,5.0073,5.0073,5.0129,5.0269,5.0269,5.0403,5.0565,5.0283,5.017,5.017,5.0247,5.0351,5.0559,2.6553,2.6226,2.5568,2.4289,2.4058,2.404,2.4068,2.4249,2.483,2.6127,2.706,2.765,2.7762,2.8866,2.9826,3.0459,3.1208,3.2535,3.4719,3.5124,3.577,3.6754,3.6922,3.6978,3.6978,3.6978,3.6978,3.6978,3.6978,3.7288,3.7906,3.7906,3.8243,3.8861,3.8861,3.8861,3.8861,3.8861,3.8861,3.8861,3.8721,3.8299,3.7653,3.7175,3.6978,3.695,3.6866,3.681,3.6782,3.6669,3.6641,3.6641,3.6782,3.681,0.0,0.0,0.0,0.0,0.0,0.0,0.0,0.0,0.0,0.0,0.0,0.0,0.0,0.0,0.0,0.0,0.0,0.0,0.0,4.1393,4.2711,4.3778,4.4031,4.4818,4.5071,4.4172,4.5155,4.5914,4.5914,4.6588,4.7038,4.7038,4.76,4.7965,4.7965,4.8078,4.8359,4.8836,4.8864,4.9089,4.9595,4.9735,4.9792,4.9792,0.0,0.0,4.996,4.996,5.0241,5.0691,5.0691,5.1253,5.218,5.218,5.2901,5.3812,5.1747,5.0944,5.1046,5.1728,5.2358,5.2851,2.6707,2.6242,2.5524,2.459,2.4582,2.4759,2.4861,2.5113,2.5596,2.6122,2.7173,2.7879,2.7937,2.9011,3.0205,3.1168,3.2387,3.3705,3.5113,3.5582,3.6175,3.695,3.7056,3.7056,3.6978,3.6978,3.6978,3.6978,3.7288,3.7765,3.8383,3.8693,3.917,3.9788,3.9788,3.9788,3.9788,3.9788,3.9788,3.976,3.9451,3.9142,3.8777,3.8159,3.7709,3.7456,3.7456,3.7259,3.6978,3.6978,3.6978,3.6978,3.6978,3.6978,3.6978,0.0,0.0,0.0,0.0,0.0,0.0,0.0,0.0,0.0,0.0,0.0,0.0,0.0,0.0,4.0237,4.0774,0.0,4.1952,4.2851,4.3807,4.4621,4.5268,4.6167,4.6392,4.5464,4.6195,4.6757,4.6757,4.7319,4.7656,4.7656,4.8246,4.8583,4.8583,4.8864,4.9174,4.9483,4.9511,4.9651,4.996,5.0269,5.041,5.0438,5.1028,5.1337,5.1337,5.1674,5.1983,5.2374,5.2783,5.3234,5.3831,5.3831,5.4553,5.5567,5.4176,5.3756,5.3756,5.4171,5.4611,5.4917,2.6358,2.6068,2.5633,2.511,2.5358,2.5654,2.5778,2.6121,2.634,2.634,2.7228,2.7911,2.8024,2.9018,3.033,3.1854,3.3459,3.4654,3.517,3.5929,3.6524,3.7106,3.7211,3.7211,3.7134,3.7056,3.6978,3.7056,3.7484,3.8102,3.8889,3.9367,3.9985,4.0688,4.0688,4.0688,4.0688,4.0688,4.0688,4.0659,4.0154,3.9957,3.9901,3.9395,3.8749,3.8074,3.8074,3.7765,3.7344,3.7344,3.7344,3.7344,3.7344,3.7344,3.7344,3.7344,3.7344,0.0,0.0,0.0,0.0,0.0,0.0,0.0,0.0,3.9476,3.9841,4.0294,4.0887,4.1479,4.2008,4.2598,4.3329,4.4565,4.4874,4.5296,4.6335,4.701,4.7207,4.6701,4.7094,4.7375,4.7375,4.7937,4.8302,4.8302,4.8864,4.923,4.923,4.9679,5.0016,5.0129,5.0129,5.0241,5.0494,5.0972,5.1309,5.1421,5.2433,5.2994,5.3133,5.3753,5.3979,5.4203,5.5065,5.5452,5.5452,5.5707,5.628,5.7107,5.7107,5.7318,5.7393,5.6944,5.6779,5.6855,2.5313,2.5458,2.5778,2.5691,2.5749,2.5778,2.5778,2.6174,2.6472,2.6472,2.6995,2.7597,2.814,2.8943,3.009,3.176,3.3157,3.4412,3.539,3.565,3.6265,3.7491,3.7394,3.7394,3.7548,3.7134,3.7056,3.7289,3.7141,3.7709,3.8861,3.8945,3.9592,4.0688,4.0688,4.0688,4.0688,4.0688,4.0688,4.0688,4.0631,4.0603,4.0575,4.0519,3.976,3.8749,3.8749,3.8721,3.8664,3.8664,3.8664,3.8664,3.8664,3.8664,3.8664,3.8664,3.8664,3.8664,3.8664,3.8721,3.8777,3.8833,3.9283,3.9816,0.0,4.0912,4.1474,4.2121,4.2317,4.2711,4.3891,4.4144,4.4621,4.5886,4.6532,4.6954,4.7094,4.7628,4.7993,4.7937,4.7993,4.8021,4.8021,4.8583,4.8949,4.8949,4.9511,4.9848,4.9848,4.9932,5.0213,5.0747,5.0775,5.1281,5.2377,5.2461,5.2798,5.336,5.3501,5.3978,5.4754,5.4811,5.5278,5.6035,5.6731,5.6966,5.7025,5.8129,5.9091,5.9936,6.0352,6.0998,6.1477,5.9294,5.8561,5.8561,2.6155,2.6184,2.6358,2.6358,2.6358,2.6504,2.6852,2.7089,2.7155,2.7072,2.7276,2.7679,2.8311,2.9723,3.1166,3.2528,3.3475,3.4323,3.5068,3.5955,3.6659,3.7053,3.7425,3.7625,3.7625,3.7289,3.7211,3.7289,3.7579,3.815,3.8889,3.9391,3.9957,4.0688,4.0688,4.0688,4.0688,4.0688,4.0688,4.0688,4.0688,4.0688,4.0688,4.0688,4.0378,3.9873,3.9535,3.917,0.0,3.8861,3.8861,3.8861,3.8861,3.8861,3.8861,3.8861,3.9114,3.9564,4.0266,4.0463,4.0547,4.094,4.1221,4.1474,4.1727,4.198,4.2458,4.3441,4.3638,4.4031,4.5268,4.5521,4.5802,4.6673,4.7038,4.7319,4.7684,4.7965,4.8246,4.8612,4.8668,4.8668,4.8668,4.9202,4.9567,4.9567,5.0157,5.0494,5.0494,5.0831,5.1309,5.1927,5.1927,5.2569,5.3998,5.3583,5.3725,5.4426,5.4262,5.4827,5.5991,5.6369,5.7498,5.9149,5.9423,5.9753,6.0198,6.0236,6.0701,6.152,6.1215,6.1621,6.2319,6.1258,6.0939,6.0939,2.7171,2.7055,2.7055,2.7055,2.72,2.7403,2.7639,2.7868,2.7871,2.7588,2.7559,2.779,2.8481,3.0305,3.184,3.2601,3.3619,3.4329,3.4609,3.6029,3.6806,3.6831,3.7537,3.7853,3.7777,3.7548,3.7394,3.7471,3.782,3.8309,3.8689,3.9304,3.9843,4.0435,4.0435,4.0632,4.0773,4.0773,4.0859,4.0887,4.0887,4.0887,4.0887,4.0887,4.0859,4.0717,4.0182,3.976,3.9367,3.9367,3.9367,3.9367,3.9367,3.9479,3.962,3.962,4.0154,4.083,4.1702,4.1956,4.2068,4.2458,4.2711,4.2879,4.3048,4.3216,4.3638,4.4706,4.4931,4.5268,4.6433,4.663,4.6757,4.7447,4.7459,4.7628,4.8078,4.8274,4.8555,4.8977,4.9342,4.9539,4.9539,4.996,5.0213,5.0213,5.0775,5.1197,5.1365,5.1787,5.2321,5.2967,5.3078,5.3888,5.551,5.4988,5.5156,5.6289,5.6095,5.663,5.791,5.8602,5.9909,6.1418,6.1418,6.1853,6.2383,6.1853,6.2053,6.258,6.2053,6.2252,6.2873,6.2873,6.2678,6.2383,2.781,2.7639,2.7639,2.7639,2.8216,2.8419,2.781,2.8245,2.8419,2.7755,2.7668,2.7984,2.8623,3.0364,3.1492,3.1363,3.3194,3.4264,3.4157,3.5478,3.6635,3.7273,3.7688,3.8005,3.8202,3.7749,3.7701,3.7853,3.7701,3.7813,3.8252,3.828,3.8799,3.9816,3.9816,4.0294,4.1001,4.1001,4.1114,4.1396,4.1396,4.1396,4.1396,4.1396,4.1198,4.1001,4.0745,4.0659,4.0659,4.0659,4.0659,4.0659,4.0659,4.1053,4.1531,4.1531,4.2157,4.2814,4.2842,4.2871,4.2782,4.266,4.302,4.3638,4.4228,4.4818,4.5436,4.6111,4.6251,4.6517,4.7433,4.7349,4.7475,4.8368,4.828,4.8106,4.8134,4.864,4.9033,4.9033,5.0101,5.0803,5.0803,5.0831,5.0831,5.0831,5.1421,5.2012,5.2602,5.2658,5.2967,5.3613,5.3951,5.4877,5.664,5.6996,5.791,5.9577,5.9577,6.0058,6.0979,6.1853,6.2284,6.2383,6.2383,6.2383,6.2481,6.2971,6.3164,6.3164,6.3707,6.3929,6.3929,6.3929,6.3293,6.2481,2.8477,2.8361,2.8361,2.8361,2.8884,2.9232,2.9029,2.9174,2.9232,2.9,2.8623,0.0,0.0,0.0,0.0,0.0,3.3492,3.4332,3.4264,3.552,3.6402,3.6635,3.72,3.7721,3.8202,3.7929,3.7853,3.7929,3.7853,3.8016,3.8382,3.8382,3.8757,3.9417,3.9417,3.9756,4.0406,4.0572,4.0912,4.1396,4.1396,4.1396,4.1396,4.1396,4.1311,4.1283,0.0,4.1029,4.0916,4.0916,4.1029,4.1199,4.1453,4.1794,4.2193,4.3044,4.3442,4.3607,4.4032,4.4365,4.449,4.4648,4.5129,4.5761,4.6054,4.6377,4.669,4.7344,4.7458,4.7657,4.8353,4.8397,4.8454,4.8753,4.8509,4.855,4.9206,4.9331,4.9653,5.0473,5.1031,5.1563,5.1774,5.1586,5.1646,5.204,5.2512,5.2989,5.3612,5.3891,5.4591,5.5939,5.6078,5.7212,5.9575,5.9123,5.9425,6.064,6.0949,6.1356,6.169,6.2873,6.3517,6.3517,6.3517,6.3517,6.3517,6.3707,6.3707,6.374,6.4414,6.4671,6.4736,6.5222,6.5191,6.4802,0.0,2.9029,2.9029,2.9029,2.9348,0.0,0.0,0.0,0.0,0.0,0.0,0.0,0.0,0.0,0.0,0.0,0.0,3.408,3.408,3.527,3.5967,3.5967,3.7041,3.7709,3.7883,3.7965,3.8005,3.8005,3.8005,3.8131,3.8302,3.8302,3.8489,3.8927,3.8927,3.9349,4.0028,4.0163,4.0761,4.1619,4.113,4.1245,4.1619,4.113,4.1019,0.0,4.1303,4.1251,4.1254,4.1198,4.1283,4.151,4.1938,4.2509,4.3167,4.4224,4.4447,4.447,4.4939,4.5421,4.5761,4.5959,4.6423,4.6889,4.7309,4.7463,4.7538,4.8166,4.8309,4.8424,4.8923,4.9009,4.8909,4.9009,4.8981,4.9366,5.0269,5.0325,5.0691,5.188,5.1986,5.2202,5.2613,5.2966,5.3001,5.3018,5.3766,5.4386,5.4599,5.5568,5.6485,5.7458,5.7999,5.9274,6.1387,6.0918,6.1153,6.2153,6.245,6.2646,6.2646,6.358,6.4024,6.4024,6.4283,6.438,6.4412,6.4639,6.4768,6.4801,6.5222,6.5416,6.5481,6.5934,6.6096,6.6031,0.0,0.0,2.9668,0.0,0.0,0.0,0.0,0.0,0.0,0.0,0.0,0.0,0.0,0.0,0.0,0.0,0.0,0.0,3.347,3.4632,3.5328,3.5427,3.7099,3.7825,3.736,3.7883,3.8173,3.8202,3.8202,3.8127,3.7929,3.7929,3.8093,3.851,3.851,3.8932,3.9773,3.9773,4.0654,4.1889,4.0612,4.0873,4.186,4.0583,4.0336,4.0752,4.1024,4.1319,4.1645,4.1451,4.1453,4.1596,4.2224,4.3283,4.4367,4.4938,4.535,4.5585,4.5751,4.6138,4.6649,4.6747,4.7013,4.7377,4.7978,4.8218,4.8264,4.8865,4.898,4.9108,4.9305,4.9207,4.9108,4.9404,4.9753,5.0356,5.1356,5.1599,5.2099,5.3301,5.3123,5.3045,5.3646,5.4778,5.5019,5.3898,0.0,5.6163,5.5789,5.7779,5.8686,5.8297,5.9562,6.0846,6.199,6.2221,6.2939,6.4024,6.4024,6.4024,6.4056,6.4056,6.4088,6.4153,6.4801,6.5092,6.5125,6.5837,6.6096,6.6096,6.6161,6.6161,6.6161,6.6193,6.6226,6.6226,0.0,0.0,0.0,0.0,0.0,0.0,0.0,0.0,0.0,0.0,0.0,0.0,0.0,0.0,0.0,0.0,0.0,0.0,3.3499,3.4196,3.4864,3.5398,3.5822,3.6693,3.7941,3.768,3.7767,3.8202,3.8202,3.8202,3.8127,3.8005,3.794,3.8007,3.8007,3.8457,3.911,3.9295,3.9807,4.0583,4.0234,4.0292,4.0583,4.0234,4.0205,4.0358,4.0931,4.1192,4.1314,4.1558,4.2251,4.3142,4.3488,4.4413,4.5483,4.5656,4.5941,4.6281,4.6268,4.6985,4.7634,4.7903,4.8373,4.9039,5.0088,5.0307,5.0366,5.0514,5.0573,5.0383,4.9669,5.0124,5.0573,5.0668,5.0943,5.1532,5.2464,5.2296,5.2613,5.4124,5.4878,5.5249,5.5083,5.7196,5.811,5.6983,5.7843,5.8624,5.8971,5.9771,6.0589,6.1255,6.1589,6.2319,6.3484,6.3484,6.3707,6.4024,6.4024,6.4283,6.4768,6.4768,6.506,6.5578,6.5772,6.5837,6.5837,6.6031,6.6096,6.6161,6.6711,6.6906,6.6971,6.7489,6.7651,6.7651,0.0,0.0,0.0,0.0,0.0,0.0,0.0,0.0,0.0,0.0,0.0,0.0,0.0,0.0,0.0,0.0,0.0,0.0,0.0,3.4225,3.4574,3.4922,3.5764,3.646,3.6954,3.7447,3.7738,3.7825,3.8057,3.8202,3.8202,3.8052,3.8005,3.8005,3.8005,3.8254,3.8601,3.8678,3.9276,0.0,0.0,3.9596,4.0031,3.9479,3.945,3.9741,4.0118,4.0641,4.1192,4.1666,4.2736,4.3777,4.3979,4.485,4.5953,4.6152,4.6379,4.6691,4.7051,4.7712,4.8413,4.8701,4.9407,5.0124,5.0383,5.1139,5.1666,5.1203,5.1109,5.0922,5.0383,5.0383,5.0668,5.1016,5.1469,5.2307,5.414,5.3823,5.4196,5.5993,5.6534,5.6849,5.6919,5.9008,6.0284,5.9983,6.029,6.0546,6.0432,6.152,6.2221,6.2319,6.2744,6.3389,6.4024,6.4315,6.4445,6.4445,6.4801,6.5125,6.5513,6.5513,6.5708,6.6129,6.6452,6.6582,6.6614,6.6906,6.7035,6.7068,6.7489,6.7618,6.7683,6.8072,6.8201,6.8201,0.0,0.0,0.0,0.0,0.0,0.0,0.0,0.0,0.0,0.0,2.8594,2.8971,2.9058,3.0597,0.0,0.0,0.0,0.0,0.0,0.0,3.4399,3.4399,3.6112,3.6606,3.5648,3.7244,3.7825,3.7302,3.7912,3.8173,3.8086,3.8173,3.8202,3.8202,3.8202,3.8202,3.8202,3.8202,3.8841,3.9741,3.8638,3.887,3.9741,0.0,3.8638,3.9102,3.9247,4.0168,4.1354,4.1942,4.2934,4.3979,4.4151,4.4938,4.6011,4.6558,4.679,4.7108,4.7846,4.8606,4.9068,4.9259,5.0316,5.1139,5.0316,5.1512,5.2575,5.1636,5.1389,5.1296,5.1109,5.0573,5.0316,5.1203,5.1795,5.3114,5.5705,5.565,5.6085,5.8121,5.8151,5.8251,5.89,6.0603,6.1882,6.2288,6.2418,6.2121,6.1215,6.2971,6.358,6.2548,6.3581,6.4153,6.4153,6.4833,6.5157,6.5189,6.5805,6.6161,6.6258,6.6258,6.629,6.642,6.7035,6.7327,6.7359,6.7942,6.8201,6.8201,6.8201,6.8201,6.8201,6.8201,6.8201,6.8201,0.0,0.0,0.0,0.0,0.0,0.0,0.0,0.0,0.0,0.0,3.019,3.0451,0.0,0.0,0.0,0.0,0.0,0.0,0.0,0.0,0.0,3.4399,3.5241,3.6112,3.6954,3.7302,3.7418,3.7302,3.7912,3.7941,3.7476,3.797,3.8202,3.8202,3.8202,3.8202,3.8202,3.8202,3.8318,3.8522,3.8289,3.8347,3.858,3.8899,0.0,0.0,3.9567,4.0881,4.206,4.2106,4.2934,4.4151,4.4857,4.5432,4.6191,4.7525,4.7724,4.7782,4.8441,4.9633,5.052,4.9834,5.0952,5.2336,5.2154,5.2931,5.3719,5.3545,5.2843,5.2033,5.1203,5.1666,5.2154,5.2336,5.3987,5.5402,5.5973,5.6217,5.7016,5.8844,5.9539,6.0137,6.0764,6.2492,6.3228,6.2418,6.3164,6.358,6.3389,6.3802,6.3897,6.3707,6.4447,6.4866,6.4866,6.5578,6.5934,6.5934,6.6031,6.642,6.7003,6.7003,6.7294,6.7845,6.7974,0.0,6.8039,6.8136,6.8201,6.8201,6.8201,6.8201,6.8201,6.8201,6.8201,6.8201,0.0,0.0,0.0,0.0,0.0,0.0,0.0,3.1177,3.1584,3.1584,3.1874,3.2077,3.2048,3.2629,3.3267,0.0,0.0,0.0,0.0,0.0,0.0,3.4399,3.5009,3.5648,3.6286,3.6954,3.7302,3.7302,0.0,3.7883,3.7331,3.7912,3.8028,3.7767,3.8057,3.8202,3.8202,3.8202,3.8202,3.8202,3.8202,3.8202,3.8231,0.0,0.0,0.0,3.9625,4.05,4.1303,4.2334,4.3626,4.4773,4.5161,4.5917,4.6756,4.7851,4.8656,4.9133,4.8822,5.0258,5.1666,5.0668,5.1942,5.3196,5.2695,5.375,5.4601,5.4062,5.3632,5.3196,5.2723,5.2575,5.2785,5.3196,5.4438,5.5615,5.671,5.7172,5.8028,5.9809,6.0604,6.1308,6.2044,6.3288,6.3802,6.326,6.3707,6.4024,6.4024,6.4347,6.4542,6.4542,6.5222,6.5578,6.5578,6.629,6.6679,6.6679,6.7035,6.7392,6.7715,6.7715,6.791,6.8201,6.8201,6.8201,6.8201,6.8201,6.8201,6.8201,6.8201,6.8201,6.8201,6.8201,6.8428,6.8752,0.0,0.0,0.0,0.0,0.0,0.0,0.0,3.228,3.2658,3.2542,3.2948,3.3064,3.2571,3.3093,3.3732,0.0,0.0,0.0,0.0,0.0,0.0,0.0,0.0,0.0,0.0,0.0,0.0,3.7302,3.7912,0.0,0.0,0.0,0.0,0.0,3.7796,3.8086,3.8202,3.8202,3.8202,0.0,0.0,3.8202,0.0,0.0,0.0,0.0,0.0,4.0403,4.0686,4.2821,4.4459,4.5574,4.5574,4.6478,4.7654,4.852,4.9591,5.0319,4.9512,5.1091,5.2664,5.1666,5.29,5.4062,5.3108,5.4179,5.5164,5.4433,5.4274,5.4166,5.4008,5.3496,5.3295,5.3922,5.458,5.5637,5.7377,5.8037,5.8919,6.0793,6.1498,6.2145,6.3052,6.3538,6.3829,6.3991,6.4153,6.4218,6.4218,6.4736,6.5092,6.5254,6.5967,6.6355,6.6355,6.7035,6.7392,6.7424,6.7942,6.8201,6.8201,6.8201,6.8201,6.8201,6.8201,6.8201,6.8201,6.8201,6.8201,6.8201,6.8201,6.8298,6.8428,6.8428,6.8881,6.9529,0.0,0.0,0.0,0.0,0.0,0.0,0.0,3.2977,3.318,3.26,3.2571,3.2571,3.2542,3.3093,3.3732,0.0,0.0,0.0,0.0,0.0,0.0,0.0,0.0,0.0,0.0,0.0,0.0,3.7302,3.7912,0.0,0.0,0.0,0.0,0.0,0.0,3.768,3.8202,3.8202,0.0,0.0,0.0,0.0,0.0,0.0,0.0,0.0,0.0,4.1249,4.161,4.367,4.5325,4.6401,4.6401,4.7353,4.8635,5.009,5.0558,5.0728,5.1141,5.2492,5.3632,5.2695,5.3922,5.5049,5.4094,5.4685,5.5409,5.5328,5.5144,5.4767,5.4103,5.4459,5.468,5.4103,5.5272,5.6634,5.7482,5.8173,5.937,6.1465,6.1757,6.2372,6.3764,6.3344,6.3279,6.3959,6.4574,6.493,6.493,6.4995,6.5319,6.5999,6.6711,6.71,6.71,6.778,6.8104,6.8104,6.8169,6.8201,6.8201,6.8201,6.8201,6.8201,6.8201,6.8201,0.0,6.8201,6.8201,6.8201,6.8201,6.859,6.9173,6.9173,6.9658,7.0306,0.0,0.0,0.0,0.0,0.0,0.0,3.3035,3.3296,3.3093,3.2048,3.1932,3.1932,3.1932,3.2513,3.3151,3.379,0.0,0.0,0.0,0.0,0.0,0.0,0.0,0.0,0.0,0.0,3.6896,3.7302,3.7535,0.0,0.0,0.0,0.0,0.0,0.0,3.7651,3.8202,3.8202,0.0,0.0,0.0,0.0,0.0,0.0,0.0,0.0,0.0,0.0,4.1701,4.3332,4.5166,4.6837,4.77,4.8675,4.9441,4.9384,5.0398,5.1448,5.1017,5.2502,5.4122,5.3538,5.4433,5.5328,5.4966,5.5131,5.5409,5.5409,5.5306,5.5236,5.4948,5.5108,5.5153,5.4915,5.5744,5.6737,5.7482,5.8194,5.9425,6.1562,6.1821,6.2404,6.3862,6.3732,6.3862,6.4574,6.4866,6.5416,6.629,6.6323,6.6452,6.6744,6.7424,6.778,6.778,6.8072,6.8201,6.8201,6.8201,6.8201,6.8201,6.8201,6.8201,6.8201,6.8201,6.8201,0.0,6.8201,6.846,6.8849,6.8849,6.9302,6.995,6.995,7.0403,7.1019,0.0,0.0,0.0,0.0,0.0,3.3412,3.3209,3.318,3.2716,3.1409,3.1235,3.1322,3.1496,3.2106,3.2774,3.3412,3.4051,0.0,0.0,0.0,0.0,0.0,0.0,0.0,0.0,0.0,3.646,3.7302,3.7099,3.6431,0.0,0.0,3.6315,3.6344,0.0,0.0,0.0,0.0,0.0,0.0,0.0,0.0,0.0,0.0,0.0,0.0,0.0,0.0,0.0,0.0,0.0,4.6697,4.7942,4.9135,5.0005,4.9458,5.0659,5.2036,5.1203,5.2472,5.4083,5.4154,5.4434,5.4859,5.5053,5.4956,5.4794,5.4794,5.5118,5.5409,5.5409,5.5604,5.5733,5.5733,5.5992,5.651,5.745,5.8,5.9198,6.153,6.1821,6.2404,6.3862,6.4185,6.4445,6.4704,6.5319,6.6096,6.7132,6.7392,6.7489,6.7489,6.7942,6.8201,6.8201,6.8201,6.8201,6.8201,6.8201,6.8201,6.8201,6.8201,6.8201,6.8201,6.8201,6.8331,0.0,6.8525,6.8946,6.9626,6.9626,7.0047,7.0695,7.0695,7.1148,7.1731,0.0,0.0,0.0,0.0,0.0,0.0,3.2629,3.2542,3.2048,3.0771,3.0597,3.0829,3.1438,3.2106,3.2774,3.3412,3.4051,0.0,0.0,0.0,0.0,0.0,0.0,0.0,0.0,0.0,3.5996,3.7302,3.6635,3.5996,3.5456,3.6025,3.6315,3.6344,0.0,0.0,0.0,0.0,0.0,0.0,0.0,0.0,3.9379,0.0,0.0,0.0,0.0,0.0,0.0,0.0,0.0,0.0,0.0,4.8275,5.026,5.0973,5.1653,5.2203,5.2203,5.2754,5.3499,5.4244,5.3887,5.3531,5.4244,5.3855,5.3337,5.3337,5.4438,5.5409,5.5409,5.5992,5.6478,5.6478,5.5895,5.5928,5.7385,5.7579,5.8648,6.1465,6.1821,6.2404,6.3862,6.4606,6.4736,6.4088,6.5967,0.0,6.7197,6.7813,6.8201,6.8201,6.8201,6.8201,6.8201,6.8201,6.8201,6.8201,6.8201,6.8201,6.8201,6.8201,6.8201,6.8201,6.8201,6.859,0.0,6.927,6.9723,7.0403,7.0403,7.0824,7.1407,7.1407,7.1861,7.2476,0.0,0.0,0.0,0.0,0.0,0.0,0.0,3.318,3.2687,3.138,3.1235,3.1293,3.1496,3.2106,3.2774,3.3412,3.4051,0.0,0.0,0.0,0.0,0.0,0.0,0.0,0.0,3.6112,3.6199,3.6635,3.5967,3.5561,3.5427,3.5561,3.6141,3.6983,3.7215,3.7651,0.0,0.0,0.0,0.0,0.0,3.9103,3.9421,0.0,0.0,0.0,0.0,0.0,0.0,0.0,0.0,0.0,0.0,0.0,0.0,5.0098,5.094,5.162,5.2074,5.2365,5.2721,5.3466,5.3499,5.3369,5.3596,5.3499,5.3337,5.3337,5.3661,5.4276,5.5247,5.5215,5.5377,5.6349,5.5895,5.5928,5.7385,5.7579,5.8615,6.1465,6.2696,6.3505,6.3959,6.4639,6.5157,6.5416,6.6517,6.7392,6.7845,6.8072,6.8201,6.8201,6.8201,6.8201,6.8201,6.8201,6.8201,6.8201,6.8201,6.8201,6.8201,6.8201,6.8201,6.8234,6.8719,6.9076,6.9335,6.982,7.0468,7.1083,7.1083,7.1537,7.2152,7.2152,7.2314,7.2508,0.0,0.0,0.0,0.0,0.0,0.0,0.0,3.347,3.3093,3.2048,3.1903,3.199,3.2222,3.2629,3.3122,3.3761,3.4196,0.0,0.0,0.0,0.0,0.0,0.0,0.0,3.6286,3.6083,3.6054,3.6315,3.5677,3.5503,3.5735,3.5967,3.6519,3.7331,3.7535,3.7854,0.0,0.0,0.0,0.0,3.8694,3.903,3.9463,0.0,0.0,0.0,0.0,0.0,0.0,0.0,0.0,0.0,0.0,0.0,0.0,0.0,5.0001,5.094,5.162,5.1815,5.1977,5.2721,5.2689,5.2592,5.2851,5.2689,5.2592,5.2851,5.3142,5.3758,5.515,5.5086,5.515,5.6316,5.5895,5.5928,5.7385,5.7579,5.8615,6.1465,6.3117,6.4121,6.438,6.5027,6.574,6.6452,6.7165,6.7748,6.8169,6.8201,6.8201,6.8201,6.8201,6.8072,6.7813,6.8072,6.8201,6.8201,6.8201,6.8201,6.8201,6.8201,6.8363,6.8622,6.9076,6.9594,0.0,7.0598,7.1213,7.1828,7.1828,7.212,7.2508,7.2508,7.2508,7.2508,0.0,0.0,0.0,0.0,0.0,0.0,0.0,3.3529,3.3296,3.2658,3.26,3.2803,3.3354,3.3412,3.3674,3.4341,0.0,0.0,0.0,0.0,0.0,0.0,0.0,0.0,3.6373,3.5764,3.5735,3.6373,3.5735,3.5764,3.6402,3.7012,3.7331,3.7389,3.7941,3.8202,0.0,0.0,0.0,0.0,3.8277,3.8694,0.0,0.0,0.0,0.0,0.0,0.0,0.0,0.0,0.0,0.0,0.0,0.0,0.0,0.0,0.0,0.0,0.0,5.1135,5.1329,5.1977,5.1653,5.1329,5.1977,5.1685,0.0,5.2074,5.2786,5.3758,5.515,5.5377,5.5604,5.6381,5.5928,5.5992,5.7385,5.7741,5.8874,6.1562,6.3149,6.4283,6.4963,6.5675,6.642,6.7132,6.7813,6.8201,6.8201,6.8201,6.8169,6.8136,6.8169,6.791,6.7262,6.7877,6.8201,6.8201,6.8201,6.8201,6.8201,6.8234,6.8655,0.0,6.9399,7.0177,7.1407,7.1472,7.1893,7.2508,7.2508,7.2508,7.2508,7.2508,7.2508,7.2508,0.0,0.0,0.0,0.0,0.0,0.0,0.0,0.0,0.0,0.0,3.3238,3.3122,3.2774,3.2745,3.318,0.0,0.0,0.0,0.0,0.0,0.0,0.0,0.0,0.0,3.707,3.6431,3.6402,3.707,3.6402,3.6431,3.707,3.7244,3.7564,3.7999,3.8144,3.8202,0.0,0.0,0.0,0.0,3.8811,3.9433,0.0,0.0,0.0,0.0,4.3234,4.3202,0.0,0.0,0.0,0.0,0.0,0.0,0.0,0.0,4.8252,4.8771,5.0034,0.0,5.1232,5.1394,5.1297,5.1232,0.0,5.1685,5.2009,5.2171,5.2786,5.3758,5.515,5.4988,5.5053,5.6284,5.6349,5.6543,5.745,5.9425,6.1271,6.2502,6.3441,6.4283,6.4963,6.5675,6.642,6.7132,6.7813,6.8201,6.8201,6.8201,6.7974,6.7456,6.791,6.8136,6.7974,6.8104,6.8201,6.8201,6.8201,6.8201,6.8234,6.8784,6.9108,6.9335,7.0436,7.1116,7.1472,7.2022,7.2346,7.2508,7.2508,7.2508,7.2508,7.2508,7.2508,7.2508,0.0,0.0,0.0,0.0,0.0,0.0,0.0,0.0,0.0,0.0,0.0,3.3325,3.3006,3.2687,0.0,0.0,0.0,0.0,0.0,0.0,0.0,0.0,0.0,3.6489,3.6838,3.6489,3.6635,3.7302,3.6954,3.7099,3.7709,3.8077,3.8223,3.8202,3.8202,3.8202,0.0,0.0,0.0,3.8767,3.9175,0.0,0.0,0.0,0.0,0.0,4.3201,4.3168,0.0,4.3654,4.3751,4.3848,0.0,0.0,0.0,0.0,4.7475,4.8188,4.8933,4.9904,5.0778,5.1102,5.1199,5.1199,5.1199,5.1718,5.23,5.2624,5.3304,5.4146,5.5215,5.5118,5.5118,5.5863,5.6284,5.6964,5.8356,6.0429,6.2081,6.2793,6.3829,6.4768,0.0,6.6193,6.6906,6.7618,6.7974,6.8201,6.8201,6.8201,6.8039,6.7651,6.8007,6.8039,6.7748,6.8039,6.8201,6.8201,6.8201,6.8201,6.8234,6.8946,6.9464,6.9853,7.0954,7.1601,7.1958,7.2346,7.2508,7.2508,7.2508,7.2508,7.2508,7.2508,7.2508,7.2508,0.0,0.0,0.0,0.0,0.0,0.0,0.0,0.0,0.0,0.0,0.0,0.0,0.0,0.0,0.0,0.0,0.0,0.0,0.0,0.0,0.0,0.0,3.6402,3.646,3.646,3.646,3.6852,3.7594,3.7521,3.7827,3.8546,3.903,3.8957,3.8352,3.8352,3.8277,3.8202,0.0,3.8767,3.932,3.9433,0.0,0.0,0.0,0.0,0.0,0.0,0.0,0.0,4.2974,4.3136,4.3557,4.3686,0.0,0.0,0.0,0.0,0.0,4.7993,4.8965,5.0131,5.0843,5.1102,5.1199,5.1329,5.1879,5.2592,5.3337,5.4049,5.4729,5.5312,5.5409,5.5442,5.5571,5.6284,5.7579,5.9749,6.1044,6.2113,6.2955,6.4218,0.0,6.6031,6.6776,6.7456,6.8136,6.8201,6.8201,6.8201,6.8201,6.8201,6.8201,6.8201,6.791,6.7359,6.791,6.8201,6.8201,6.8201,6.8266,6.8395,6.9108,6.9853,7.0598,7.1278,0.0,7.2508,7.2508,7.2508,7.2508,7.2508,7.2508,7.2508,7.2508,7.2508,7.2508,0.0,0.0,0.0,0.0,0.0,0.0,0.0,0.0,0.0,0.0,0.0,0.0,0.0,0.0,0.0,0.0,0.0,0.0,0.0,0.0,0.0,3.6315,3.6838,3.7157,3.7157,3.7157,3.7711,3.8954,3.8355,3.8723,4.0069,3.9535,3.9247,3.9103,3.9103,3.8767,3.8277,3.8884,3.9175,3.9391,3.9999,0.0,0.0,0.0,0.0,0.0,0.0,0.0,0.0,4.3362,4.3201,4.2909,4.3524,0.0,0.0,0.0,0.0,0.0,4.7831,4.8576,4.9354,5.0098,5.0746,5.1329,5.1912,5.2624,5.3369,5.4082,5.4794,5.528,5.5409,5.5409,5.5604,5.6219,5.745,5.9036,6.1206,6.166,6.2307,6.3667,0.0,6.5319,6.6031,6.6776,6.7456,6.8136,6.8201,6.8201,6.8201,6.8201,6.8201,6.8201,6.8201,6.8136,6.8039,6.8136,6.8201,6.8201,6.8201,6.8525,6.914,6.9885,7.0598,7.131,0.0,7.2411,7.2508,7.2508,7.2508,7.2508,7.2508,7.2508,7.2508,7.2508,7.2508,7.2508,0.0,0.0,0.0,0.0,0.0,0.0,0.0,0.0,0.0,0.0,0.0,0.0,0.0,0.0,0.0,0.0,0.0,0.0,0.0,0.0,3.6259,3.6286,3.7328,3.7718,3.7364,3.7718,3.8549,3.9859,3.9505,3.9718,4.0416,4.0069,4.0139,4.0485,4.0069,3.9718,3.9391,3.9718,4.0139,4.0485,0.0,0.0,0.0,0.0,0.0,0.0,0.0,0.0,0.0,0.0,4.2909,4.2682,4.3006,0.0,0.0,0.0,0.0,0.0,4.7702,4.8512,4.9192,4.9936,5.0908,5.1815,5.2139,5.3078,5.4017,5.4341,5.4924,5.5409,5.5409,5.5733,5.6349,5.7482,5.8518,5.9814,6.1562,6.2145,6.2793,0.0,0.0,6.574,6.6064,6.71,6.7877,6.8169,6.8201,6.8201,6.8201,6.8201,6.8201,6.8201,6.8201,6.8201,6.8201,6.8201,6.8201,6.8201,6.8201,6.859,6.9302,7.0047,7.0792,7.1472,0.0,7.2508,7.2508,7.2508,7.2508,7.2508,7.2508,7.2508,7.2508,7.2508,7.2508,7.2508,0.0,0.0,0.0,0.0,0.0,0.0,0.0,0.0,0.0,0.0,0.0,0.0,0.0,0.0,0.0,0.0,0.0,0.0,0.0,3.5481,3.5859,3.6541,3.7575,3.7952,3.7443,3.8361,3.9443,4.069,4.0485,4.0485,4.069,4.0826,4.1095,4.1459,4.0894,4.0554,4.0416,4.0554,4.0961,4.1525,0.0,0.0,0.0,0.0,0.0,0.0,0.0,0.0,0.0,0.0,0.0,0.0,0.0,0.0,0.0,4.4625,4.5403,4.6342,4.767,4.8512,4.9224,5.0131,5.1297,5.2236,5.243,5.3466,5.4438,5.46,5.5053,5.5474,5.5636,5.6381,5.7352,5.8453,5.9393,6.0397,6.1627,6.2437,6.3214,6.4153,6.5351,6.6161,6.6355,6.7456,6.8201,6.8201,6.8201,6.8201,6.8201,6.8201,6.8201,6.8201,6.8201,6.8201,6.8201,6.8201,6.8201,6.8201,6.8363,6.8849,6.9561,7.0306,7.1019,7.1699,7.2249,7.2508,7.2508,7.2508,7.2508,7.2508,7.2508,7.2508,7.2508,7.2508,7.2508,7.2508,0.0,0.0,0.0,0.0,0.0,0.0,0.0,0.0,0.0,0.0,0.0,0.0,0.0,0.0,0.0,0.0,0.0,0.0,0.0,3.5943,3.6584,3.7216,3.7404,3.7473,3.7413,3.9268,4.0659,4.1459,4.0758,4.0758,4.1459,4.2142,4.2077,4.1525,4.1459,4.1028,4.0416,4.1095,4.1459,4.1591,4.2238,0.0,0.0,0.0,0.0,0.0,0.0,0.0,0.0,0.0,0.0,0.0,0.0,0.0,4.4723,4.4787,4.5759,4.6989,4.7799,4.8512,4.9354,5.0746,5.1653,5.2365,5.3078,5.3855,5.4567,5.5215,5.5377,5.5604,5.6284,5.7547,5.8518,5.8615,5.9814,6.0979,6.1692,0.0,6.3408,6.4801,6.5643,6.6355,6.7035,6.778,6.8201,6.8201,6.8201,6.8201,6.8201,6.8201,6.8201,6.8201,6.8201,6.8201,6.8201,6.8201,6.8201,6.8201,6.8881,6.9594,7.0338,7.1019,7.1731,7.2411,7.2476,7.2508,7.2508,7.2508,7.2508,7.2508,7.2508,7.2508,7.2508,7.2508,7.2508,7.2508,0.0,0.0,0.0,0.0,0.0,0.0,0.0,0.0,0.0,0.0,0.0,0.0,0.0,0.0,0.0,0.0,0.0,0.0,0.0,3.583,3.6224,3.7285,3.8218,3.8741,3.8741,4.0275,4.1459,4.2142,4.1917,4.1948,4.2206,4.2492,4.2429,4.2142,4.2142,4.2013,4.1819,4.2077,4.2142,4.2206,4.2492,4.2618,0.0,0.0,0.0,0.0,0.0,0.0,0.0,0.0,4.2618,4.2618,4.2618,4.333,4.4204,4.4658,4.5467,4.6568,4.8188,4.8835,4.9483,5.1361,5.2365,5.3078,5.3823,5.4535,5.5118,5.5377,5.5409,5.5766,5.6931,5.7968,5.8939,5.9846,6.0785,6.166,6.2372,6.3117,6.3959,6.4898,6.5675,6.6388,6.71,6.7813,6.8201,6.8201,6.8201,6.8201,6.8201,6.8201,6.8201,6.8201,6.8201,6.8201,6.8201,6.8201,6.8428,6.8881,6.914,6.9885,7.1051,7.131,7.1828,7.2508,7.2508,7.2508,7.2508,7.2508,7.2508,7.2508,7.2508,7.2508,7.2508,7.2508,7.2508,7.2508,0.0,0.0,0.0,0.0,0.0,0.0,0.0,0.0,0.0,0.0,0.0,0.0,0.0,0.0,0.0,0.0,0.0,0.0,3.6476,3.6197,3.6631,3.7928,3.8933,3.9596,3.9843,4.1151,4.2077,4.2618,4.2618,4.2618,4.2618,4.2618,4.2618,4.2618,4.2618,4.2618,4.2618,4.2618,4.2618,4.2618,4.2618,4.2618,0.0,0.0,0.0,0.0,0.0,0.0,0.0,0.0,4.2618,4.2618,4.2618,4.3298,4.414,4.4658,4.5597,4.686,4.8576,4.9354,5.0163,5.2074,5.311,5.3855,5.4567,5.5086,5.5409,5.5409,5.5766,5.6478,5.7676,5.868,5.9652,6.0623,6.1562,6.2307,6.2825,6.3538,6.4347,6.5254,6.5805,6.6485,6.7424,6.791,6.8201,6.8201,6.8201,6.8201,6.8201,6.8201,6.8201,6.8201,6.8201,6.8201,6.8201,6.8428,6.8914,6.9626,6.9853,7.0468,7.144,7.1666,7.2022,7.2508,7.2508,7.2508,7.2508,7.2508,7.2508,7.2508,7.2508,7.2508,7.2508,7.2508,7.2508,7.2508,0.0,0.0,0.0,0.0,0.0,0.0,0.0,0.0,0.0,0.0,0.0,0.0,0.0,0.0,0.0,0.0,0.0,0.0,3.7231,3.7326,3.8017,3.9314,3.9439,3.9843,4.048,4.1905,4.2618,4.2618,4.2618,4.2618,4.2618,4.2618,4.2618,4.2618,4.2618,4.2618,4.2618,4.2618,4.2618,4.2618,4.2618,4.2618,4.2618,0.0,0.0,0.0,0.0,0.0,0.0,0.0,4.2618,4.2618,4.2618,4.3622,4.4787,4.4787,4.6309,4.8155,4.8835,5.0098,5.1523,5.2981,5.3855,5.4567,5.5247,5.5409,5.5442,5.5442,5.6575,5.7806,5.8518,5.9814,6.0785,6.0818,6.1983,6.289,6.289,6.3538,6.4542,6.5934,6.6129,6.6679,6.8072,6.8201,6.8201,6.8201,6.8201,6.8201,6.8201,6.8201,6.8201,6.8201,6.8201,6.8201,6.8201,6.8914,6.9658,7.0436,7.1083,7.1407,7.144,7.2184,7.2508,7.2508,7.2508,7.2508,7.2508,7.2508,7.2508,7.2508,7.2508,7.2508,7.2508,7.2508,7.2508,7.2508,0.0,0.0,0.0,0.0,0.0,0.0,0.0,0.0,0.0,0.0,0.0,0.0,0.0,0.0,0.0,0.0,0.0,0.0,3.6537,3.7514,3.8243,3.8588,3.9202,3.9817,4.048,4.1905,4.2618,4.2618,4.2618,4.2618,4.2618,4.2618,4.2618,4.2618,4.2618,4.2618,4.2618,4.2618,4.2618,4.2618,4.2618,4.2618,4.2618,0.0,0.0,0.0,0.0,0.0,0.0,0.0,0.0,0.0,4.2618,4.3622,4.4787,4.4787,4.6309,4.8155,4.8835,5.0098,5.1523,5.2981,5.3855,5.4567,5.5247,5.5798,5.6316,5.6834,5.7676,5.8389,5.8583,5.9814,6.0947,6.1433,6.2275,6.3084,6.3603,6.4283,6.506,6.5999,6.655,6.723,6.8104,6.8201,6.8201,6.8201,6.8201,6.8201,6.8201,6.8201,6.8201,6.8201,6.8201,6.846,6.8946,6.9173,6.9885,7.1116,7.131,7.1699,7.2184,7.2411,7.2508,7.2508,7.2508,7.2508,7.2508,7.2508,7.2508,7.2508,7.2508,7.2508,7.2508,7.2508,7.2508,7.2508,0.0,0.0,0.0,0.0,0.0,0.0,0.0,0.0,3.5328,3.4883,3.446,3.4151,0.0,0.0,0.0,3.4101,3.5169,3.6077,3.6596,3.7472,3.8237,3.8758,3.9269,3.993,4.0901,4.1776,4.2359,4.2618,4.2618,4.2618,4.2618,4.2618,4.2618,4.2618,4.2618,4.2618,4.2618,4.2618,4.2618,4.2618,4.2618,4.2618,4.2618,0.0,0.0,0.0,0.0,0.0,0.0,0.0,0.0,0.0,4.2618,4.3427,4.4431,4.4723,4.6309,4.8155,4.8835,5.0487,5.2236,5.311,5.4049,5.4988,5.5701,5.6187,5.6705,5.7417,5.813,5.881,5.9393,6.0429,0.0,6.2113,6.2858,6.3505,6.3959,6.4606,6.5287,6.6031,6.6744,6.7456,6.8136,6.8201,6.8201,6.8201,6.8201,6.8201,6.8201,6.8201,6.8201,6.8201,6.846,6.8849,6.927,6.9853,7.0565,7.1407,7.1699,7.2087,7.2508,7.2508,7.2508,7.2508,7.2508,7.2508,7.2508,7.2508,7.2508,7.2508,7.2508,7.2508,7.2508,7.2508,7.2508,7.2508,0.0,0.0,0.0,0.0,0.0,0.0,0.0,3.5777,3.5298,3.4495,3.4333,3.425,0.0,0.0,0.0,3.4101,3.4748,3.5752,3.7145,3.7274,3.7922,3.9314,3.9502,4.0118,4.1355,4.1578,4.1873,4.252,4.2585,4.2618,4.2618,4.2618,4.2618,4.2618,4.2618,4.2618,4.2618,4.2618,4.2618,4.2618,4.2618,4.2618,4.2618,4.2618,0.0,0.0,0.0,0.0,0.0,0.0,0.0,0.0,4.2618,4.3136,4.3913,4.4593,4.6277,4.8091,4.8803,5.1038,5.3175,5.3304,5.4373,5.5604,5.6251,5.651,5.6802,5.7514,5.8227,5.9166,6.0526,6.1336,6.2048,6.2761,6.3538,6.4024,6.4024,6.4671,6.5384,6.6031,6.6809,6.7521,6.8136,6.8201,6.8201,6.8201,6.8201,6.8201,6.8201,6.8201,6.8234,6.8298,6.8946,6.9335,6.9464,7.0759,7.144,7.1537,7.2184,7.2508,7.2508,7.2508,7.2508,7.2508,7.2508,7.2508,7.2508,7.2508,7.2508,7.2508,7.2508,7.2508,7.2508,7.2508,7.2508,7.2508,0.0,0.0,0.0,0.0,0.0,0.0,3.7458,3.6536,3.5646,3.523,3.4658,3.425,3.4101,3.4101,0.0,3.4101,3.4748,3.5558,3.6465,3.7015,3.7695,3.8602,3.93,3.9722,3.993,4.1119,4.1768,4.1808,4.2359,4.2618,4.2618,4.2618,4.2618,4.2618,4.2618,4.2618,4.2618,4.2618,4.2618,4.2618,4.2618,4.2618,4.2618,4.2618,4.2618,0.0,0.0,0.0,0.0,0.0,0.0,0.0,4.2837,4.3451,4.4232,4.4821,4.609,4.7582,4.8673,5.0293,5.1912,5.3045,5.4373,5.5442,5.5604,5.651,5.7547,5.8259,5.8972,5.9749,6.0623,6.1336,6.2048,6.2761,6.3538,6.4024,6.4024,6.5092,6.5934,6.6096,6.723,6.8039,6.8201,6.8201,6.8201,6.8201,6.8201,6.8201,6.8201,6.8201,6.846,6.9043,6.9205,6.982,7.0954,7.1278,7.1699,7.2282,7.2411,7.2508,7.2508,7.2508,7.2508,7.2508,7.2508,7.2508,7.2508,7.2508,7.2508,7.2508,7.2508,7.2508,7.2508,7.2508,7.2508,7.2508,0.0,0.0,0.0,0.0,0.0,0.0,0.0,0.0,3.6521,3.5218,3.4726,3.4448,3.43,3.43,0.0,0.0,3.4658,3.5179,3.5929,3.6507,3.7329,3.8455,3.8934,3.9292,3.9592,4.0424,4.1167,4.1703,4.2122,4.2418,4.2618,4.2713,4.2713,4.2618,4.2713,4.2713,4.2618,4.2713,4.2713,4.2618,4.2618,4.265,4.2775,4.2775,4.2743,4.2867,4.2899,0.0,0.0,0.0,0.0,0.0,0.0,0.0,4.3899,4.482,4.5963,4.7137,4.8686,5.0286,5.1815,5.3526,5.4712,5.5409,5.5409,5.6543,5.7676,5.8065,5.8972,6.004,6.1077,6.1562,6.2178,6.3246,6.3764,6.4121,6.4445,6.5416,6.6226,6.6582,6.7553,6.8201,6.8201,6.8201,6.8201,6.8201,6.8201,6.8201,6.8201,6.8201,6.8525,6.927,6.9626,7.0338,7.1407,7.1763,7.212,7.2508,7.2508,7.2508,7.2508,7.2508,7.2508,7.2508,7.2508,7.2508,7.2508,7.2508,7.2508,7.2508,7.2508,7.2508,7.2508,7.2508,7.2508,7.2508,0.0,0.0,0.0,0.0,0.0,0.0,0.0,0.0,0.0,3.4955,3.4691,3.4643,3.4497,3.4497,3.4497,0.0,0.0,0.0,3.5545,3.6209,3.7232,3.8567,3.8688,3.8949,3.9512,3.978,4.05,4.1629,4.1907,4.2272,4.268,4.2899,4.2837,4.268,4.2899,4.2837,4.268,4.2899,4.2837,4.268,4.268,4.2775,4.2961,4.2961,4.299,4.3113,4.3023,4.2961,4.2961,4.2961,0.0,0.0,0.0,0.0,4.3469,4.4913,4.5798,4.6684,4.8768,5.0627,5.2431,5.415,5.4955,5.5409,5.5409,5.6543,5.7579,5.7579,5.8713,6.0137,6.1562,6.1821,6.2275,6.3764,6.4024,6.425,6.493,6.5643,6.6355,6.71,6.778,6.8201,6.8201,6.8201,6.8201,6.8201,6.8201,6.8201,6.8201,6.8331,6.8719,6.9464,7.0177,7.0921,7.1601,7.2217,7.2508,7.2508,7.2508,7.2508,7.2508,7.2508,7.2508,7.2508,7.2508,7.2508,7.2508,7.2508,7.2508,7.2508,7.2508,7.2508,7.2508,7.2508,7.2508,7.2508,0.0,0.0,0.0,0.0,0.0,0.0,0.0,0.0,0.0,0.0,3.4691,3.4643,3.4497,3.4497,3.4497,3.4497,3.4497,3.4792,3.5545,0.0,0.0,3.8733,3.8876,3.8854,3.8763,3.9631,4.0385,4.0945,4.1829,4.2545,4.3052,4.3052,4.3052,4.3052,4.3052,4.3052,4.3052,4.3052,4.3052,4.3052,4.3052,4.3052,4.3052,4.3052,4.3113,4.3113,4.3267,4.3235,4.3113,4.3235,4.3328,0.0,0.0,0.0,4.3773,4.5102,4.5532,4.6223,4.8846,5.1418,5.3465,5.3913,5.4756,5.5491,5.5685,5.6709,5.7579,5.7579,5.8713,6.0137,6.1562,6.1821,6.2275,6.3764,6.4024,6.425,6.493,6.5643,6.6355,6.71,6.778,6.8201,6.8201,6.8201,6.8201,6.8201,6.8201,6.8201,6.8201,6.8784,6.9464,7.0241,7.0921,7.1634,7.2346,7.2443,7.2508,7.2508,7.2508,7.2508,7.2508,7.2508,7.2508,7.2508,7.2508,7.2508,7.2508,7.2508,7.2508,7.2508,7.2508,7.2508,7.2508,7.2508,7.2508,7.2508,0.0,0.0,0.0,0.0,0.0,0.0,0.0,0.0,0.0,0.0,0.0,3.4787,3.4739,3.4739,3.4739,3.4739,3.4739,3.5185,3.6237,3.6894,3.7748,3.8865,3.8985,3.8931,3.8821,3.9369,3.9896,4.0394,4.0951,4.1535,4.2137,4.2565,4.29,4.3113,4.3235,4.3235,4.3113,4.3235,4.3174,4.3113,4.3113,4.3174,4.3235,4.3235,4.3295,4.3355,4.3388,4.3295,4.3295,4.3388,4.3388,4.3449,4.3509,0.0,0.0,0.0,4.5326,4.6284,4.9189,5.1211,5.2758,5.3803,5.4632,5.5324,5.5829,5.6629,5.7477,5.7901,5.8815,5.9914,6.1465,6.1821,6.2275,6.3919,6.4085,6.425,6.5121,6.5739,6.6485,6.7297,6.788,6.8301,6.8401,6.8301,6.8201,6.8201,6.8201,6.8201,6.8201,6.8881,6.9626,7.0371,7.1292,7.1974,7.2476,7.2615,7.2615,7.2508,7.2508,7.2615,7.2721,7.2721,7.2615,7.2508,7.2508,7.2508,7.2508,7.2508,7.2508,7.2508,7.2508,7.2508,7.2508,7.2721,7.2721,7.2721,0.0,0.0,0.0,0.0,0.0,0.0,0.0,0.0,0.0,0.0,0.0,3.5379,3.5214,0.0,0.0,0.0,3.4883,3.5463,3.6851,3.7114,3.7774,3.9028,3.9094,3.904,3.904,3.9202,3.9566,4.0127,4.0326,4.0746,4.1442,4.1972,4.2518,4.2972,4.329,4.3355,4.3235,4.3388,4.3355,4.3235,4.3235,4.3295,4.3449,4.3449,4.3608,4.3893,4.3773,4.3713,4.3713,4.3713,4.3581,4.3449,4.3568,4.3628,0.0,0.0,0.0,4.6841,4.9061,5.0669,5.213,5.3634,5.447,5.5201,5.6001,5.669,5.7265,0.0,5.8674,5.9768,6.1215,6.1743,6.2516,6.3936,6.398,6.4305,6.5372,6.5769,6.6452,6.7557,6.8078,6.8501,6.86,6.8501,6.8401,6.8301,6.8401,6.8401,6.8401,6.9246,7.0025,7.0577,7.1662,7.2379,7.2688,7.29,7.29,7.2615,7.2688,7.2794,7.3005,7.3005,7.29,7.2688,7.2688,7.2688,7.2688,7.2688,7.2688,7.2615,7.2721,7.2688,7.2615,7.29,7.3005,7.3005,0.0,0.0,0.0,0.0,0.0,0.0,0.0,0.0,0.0,0.0,0.0,3.6738,3.6009,3.5943,3.5644,3.4949,3.4883,3.5512,3.7003,3.7765,3.8493,3.9222,3.9255,0.0,3.9007,3.9202,3.9566,4.0127,4.0326,4.0746,4.1409,4.1442,4.1872,4.2543,4.3238,4.3568,4.3568,4.3568,4.3568,4.3568,4.3568,4.3568,4.3568,4.3568,4.4059,4.4622,4.4622,4.4622,4.4622,4.4622,4.4191,4.3568,4.3628,4.3628,4.3761,0.0,0.0,0.0,4.8067,5.005,5.2218,5.3195,5.426,5.5247,5.6126,5.677,5.7134,5.7167,5.8314,5.9559,6.0292,6.1655,6.2802,6.3523,6.3654,6.4145,6.5587,6.5816,6.634,6.7749,6.8535,6.8896,6.86,6.8797,6.8896,6.86,6.8797,6.8994,6.8994,7.0337,7.1156,7.1189,7.2532,7.3252,7.3318,7.3285,7.311,7.2932,7.311,7.3318,7.3318,7.3318,7.3285,7.3318,7.3318,7.3318,7.3318,7.3318,7.311,7.2932,7.3214,7.311,7.29,7.3214,7.3318,7.3285,0.0,0.0,0.0,0.0,0.0,0.0,0.0,0.0,0.0,0.0,0.0,0.0,0.0,3.6704,3.6605,3.634,3.6307,3.6738,3.7765,3.8063,3.8526,3.9255,3.9288,3.9255,3.9202,3.9255,3.9388,3.9599,3.9653,3.9785,4.005,4.0514,4.1143,4.1839,4.2568,4.3197,4.3628,4.3628,4.3628,4.3628,4.3628,4.3893,4.4324,4.4324,4.4754,4.5384,4.5384,0.0,4.5384,4.5384,4.492,4.4324,4.4324,4.3992,4.3761,4.4489,4.5251,4.6179,4.7603,4.9027,5.0582,5.234,5.3684,5.4863,5.5699,5.6393,5.6975,5.7437,5.7965,5.869,5.9911,6.1074,6.2333,6.3603,6.3317,6.3261,6.4458,6.4892,6.5548,6.6719,6.768,6.8469,6.9058,6.8994,6.8994,6.8896,6.8994,6.8994,6.8994,7.0402,7.1189,7.1189,7.2802,7.3661,7.3661,7.3422,7.3285,7.3214,7.3285,7.3422,7.3661,7.3661,7.3764,7.3833,7.3833,7.3628,7.3285,7.3285,7.3214,7.3214,7.3318,7.3214,7.3214,7.3558,7.3661,7.3661,0.0,0.0,0.0,0.0,0.0,0.0,0.0,0.0,4.0812,3.9156,0.0,0.0,0.0,0.0,3.7367,3.7135,3.7334,3.7698,3.8195,3.8427,3.8791,3.9255,3.9288,3.9288,3.9288,3.952,3.952,3.9288,3.952,3.952,3.9288,3.9785,4.0514,4.1442,4.1939,4.27,4.3628,4.3628,4.3628,4.3628,4.3893,4.4257,4.4721,4.5251,4.5881,4.6543,0.0,0.0,0.0,4.6245,4.5682,4.5052,4.5052,4.4556,4.4026,4.4257,4.4489,4.5052,4.6775,4.7968,4.926,5.1479,5.2904,5.4129,5.5355,5.5984,5.6547,5.7276,5.7608,5.8104,5.9065,6.0208,6.1488,6.3144,6.3057,6.3002,6.3672,6.4276,6.491,6.5783,6.7076,6.8134,6.8954,6.9154,6.9188,6.9091,6.9188,0.0,6.9285,7.07,7.172,7.218,7.3371,7.3899,7.3797,7.3661,7.3525,7.3422,7.3525,7.3731,7.3899,7.3899,7.407,7.4171,7.4171,7.3935,7.3628,7.3628,7.3525,7.3422,7.3525,7.3525,7.3525,7.3764,7.3899,7.4001,0.0,0.0,0.0,0.0,0.0,0.0,0.0,0.0,4.121,4.0547,0.0,0.0,0.0,0.0,0.0,3.7235,3.7831,3.8228,3.8228,3.8891,3.9288,3.9288,3.9288,3.9288,3.9288,3.9984,3.9984,3.9288,3.9984,3.9984,3.9288,3.9288,4.005,4.1409,4.1409,4.2237,4.3628,4.3628,4.3628,4.3727,4.439,4.4721,4.492,4.6378,4.7404,0.0,4.8067,4.8067,0.0,4.7239,4.6477,4.5847,4.5814,4.5284,4.4556,4.386,4.4125,4.4821,0.0,0.0,0.0,5.0651,5.1777,5.2937,5.5057,5.5587,5.5819,5.6514,5.7243,5.7773,5.7806,5.8966,6.0423,6.1881,6.2742,6.3239,6.3272,6.3868,6.4564,6.5293,6.6684,6.7784,6.8196,6.9207,6.967,6.9382,6.9703,6.9798,6.9798,7.1189,7.268,7.4105,7.4171,7.407,7.3797,7.407,7.407,7.3797,7.407,7.4171,7.4171,7.4171,7.4171,7.4171,7.4171,7.4171,7.4171,7.4171,7.407,7.3797,7.407,7.407,7.3899,7.407,7.4171,7.4171,0.0,0.0,0.0,0.0,0.0,4.2137,4.2469,4.2336,4.2137,0.0,0.0,0.0,4.0613,4.0083,3.9487,3.8758,3.8858,3.899,3.899,3.9156,3.9288,3.9288,3.9288,3.9288,3.9288,3.9487,3.9487,3.9288,3.9487,3.9487,3.9288,3.9288,4.005,4.1409,4.1409,4.2237,4.3628,4.3628,0.0,4.439,4.4622,4.5317,0.0,0.0,0.0,0.0,0.0,4.9591,4.9558,0.0,4.8431,4.7206,4.6146,4.5284,4.4655,4.4456,4.4158,4.4092,4.4787,0.0,0.0,0.0,0.0,0.0,5.3135,5.4494,5.5686,5.5885,5.6481,5.7144,5.7707,5.8138,5.8899,6.0357,6.1218,6.208,6.314,6.3438,6.3835,6.4597,6.5955,6.7023,6.7751,6.8572,6.9202,0.0,6.9798,6.9798,6.9798,7.1189,7.268,7.4105,7.4171,7.4171,7.407,7.4171,7.4171,7.407,7.4171,7.4171,7.4171,7.4171,7.4171,7.4171,7.4171,7.4171,7.4171,7.4171,7.4171,7.407,7.4171,7.4171,7.407,7.4171,7.4171,7.4171,0.0,0.0,4.2535,4.2535,4.217,4.2005,4.2435,4.2535,4.2402,0.0,0.0,0.0,4.1475,4.1044,4.0647,4.0216,4.0183,4.005,3.9752,3.9719,3.9587,3.9288,3.9288,3.9288,3.9288,3.9587,3.9587,3.9288,3.9587,3.9587,3.9342,3.9587,4.0348,4.1442,4.174,4.2535,4.3628,4.3959,4.4324,0.0,4.5715,0.0,0.0,4.8862,4.9624,0.0,0.0,0.0,5.1015,5.0419,4.9425,0.0,4.7073,4.6212,4.5483,4.4854,4.439,4.4158,4.4589,4.5549,4.6676,4.7736,0.0,0.0,5.2175,5.3599,5.4891,0.0,5.6183,5.6812,5.7243,5.7574,5.8071,5.8933,5.9694,6.0688,6.2146,6.2643,6.3073,6.3835,6.4929,6.6022,0.0,6.8076,6.8871,6.9301,6.9633,6.9931,7.0229,7.1355,7.2548,7.3674,7.4005,7.4171,7.4171,7.4171,7.4171,7.4171,7.4171,7.4171,7.4171,7.4171,7.4171,7.4171,7.4171,7.4171,7.4171,7.4171,7.4171,7.4171,7.4171,7.4171,7.4171,7.4171,7.4171,7.4171,0.0,4.2617,4.246,4.256,4.2493,4.2435,4.2502,4.2535,4.2303,0.0,4.1674,4.164,4.1541,4.1541,4.1508,4.1409,4.1409,4.1143,4.0547,4.0481,4.0216,3.9553,3.9454,3.9388,3.9388,3.9951,3.9951,3.9288,3.9951,3.9951,3.9421,4.0083,4.0779,4.1574,4.2237,4.2932,4.3661,4.4456,4.4854,4.5119,4.7173,4.8067,0.0,0.0,5.1413,5.1413,5.1578,5.2075,5.2407,5.1085,5.0191,0.0,0.0,0.0,4.6969,4.5512,4.4953,4.4787,4.4688,4.5218,4.6113,4.7438,4.8431,0.0,5.1578,5.2672,5.3665,0.0,5.5951,5.6581,5.6581,5.7177,5.7707,5.7773,5.8336,5.933,6.0887,6.1649,6.2312,6.3073,6.3868,0.0,6.6154,6.7579,6.8506,6.8672,6.9368,7.0096,7.0858,7.162,7.2349,7.3078,7.3807,7.4171,7.4171,7.4171,7.4171,7.4171,7.4171,7.4171,7.4171,7.4171,7.4171,7.4171,7.4171,7.4171,7.4171,7.4171,7.4171,7.4171,7.4171,7.4171,7.4171,7.4171,7.4171,7.4171,4.4658,4.3376,4.2442,4.3103,4.2345,4.1839,4.2435,4.2535,4.2667,4.3131,4.3197,4.2965,4.2369,4.2303,4.2071,4.1475,4.1409,4.1342,4.121,4.121,4.1143,4.1011,4.0448,4.015,4.015,3.9719,3.9421,3.9288,3.9421,3.9719,4.0183,4.0315,4.1077,4.2303,4.2469,4.2932,4.3727,4.5019,4.5914,4.6543,4.7603,0.0,4.9127,5.1313,5.2175,5.2307,5.3467,5.3997,5.4037,5.3782,5.3213,5.2404,0.0,0.0,0.0,4.7797,4.651,4.545,4.4854,4.5218,4.5847,4.6146,4.7669,0.0,4.9657,5.1214,5.2672,0.0,5.4527,5.5819,5.5819,5.6415,5.7111,5.7707,5.7906,5.8734,6.0821,6.1218,6.1583,0.0,0.0,0.0,6.473,6.6088,6.7413,6.8606,6.9368,7.0096,7.0858,7.162,7.2349,7.3078,7.3807,7.4171,7.4171,7.4171,7.4171,7.4171,7.4171,7.4171,7.4171,7.4171,7.4171,7.4171,7.4171,7.4171,7.4171,7.4171,7.4171,7.4171,7.4171,7.4171,7.4171,7.4171,7.4171,7.4171,4.4251,4.3405,4.2929,4.3301,4.2601,4.2204,4.2965,4.3065,4.3197,4.3562,4.3628,4.3495,4.3098,4.3356,4.3361,4.2992,4.2959,4.2791,4.2423,4.2109,4.1806,4.1442,4.1077,4.0912,4.0912,4.0183,3.9818,3.9818,3.9508,3.9653,4.0382,4.0746,4.1643,4.2959,4.3016,4.3639,4.4641,4.5441,4.6444,4.7537,4.8663,0.0,5.0883,5.234,5.3135,5.3533,5.4262,5.4527,5.4568,5.537,5.4628,0.0,0.0,5.2725,5.0947,0.0,4.8279,4.7111,4.564,4.5781,4.6344,4.6344,0.0,0.0,0.0,5.0253,5.1413,5.1744,5.3268,5.4527,5.4527,5.5421,5.6282,5.6647,5.7011,5.7773,5.9264,6.0092,6.0821,0.0,0.0,0.0,6.4266,6.5326,6.6717,6.8539,6.9036,6.9566,7.0295,7.1057,7.1786,7.2548,7.3276,7.3807,7.4171,7.4171,7.4171,7.4171,7.4171,7.4171,7.4171,7.4171,7.4171,7.4171,7.4171,7.4171,7.4171,7.4171,7.4171,7.4171,7.4171,7.4171,7.4171,7.4171,7.4171,7.4171,4.3999,4.3769,4.378,4.3917,4.3406,4.3246,4.3848,4.3948,4.3981,4.4148,4.4031,4.4097,4.4348,4.4811,4.515,4.515,4.515,4.481,4.4062,4.353,4.2856,4.2009,4.1843,4.172,4.1607,4.0945,4.0636,4.08,4.0038,4.0105,4.1,4.1399,4.2345,4.3606,4.3872,4.4599,4.5645,4.6179,0.0,4.8529,0.0,5.1453,5.2473,5.3467,5.4195,5.4759,5.4891,5.4924,5.5173,5.6626,5.5737,5.4305,5.5813,5.4819,0.0,0.0,0.0,0.0,0.0,0.0,0.0,0.0,0.0,4.8329,0.0,0.0,0.0,0.0,0.0,0.0,0.0,0.0,0.0,0.0,0.0,0.0,0.0,5.8469,0.0,0.0,0.0,0.0,6.3637,6.4763,6.622,6.8109,6.8539,6.8937,6.9533,7.0428,7.1256,7.1985,7.2713,7.3442,7.4171,7.4171,7.4171,7.4171,7.4171,7.4171,7.4171,7.4171,7.4171,7.4171,7.4171,7.4171,7.4171,7.4171,7.4171,7.4171,7.4171,7.4171,7.4171,7.4171,7.4171,7.4204,4.6611,4.5623,4.5026,4.5775,4.539,4.5005,4.5074,4.5108,4.5348,4.6055,4.5716,4.5841,4.7086,4.7265,4.7355,4.7355,4.7355,4.701,4.6197,4.6075,4.5494,4.4226,4.3495,4.2937,4.2402,4.1674,4.1555,4.2064,4.1455,4.1822,4.3078,4.2565,4.3113,4.4418,4.5037,4.5443,4.5713,0.0,4.9092,0.0,5.2166,5.2771,0.0,5.4626,5.5421,5.5587,5.6216,5.6448,5.6644,0.0,5.76,5.6498,0.0,5.7428,5.5813,5.4397,0.0,0.0,0.0,0.0,0.0,0.0,4.8787,0.0,0.0,0.0,4.926,4.9326,0.0,0.0,0.0,0.0,0.0,0.0,0.0,0.0,5.4096,5.6316,5.8303,5.9065,0.0,0.0,0.0,6.3868,6.579,6.6684,6.7943,6.8738,6.8804,7.0129,7.1256,7.1985,7.2713,7.3442,7.4171,7.4171,7.4171,7.4171,7.4171,7.4171,7.4171,7.4171,7.4171,7.4171,7.4171,7.4171,7.4171,7.4171,7.4171,7.4171,7.4171,7.4171,7.4171,7.4171,7.4171,7.427,4.6391,4.5976,4.5782,4.6133,4.5683,4.532,4.532,4.5699,4.6305,4.7064,4.7382,4.7705,4.8238,4.9055,4.9377,4.8923,0.0,4.8539,0.0,0.0,4.6921,4.6392,4.5583,4.5063,4.4788,4.3634,4.3129,4.3391,4.2402,4.2571,4.387,4.2925,4.3384,4.4981,4.5399,4.6272,4.7512,0.0,5.0317,0.0,0.0,0.0,0.0,5.5856,5.6493,5.6969,5.7679,5.7997,5.814,0.0,5.8838,0.0,0.0,0.0,0.0,5.671,0.0,0.0,0.0,0.0,0.0,0.0,0.0,0.0,4.956,0.0,4.9624,0.0,0.0,0.0,0.0,0.0,0.0,0.0,5.4096,0.0,0.0,0.0,5.6978,0.0,0.0,0.0,0.0,0.0,0.0,0.0,6.7247,6.8241,6.8672,6.9666,7.0792,7.1951,7.2316,7.3011,7.4171,7.4171,7.4171,7.4171,7.4171,7.4171,7.4171,7.4171,7.4171,7.4171,7.4171,7.4171,7.4171,7.4171,7.4171,7.4171,7.4171,7.4171,7.4171,7.4171,7.4436,7.4867,4.6248,4.6294,4.6447,4.6447,4.607,4.5854,4.6063,4.6656,4.749,4.8625,4.9144,4.9576,5.016,5.1138,0.0,0.0,5.0858,5.0541,0.0,0.0,4.8851,4.8236,4.7715,0.0,4.6512,4.5407,4.4802,4.4748,4.3683,4.3683,4.4748,4.3749,4.4109,4.5563,4.6158,4.7348,4.9084,0.0,5.1855,5.4807,5.5231,5.6439,5.7911,5.7488,5.7789,5.8553,5.9322,5.953,5.9667,6.0438,6.0,0.0,6.0919,0.0,5.9046,0.0,0.0,0.0,5.5364,0.0,0.0,0.0,0.0,0.0,0.0,0.0,0.0,0.0,0.0,0.0,0.0,0.0,0.0,0.0,0.0,5.4063,0.0,5.4593,0.0,0.0,0.0,0.0,0.0,0.0,0.0,0.0,0.0,6.7413,6.8341,6.9103,7.0163,7.1653,7.1885,7.2614,7.3873,7.4072,7.4171,7.4171,7.4171,7.4171,7.4171,7.4171,7.4171,7.4171,7.4171,7.4171,7.4171,7.4171,7.4171,7.4171,7.4171,7.4171,7.4204,7.4403,7.48,7.533,4.6962,4.6962,4.6998,4.6998,4.6952,4.7201,4.7986,4.8311,4.9219,0.0,0.0,0.0,0.0,0.0,0.0,0.0,0.0,5.3547,5.2814,0.0,5.1809,4.9732,4.9627,4.8627,0.0,4.6443,4.6326,4.6133,4.5511,4.5511,4.6133,4.5494,4.5545,4.6239,4.7748,4.882,4.9696,5.192,5.387,5.5602,5.7052,5.8955,6.0893,0.0,5.9341,6.0116,6.0945,0.0,0.0,6.2048,6.1322,0.0,0.0,0.0,0.0,0.0,0.0,0.0,0.0,0.0,0.0,5.5674,0.0,0.0,0.0,0.0,5.1959,0.0,0.0,0.0,0.0,0.0,0.0,4.9591,0.0,0.0,0.0,0.0,0.0,0.0,0.0,0.0,0.0,0.0,0.0,0.0,0.0,0.0,6.7579,6.8341,6.9401,7.0891,7.162,7.2382,7.3144,7.384,7.4171,7.4171,7.4171,7.4171,7.4171,7.4171,7.4171,7.4171,7.4171,7.4171,7.4171,7.4171,7.4171,7.4171,7.4171,7.4171,7.427,7.4966,7.5264,7.5463,4.6998,4.6998,4.6998,4.6998,4.7426,4.8211,4.9531,5.024,0.0,0.0,0.0,0.0,0.0,5.6062,5.6383,0.0,0.0,5.5812,5.4527,5.492,0.0,0.0,0.0,5.1225,0.0,4.8438,4.7616,4.7512,4.6414,4.6168,4.6684,4.5734,4.5631,4.6239,4.7783,4.924,0.0,0.0,0.0,0.0,0.0,6.029,6.1805,0.0,0.0,6.1701,6.2411,6.2711,0.0,6.3002,6.2726,6.2386,6.2862,6.2683,6.2107,6.164,6.1486,0.0,0.0,0.0,5.9455,5.7482,0.0,0.0,0.0,0.0,0.0,0.0,0.0,0.0,0.0,0.0,5.2142,5.1413,0.0,0.0,0.0,0.0,0.0,0.0,0.0,0.0,0.0,0.0,0.0,0.0,0.0,0.0,0.0,6.8307,6.9368,7.0858,7.162,7.2349,7.3111,7.3807,7.4171,7.4171,7.4171,7.4171,7.4171,7.4171,7.4171,7.4171,7.4171,7.4171,7.4171,7.4171,7.4171,7.4171,7.4171,7.4469,7.4933,7.5198,7.5562,7.6159,4.6998,4.7212,4.7319,4.7033,4.789,4.9103,5.0673,0.0,0.0,0.0,5.4991,0.0,5.7096,0.0,5.7989,0.0,5.7989,5.756,5.6525,5.6954,0.0,5.492,5.4384,0.0,0.0,0.0,4.9281,4.8996,4.7606,4.711,4.739,4.6372,4.6259,4.6989,4.8508,5.024,5.213,5.4126,5.6617,0.0,0.0,6.1583,0.0,0.0,6.2711,6.3306,0.0,6.4662,6.4662,6.4662,6.4483,6.4198,6.3912,6.3627,6.3306,6.2806,6.2663,6.2449,6.1414,6.1343,0.0,5.9382,5.91,0.0,5.7736,0.0,5.7095,0.0,0.0,0.0,0.0,0.0,0.0,5.3179,0.0,0.0,0.0,5.3446,0.0,0.0,0.0,0.0,0.0,0.0,0.0,0.0,0.0,0.0,0.0,0.0,6.8871,7.0063,7.1355,7.225,7.2713,7.3674,7.4171,7.4171,7.4171,7.4171,7.4171,7.4171,7.4171,7.4171,7.4171,7.4171,7.4171,7.4171,7.4171,7.4204,7.4469,7.4867,7.5297,7.5562,7.6258,7.7219,4.7105,4.7747,4.8068,4.7354,4.8461,4.9959,0.0,0.0,5.3849,0.0,5.6454,5.7096,5.8631,5.8774,5.8809,5.8845,5.8845,0.0,5.8774,5.8809,0.0,0.0,5.649,5.5419,5.31,0.0,0.0,5.0566,4.9032,4.8282,4.8211,4.7461,4.7497,4.8318,4.9852,5.1851,5.4135,5.5776,5.7846,6.0165,6.1664,6.277,6.3555,6.4341,6.4697,6.4947,6.6446,6.7017,6.7053,6.7053,6.6553,6.5768,6.5019,6.4269,6.3627,6.352,6.352,6.3484,6.3413,6.2877,6.222,6.1488,0.0,0.0,0.0,0.0,5.8672,0.0,0.0,0.0,0.0,0.0,0.0,5.4695,0.0,0.0,0.0,0.0,0.0,0.0,0.0,0.0,0.0,0.0,0.0,0.0,0.0,0.0,0.0,0.0,6.7943,6.8672,7.0858,7.2018,7.2018,7.3442,7.4171,7.4171,7.4171,7.4171,7.4171,7.4171,7.4171,7.4171,7.4171,7.4171,7.4171,7.4171,7.4204,7.4303,7.4999,7.533,7.5463,7.6125,7.7285,7.8511,4.871,4.9353,5.0031,5.0423,5.0816,5.1422,0.0,0.0,0.0,0.0,5.7418,5.8488,5.9487,5.9594,5.9844,6.0451,6.0487,0.0,0.0,0.0,0.0,5.8203,5.8131,5.7311,5.5526,5.4135,0.0,5.1387,5.0388,4.9603,4.9032,4.8817,4.8817,4.9103,5.0673,5.235,5.417,5.6347,5.8988,6.17,6.2128,6.3092,6.4376,0.0,6.5875,6.6446,6.6839,6.7338,6.7802,6.7802,6.7659,6.7481,6.7267,6.7053,6.666,6.5518,6.5197,6.4912,6.3698,6.3234,6.3092,6.2906,6.2648,6.2281,0.0,0.0,0.0,0.0,0.0,0.0,0.0,0.0,0.0,0.0,0.0,0.0,0.0,0.0,0.0,0.0,0.0,0.0,0.0,0.0,0.0,0.0,0.0,0.0,0.0,0.0,0.0,6.8672,7.0858,7.2018,7.2018,7.3442,7.4171,7.4171,7.4171,7.4171,7.4171,7.4171,7.4171,7.4171,7.4171,7.4171,7.4171,7.4171,7.4502,7.4999,7.5198,7.5927,7.6887,7.7053,7.7715,7.8511,5.0352,5.0994,5.1886,5.3028,5.358,0.0,5.4454,0.0,0.0,5.7922,5.8759,0.0,6.0344,6.0415,6.0629,6.1058,6.1093,0.0,6.0451,0.0,0.0,5.9309,5.9238,5.8667,5.7453,5.6204,0.0,5.3742,0.0,5.1137,5.0352,4.9638,4.971,5.0423,5.1637,5.3457,5.574,5.8131,6.0344,6.2307,6.2628,6.3734,0.0,6.6018,6.7017,6.8016,6.8016,6.8266,6.8623,6.8623,6.8623,6.8551,6.8195,6.8088,6.7909,6.7053,6.6803,6.6624,6.5697,6.5197,6.4876,6.4519,6.4162,6.3734,6.2949,6.277,6.2521,0.0,0.0,0.0,0.0,0.0,0.0,0.0,0.0,0.0,0.0,0.0,0.0,0.0,0.0,0.0,0.0,0.0,0.0,0.0,0.0,0.0,0.0,0.0,0.0,6.8208,7.1104,7.2438,7.1985,7.3905,7.4639,7.4171,7.4171,7.4171,7.4171,7.4171,7.4171,7.4171,7.4171,7.4171,7.4171,7.4171,7.4602,7.533,7.596,7.6887,7.7914,7.7914,7.8146,7.8511,5.2172,5.2814,5.3813,5.5277,5.6349,0.0,0.0,5.7529,0.0,5.9931,0.0,6.0344,6.1022,6.1093,6.1093,6.1093,0.0,6.1093,6.1093,6.1093,6.0808,6.0094,6.0058,5.9701,5.8881,5.8238,0.0,0.0,0.0,5.2921,5.2136,5.0637,5.0673,5.2029,5.2921,5.5027,5.8024,6.0308,6.17,6.2521,6.3377,6.4626,6.6053,6.6946,6.8123,6.9337,6.9444,6.9479,6.9479,6.9479,6.9479,6.9337,6.8623,6.8337,6.823,6.8123,6.8016,6.7945,6.7945,6.7481,6.6839,6.6232,6.559,6.484,6.4055,6.377,6.3663,6.3555,6.2949,6.2414,0.0,0.0,0.0,0.0,0.0,0.0,0.0,0.0,0.0,0.0,0.0,0.0,0.0,0.0,0.0,0.0,0.0,0.0,0.0,0.0,0.0,6.7612,7.111,7.2781,7.2018,0.0,7.4899,7.4171,7.4171,7.4171,7.4171,7.4171,7.4171,7.4171,7.4171,7.4171,7.4171,7.427,7.48,7.5695,7.7053,7.7947,7.8511,7.8511,7.8511,7.8511,5.4598,5.5241,5.6062,5.6989,0.0,5.9558,5.9705,5.9665,5.9788,6.0039,6.0568,6.095,6.1093,6.1093,6.1093,6.1093,6.1093,0.0,0.0,0.0,0.0,6.0915,6.0879,6.0522,5.9737,5.9559,5.8809,0.0,0.0,5.5384,5.4563,5.3635,5.335,5.3671,5.5134,5.7168,5.963,6.1343,0.0,6.3306,6.4804,6.5946,6.6946,6.8373,6.9087,6.9408,7.005,7.03,7.03,7.03,7.03,7.0264,7.0122,6.9622,6.898,6.8302,6.7659,6.7195,6.7195,6.7088,6.7088,6.7588,6.7588,6.7302,6.6517,6.5839,6.5197,6.4555,6.377,6.3199,6.3199,0.0,0.0,0.0,0.0,0.0,0.0,0.0,0.0,0.0,0.0,0.0,0.0,0.0,0.0,0.0,0.0,0.0,0.0,0.0,0.0,0.0,7.0054,0.0,0.0,0.0,7.3775,7.4171,7.4171,7.4171,7.4171,7.4171,7.4171,7.4171,7.4171,7.4171,7.4204,7.4833,7.586,7.7119,7.798,7.8411,7.8511,7.8511,7.8511,7.8511,0.0,0.0,0.0,0.0,0.0,0.0,0.0,6.1651,0.0,6.1444,6.1386,6.1651,6.2355,6.2069,6.1998,6.2391,6.2367,6.2271,6.2271,6.2271,6.2128,6.1736,6.17,0.0,6.0558,6.0522,5.9951,5.8774,0.0,5.7204,5.6418,5.5633,5.5491,5.5955,5.7525,5.9059,6.0594,0.0,0.0,6.4697,6.5482,6.6767,6.8266,6.9015,6.9586,6.9979,7.0371,7.0764,7.1049,7.0657,7.0514,7.0514,7.0514,7.0229,6.9872,6.9479,6.9087,6.8801,6.8801,6.8516,6.8195,6.8123,6.7802,6.7445,6.7053,6.6696,6.641,6.641,6.5804,6.5019,6.4198,6.3663,0.0,0.0,0.0,0.0,0.0,0.0,0.0,0.0,0.0,0.0,0.0,0.0,0.0,0.0,0.0,0.0,0.0,0.0,0.0,0.0,0.0,0.0,0.0,0.0,0.0,7.4171,7.4171,7.4171,7.4171,7.4171,7.4171,7.4171,7.4171,7.4403,7.4833,7.5927,7.6788,7.7484,7.8246,7.8511,7.8511,7.8511,7.8511,7.8511,0.0,5.9009,0.0,0.0,6.0819,0.0,6.3047,6.3321,6.3228,6.3055,6.2458,6.2471,6.3609,6.3298,6.3263,6.3907,6.3964,6.3912,6.3912,6.3796,6.3438,6.2806,6.2688,6.2295,6.1593,6.1593,6.12,0.0,0.0,0.0,5.7311,5.7025,5.7418,5.8381,5.963,0.0,0.0,0.0,6.4091,6.5839,6.6339,6.7659,6.9337,6.9515,6.9943,7.0514,7.0693,7.1156,7.162,7.1156,7.0978,7.0978,7.0978,7.0871,7.0764,7.0764,7.0621,7.055,7.0728,7.03,6.9693,6.9229,6.8658,6.823,6.823,6.798,6.7838,6.8266,6.7624,6.666,6.5554,6.484,0.0,0.0,0.0,0.0,0.0,0.0,0.0,0.0,0.0,0.0,0.0,0.0,0.0,0.0,0.0,0.0,0.0,0.0,0.0,0.0,0.0,7.2868,7.2244,0.0,7.4734,7.4171,7.4171,7.4171,7.4171,7.4171,7.4171,7.4171,7.4171,7.4668,7.5595,7.6887,7.7517,7.7715,7.8279,7.8511,7.8511,7.8511,7.8511,7.8511,0.0,0.0,0.0,0.0,0.0,0.0,6.395,6.4173,6.423,6.4094,6.3869,6.3716,6.3896,6.4387,6.4696,6.4767,6.5287,6.559,6.559,6.5037,6.467,6.4412,6.3857,6.3489,6.3163,6.3163,6.2806,0.0,0.0,5.938,0.0,5.7882,5.9309,6.0772,0.0,0.0,0.0,6.4804,6.559,6.5982,6.8123,6.9122,6.9408,7.0122,7.0443,7.0585,7.1335,7.162,7.1799,7.237,7.2584,7.2584,7.2584,7.212,7.1585,7.1585,7.1085,7.0657,7.1371,7.1513,7.162,7.2191,7.2298,7.2263,7.2263,7.1192,6.9979,6.9337,6.8016,6.716,6.7659,6.7695,6.7445,0.0,0.0,0.0,0.0,0.0,0.0,0.0,0.0,0.0,0.0,0.0,0.0,0.0,0.0,0.0,0.0,0.0,0.0,7.0973,0.0,7.2573,7.3156,7.3302,7.3642,7.4171,7.4171,7.4171,7.4171,7.4171,7.4171,7.4171,7.4171,7.4933,7.6291,7.7086,7.7815,7.8411,7.8477,7.8511,7.8511,7.8511,7.8511,7.8511,0.0,0.0,0.0,0.0,0.0,0.0,0.0,6.5497,6.6025,6.6378,6.5524,6.5213,6.6091,6.6427,6.6762,6.7266,6.7465,6.7518,6.7518,6.7294,6.6836,6.6209,6.5555,6.4813,6.4126,6.3627,6.3234,0.0,0.0,0.0,0.0,6.1022,6.1843,6.2485,0.0,6.3341,6.4876,6.5518,6.6624,6.798,6.8944,6.9586,7.005,7.0371,7.08,7.1264,7.1585,7.2298,7.3155,7.344,7.3191,7.2798,7.2798,7.2584,7.237,7.237,7.212,7.1942,7.2263,7.2049,7.1763,7.2049,7.1763,7.1549,7.2013,7.1656,7.1264,7.1371,7.055,6.9765,6.9586,6.9158,6.8587,0.0,0.0,0.0,0.0,0.0,0.0,0.0,0.0,0.0,0.0,0.0,0.0,0.0,0.0,0.0,0.0,0.0,0.0,7.0636,0.0,7.2451,7.3341,7.3571,7.3906,7.4171,7.4171,7.4171,7.4171,7.4171,7.4403,7.4867,7.5264,7.6026,7.702,7.7782,7.8246,7.8511,7.8511,7.8511,7.8511,7.8511,7.8511,7.8511,6.3127,0.0,6.418,0.0,6.4802,6.5294,6.6207,6.7003,6.7692,6.8271,6.7583,6.727,6.8078,6.8306,6.8605,6.9183,6.9345,6.9361,6.9361,6.9209,6.875,6.7984,6.7294,0.0,6.5788,6.5278,6.4679,6.4153,6.4153,0.0,6.1593,6.2128,6.2985,0.0,6.4091,6.4983,6.6482,6.6731,6.7802,6.9337,6.9586,7.0015,7.055,7.0764,7.1192,7.1763,7.2227,7.3083,7.4047,7.4297,7.3976,7.3512,7.3512,7.3512,7.3512,7.3512,7.3512,7.3512,7.3512,7.3119,7.2727,7.2727,7.2298,7.2049,7.2584,7.2548,7.2477,7.2727,7.2191,7.1585,7.1228,7.0728,7.0157,6.9551,0.0,0.0,0.0,0.0,0.0,0.0,6.8088,6.8195,6.8444,0.0,0.0,0.0,0.0,0.0,0.0,0.0,0.0,0.0,0.0,0.0,0.0,7.4426,7.4439,7.4171,7.4171,7.4171,7.4171,7.4171,7.4568,7.533,7.6026,7.6722,7.7484,7.8212,7.8511,7.8511,7.8511,7.8511,7.8511,7.8511,7.8511,7.8511,6.4202,6.4282,6.4649,6.5446,6.6243,6.704,6.7873,6.8633,6.914,6.9176,6.9828,7.0046,6.9249,6.9705,7.0049,7.0049,7.0642,7.0943,7.0943,7.0418,6.9985,0.0,0.0,6.8795,6.8642,6.8606,6.7788,6.6057,0.0,0.0,5.9951,5.9951,6.2021,6.5768,6.5768,6.6624,6.8123,6.8944,6.9301,6.9372,7.0193,7.0478,7.0585,7.1371,7.1692,7.1906,7.344,7.4011,7.4154,7.4939,7.5189,7.5189,7.5189,7.5189,7.5189,7.5189,7.5189,7.5189,7.5189,7.5153,7.5153,7.5153,7.5153,7.5153,7.5153,7.4547,7.3761,7.2941,7.2191,7.1906,7.262,7.2762,7.2762,7.2727,0.0,0.0,0.0,0.0,0.0,6.8195,6.8088,6.8409,6.9229,0.0,0.0,0.0,0.0,0.0,0.0,0.0,0.0,7.6185,7.6164,0.0,7.5878,7.5705,7.5064,7.4171,7.4171,7.4171,7.4171,7.4171,7.4568,7.533,7.6026,7.6722,7.7484,7.8212,7.8511,7.8511,7.8511,7.8511,7.8511,7.8511,7.8511,7.8511,6.5895,6.6438,6.7112,6.7909,6.8271,6.8525,6.8778,6.9502,7.0009,7.0009,7.0661,7.106,7.0806,7.0925,7.1069,0.0,7.1223,7.1304,0.0,7.1151,7.1006,7.0815,7.0121,6.9625,6.9433,6.893,6.8426,6.786,0.0,0.0,0.0,6.4983,6.5661,6.7374,6.7374,6.7624,6.8159,6.898,6.9301,6.9372,7.0193,7.0835,7.1335,7.1585,7.2334,7.3333,7.3833,7.4368,7.4868,7.5118,7.5225,7.5225,7.5225,7.5225,7.5225,7.5225,7.5225,7.5225,7.5225,7.5225,7.5225,7.5225,7.5225,7.5225,7.5225,7.501,7.4761,7.4511,7.4261,7.3976,7.369,7.3619,7.344,7.2869,7.2584,0.0,7.2084,0.0,7.1585,7.1335,7.1299,7.1406,0.0,7.1692,0.0,0.0,0.0,0.0,0.0,0.0,0.0,0.0,7.5323,0.0,7.5913,7.6313,7.5798,7.4171,7.4803,7.4803,7.4204,7.4701,7.5297,7.6026,7.6755,7.7484,7.8179,7.8411,7.8511,7.8511,7.8511,7.8511,7.8511,7.8511,7.8511,7.8511,6.7642,6.809,6.8597,6.9104,6.943,6.9647,6.9647,7.0299,7.0806,7.0806,7.1205,7.1494,7.1494,7.1494,0.0,7.1494,7.1494,7.1494,7.1494,7.1494,7.1431,7.1404,7.0898,7.0581,7.0418,6.9985,0.0,6.9237,6.8758,6.845,6.832,6.7819,6.8034,6.8684,6.8684,6.8863,6.9185,6.9618,6.9832,6.9904,7.069,7.1297,7.1763,7.2334,7.3155,7.4047,7.4368,7.4796,7.5225,7.5225,7.5225,7.5225,7.5225,7.5225,7.5225,7.5225,7.5225,7.5225,7.5225,7.5225,7.5225,7.5225,7.5225,7.5225,7.5225,7.5225,7.5225,7.5225,7.5225,7.5046,7.4547,7.4475,7.4297,7.3797,7.369,7.3583,7.3298,0.0,7.3155,0.0,0.0,0.0,0.0,7.3083,0.0,0.0,0.0,0.0,0.0,0.0,0.0,7.6045,7.6182,0.0,7.6886,7.7337,7.6599,7.4704,7.5,7.4803,7.4204,7.4933,7.5662,7.6357,7.7086,7.7848,7.8511,7.8511,7.8511,7.8511,7.8511,7.8511,7.8511,7.8511,7.8511,7.8511,6.9394,6.931,6.9285,0.0,6.9973,0.0,7.048,7.106,7.1494,7.1494,7.1494,7.1494,7.1494,7.1494,7.1494,7.1494,0.0,0.0,0.0,7.1494,7.1494,7.1494,7.1494,7.1494,7.1494,7.1494,7.1069,7.0157,6.9309,6.8886,6.8822,6.8822,6.9153,6.9741,6.9741,7.0033,7.0714,7.0785,7.0785,7.0857,7.1609,7.1866,7.2013,7.3476,7.4047,7.419,7.4939,7.5189,7.5189,7.5189,7.5189,7.5189,7.5225,7.5189,7.5225,7.5225,7.5225,7.5225,7.5225,7.5225,7.5225,7.5225,7.5225,7.5225,7.5225,7.526,7.5296,7.5296,7.5332,7.5367,7.5367,7.5367,7.5367,7.5367,7.5367,7.5118,7.4368,7.4261,7.3976,0.0,0.0,0.0,0.0,7.3797,7.4261,0.0,0.0,0.0,0.0,0.0,7.6117,7.7544,7.8294,7.8654,7.8504,7.8587,7.7615,7.5703,7.4738,7.4204,7.427,7.4999,7.5728,7.6424,7.7185,7.7881,7.8511,7.8511,7.8511,7.8511,7.8511,7.8511,7.8511,7.8511,7.8511,7.8511,0.0,0.0,7.0263,7.0842,7.1096,7.1241,7.1241,7.1386,7.1494,7.1494,7.1494,7.1494,7.1494,7.1494,7.1494,7.1494,7.1494,7.1494,7.1494,7.1494,7.1494,7.1494,7.1494,7.1494,7.1494,7.1494,7.1359,7.1023,7.0807,7.0606,7.044,7.044,7.0548,7.0662,7.0662,7.0411,7.0087,7.0662,7.0883,7.0857,7.1609,7.2648,7.3724,7.4082,7.469,7.5405,7.5442,7.5406,7.5406,7.5406,7.5334,7.5225,7.5334,7.5334,7.5225,7.5225,7.5225,7.5225,7.5225,7.5225,7.5225,7.5225,7.5225,7.5225,7.5225,7.5688,7.6117,7.6117,7.6545,7.6973,7.6973,7.6973,7.6973,7.6973,7.6973,7.6902,7.6688,7.6688,7.6616,0.0,7.6402,7.6402,7.6402,7.6693,7.6836,0.0,0.0,0.0,0.0,7.7615,7.8044,7.8401,7.8579,7.8654,7.8504,7.9196,7.8552,7.669,7.4966,7.4469,7.5032,7.5728,7.6457,7.7185,7.7947,7.8345,7.8511,7.8511,7.8511,7.8511,7.8511,7.8511,7.8511,7.8511,7.8511,7.8511,7.1765,7.1531,7.1357,7.1485,7.1494,7.1494,7.1494,7.1494,7.1494,7.1494,7.1494,7.1494,7.1494,7.1494,7.1494,7.1494,7.1494,7.1494,7.1494,7.1494,7.1494,7.1494,7.1494,7.1494,7.1494,7.1494,7.1431,7.1404,7.1404,7.134,7.124,7.124,7.1175,7.1146,7.1146,7.111,7.1074,7.1506,7.1837,7.2202,7.2957,7.3716,7.4472,7.4867,7.5332,7.5798,7.5657,7.5657,7.5657,7.5657,7.5585,7.5514,7.5478,7.5514,7.5442,7.5262,7.5225,7.5225,7.5225,7.5225,7.5296,7.5653,7.576,7.5831,7.6188,7.6581,7.6902,7.6902,7.7223,7.7508,7.7508,7.7508,7.7508,7.7508,7.7584,7.7658,7.7658,7.7733,7.7771,7.7771,7.7771,7.7771,7.7771,7.7844,7.7844,7.7771,7.8203,0.0,7.8344,7.9096,7.9307,7.8838,7.9119,7.928,7.9276,7.8835,7.8012,7.6927,7.5064,7.4568,7.5297,7.5993,7.6722,7.745,7.8212,7.8511,7.8511,7.8511,7.8511,7.8511,7.8511,7.8511,7.8511,7.8511,7.8511,7.8511,7.2743,7.2443,7.2212,7.162,7.1494,7.1494,7.1494,7.1494,7.1494,7.1494,7.1494,7.1494,7.1494,7.1494,7.1494,7.1494,7.1494,7.1494,7.1494,7.1494,7.1494,7.1494,7.1494,7.1494,7.1494,7.1494,7.1494,7.1494,7.1494,7.1494,7.1494,7.1494,7.1504,7.1521,7.1521,7.199,7.2713,7.2713,7.3182,7.391,7.456,7.4817,7.4896,7.558,7.5868,7.5868,7.5868,7.5868,7.5868,7.5868,7.5798,7.5798,7.5621,7.5657,7.5727,7.537,7.5297,7.5297,7.5262,7.5369,7.5581,7.6367,7.6545,7.6798,7.7441,7.7655,7.7762,7.7762,7.7834,7.7941,7.7941,7.7941,7.7941,7.7941,7.8091,7.8239,7.8239,7.8386,7.8458,7.8458,7.8458,7.8458,7.8458,7.8531,7.8531,7.8458,7.9143,7.9539,7.9465,8.0113,8.011,7.9279,7.9696,7.9977,8.013,7.8097,7.7016,7.6927,7.5164,7.4734,7.5463,7.6159,7.6887,7.7616,7.8246,7.8511,7.8511,7.8511,7.8511,7.8511,7.8511,7.8511,7.8511,7.8511,7.8511,7.8511,7.3187,7.2687,7.2212,7.162,7.1494,7.1494,7.1494,7.1494,7.1494,7.1494,7.1494,7.1494,7.1494,7.1494,7.1494,7.1494,7.1494,7.1494,7.1494,7.1494,7.1494,7.1494,7.1494,7.1494,7.1494,7.1494,7.1494,7.1494,7.1494,7.1494,7.1494,7.1494,7.1857,7.2481,7.2481,7.2915,7.3675,7.3675,7.4043,7.4632,7.474,7.5209,7.579,7.5898,7.6072,7.6244,7.6039,7.5934,7.5934,7.5934,7.5901,7.5798,7.5901,7.5832,7.5798,7.5727,7.5727,7.5657,7.5514,7.598,7.6623,7.7226,7.748,7.7628,7.7697,7.8382,7.9032,7.9032,7.9571,8.0074,8.0074,8.0074,8.0074,8.0074,8.0074,8.0074,8.0074,8.0148,8.0148,8.0148,8.0148,8.0148,8.0148,8.0296,8.0296,8.0148,8.0404,8.0476,8.0328,8.0436,8.0546,8.055,8.0286,8.0054,7.9977,7.8012,7.7016,7.6927,7.5701,7.5463,7.6192,7.692,7.7649,7.8345,7.8477,7.8511,7.8511,7.8511,7.8511,7.8511,7.8511,7.8511,7.8511,7.8511,7.8511,7.8511,7.3378,7.3013,7.252,7.1682,7.1494,7.1494,7.1494,7.1494,7.1494,7.1494,7.1494,7.1494,7.1494,7.1494,7.1494,7.1494,7.1494,7.1494,7.1494,7.1494,7.1494,7.1494,7.1494,7.1494,7.1494,7.1494,7.1712,7.2146,7.2146,7.2364,7.2798,7.2798,7.3016,7.3378,7.3378,7.3812,7.4573,7.4573,7.4941,7.5598,7.5598,7.5815,7.614,7.614,7.6208,7.6275,7.6208,7.614,7.614,7.614,7.6108,7.6039,7.6003,7.6039,7.6039,7.5868,7.6085,7.6373,7.6302,7.6805,7.7595,7.8311,7.849,7.8707,7.9138,7.9607,7.9933,7.9933,8.0256,8.0508,8.0508,8.0508,8.0508,8.0508,8.0582,8.0656,8.0656,8.073,8.0803,8.0803,8.0803,8.0803,8.0803,8.0876,8.0876,8.0803,8.0876,8.0876,8.0803,8.0803,8.0876,8.0948,8.0582,8.0207,7.9899,7.8012,7.7223,7.7547,7.6004,7.586,7.692,7.7252,7.7815,7.8511,7.8511,7.8511,7.8511,7.8511,7.8511,7.8511,7.8511,7.8511,7.8511,7.8511,7.8511,7.8511,7.3579,7.3391,7.3082,7.2094,7.1891,7.1891,7.1707,7.1744,7.1682,7.1494,7.1494,7.1494,7.1494,7.1494,7.1494,7.1494,7.1494,7.1567,7.1784,7.1784,7.1784,7.1784,7.1965,7.2074,7.2074,7.2074,7.2364,7.2979,7.2979,7.3305,7.3921,7.3921,7.403,7.4211,7.4211,7.4645,7.5406,7.5406,7.5732,7.6275,7.6275,7.6275,7.6275,7.6275,7.6275,7.6275,7.6275,7.6275,7.6275,7.6275,7.6275,7.6275,7.614,7.6285,7.6497,7.6259,7.6874,7.7594,7.7523,7.7955,7.8639,7.9357,7.9647,7.9791,8.0438,8.0582,8.0656,8.0656,8.0656,8.0656,8.0656,8.0656,8.0656,8.0656,8.073,8.0876,8.0876,8.1021,8.1128,8.1128,8.1128,8.1128,8.1128,8.1128,8.1128,8.1128,8.1128,8.1128,8.1128,8.1128,8.1128,8.1021,8.073,8.0358,8.0054,7.835,7.7752,7.812,7.6893,7.6843,7.7803,7.797,7.8369,7.8797,7.8617,7.8511,7.8511,7.8511,7.8511,7.8511,7.8511,7.8511,7.8511,7.8511,7.8511,7.8511,7.4056,7.3925,7.3736,7.3187,7.3082,7.2906,7.2443,7.2328,7.2094,7.1557,7.1494,7.1494,7.1494,7.1494,7.1494,7.1494,7.1494,7.182,7.2581,7.2617,7.2617,7.2617,7.3342,7.374,7.374,7.374,7.3776,7.3812,7.3812,7.3849,7.3921,7.3921,7.4319,7.5044,7.5044,7.5478,7.6203,7.6203,7.6239,7.6275,7.6275,7.6275,7.6275,7.6275,7.6275,7.6275,7.6275,7.6275,7.6275,7.6275,7.6275,7.6311,7.6275,7.6818,7.7398,7.7398,7.8451,7.9645,7.9432,7.9468,7.9648,8.0294,8.0584,8.0731,8.0803,8.0876,8.1057,8.1057,8.1057,8.1057,8.1057,8.1057,8.1057,8.1057,8.1021,8.1128,8.1128,8.1092,8.1128,8.1128,8.1128,8.1128,8.1128,8.1128,8.1128,8.1128,8.1128,8.1128,8.1128,8.1128,8.1021,8.0803,8.0803,8.0656,8.0433,7.9444,7.8785,7.8356,7.8992,7.9171,7.8891,7.9533,7.9871,7.9803,7.8902,7.8511,7.8511,7.8511,7.8511,7.8511,7.8511,7.8511,7.8511,7.8511,7.8511,7.8511,7.4101,7.4009,7.3832,7.329,7.3187,7.3013,7.25,7.2386,7.2153,7.1557,7.1494,7.1494,7.1494,7.1494,7.1712,7.2219,7.2255,7.2581,7.3414,7.345,7.345,7.345,7.374,7.3921,7.3921,7.3921,7.4138,7.4645,7.4645,7.4899,7.5406,7.5406,7.5551,7.5841,7.5841,7.6022,7.6275,7.6275,7.6275,7.6275,7.6275,7.6275,7.6275,7.6275,7.6275,7.6275,7.6275,7.6275,7.6275,7.6275,7.6275,7.6384,7.6891,7.7253,7.7688,7.8702,7.9426,8.0006,8.0442,8.0515,8.0587,8.0804,8.0948,8.0985,8.0985,8.1057,8.1128,8.1128,8.1128,8.1128,8.1128,8.1128,8.1128,8.1128,8.1128,8.1128,8.1128,8.1128,8.1128,8.1128,8.1128,8.1128,8.1128,8.1128,8.1128,8.1128,8.1128,8.1128,8.1128,8.1128,8.1021,8.0948,8.0985,8.0803,8.0508,8.01,7.994,8.0001,8.0205,8.0455,8.0618,8.017,8.0006,7.9905,7.8902,7.8511,7.8511,7.8511,7.8511,7.8511,7.8511,7.8511,7.8511,7.8511,7.8511,7.8511,7.4356,7.4274,7.4184,7.3774,7.3725,7.3479,7.2743,7.2632,7.2349,7.162,7.1494,7.1603,7.1857,7.1893,7.2219,7.3016,7.3088,7.345,7.4247,7.4537,7.4537,7.4319,7.4537,7.4645,7.4645,7.4645,7.4935,7.5478,7.5478,7.5768,7.6275,7.6275,7.6275,7.6275,7.6275,7.6275,7.6275,7.6275,7.6275,7.6275,7.6275,7.6275,7.6275,7.6275,7.6275,7.6275,7.6275,7.6275,7.6348,7.6565,7.6674,7.6818,7.7615,7.805,7.8521,7.9897,8.0295,8.0404,8.0947,8.1128,8.1128,8.1128,8.1128,8.1128,8.1128,8.1128,8.1128,8.1128,8.1128,8.1128,8.1128,8.1128,8.1128,8.1128,8.1128,8.1128,8.1128,8.1128,8.1128,8.1128,8.1128,8.1128,8.1128,8.1128,8.1128,8.1128,8.1128,8.1128,8.1128,8.1128,8.1128,8.1128,8.1346,8.131,8.1091,8.0995,8.1159,8.1577,8.1817,8.1961,8.213,8.15,8.096,8.0603,7.9667,7.9008,7.8617,7.8617,7.8617,7.8511,7.8902,7.8797,7.8511,7.8902,7.8797,7.8511,7.4932,7.4932,7.4932,7.4932,7.4932,7.4525,7.3378,7.3224,7.276,7.1682,7.1531,7.182,7.2617,7.2726,7.3052,7.3849,7.3921,7.4283,7.508,7.5877,7.5949,7.5152,7.5877,7.6275,7.6275,7.6275,7.6275,7.6275,7.6275,7.6275,7.6275,7.6275,7.6275,7.6275,7.6275,7.6275,7.6275,7.6275,7.6275,7.6275,7.6275,7.6275,7.6275,7.6275,7.6275,7.6275,7.6275,7.6275,7.642,7.7217,7.7507,7.7651,7.8448,7.9245,8.0078,8.0875,8.1128,8.1128,8.1128,8.1128,8.1128,8.1128,8.1128,8.1128,8.1128,8.1128,8.1128,8.1128,8.1128,8.1128,8.1128,8.1128,8.1128,8.1128,8.1128,8.1128,8.1128,8.1128,8.1128,8.1128,8.1128,8.1128,8.1128,8.1128,8.1128,8.1128,8.1128,8.1128,8.1128,8.1128,8.1128,8.1128,8.1889,8.2287,8.2287,8.2287,8.2454,8.2821,8.3846,8.396,8.3418,8.3606,8.3086,8.2014,8.1091,8.004,7.8902,7.8936,7.8724,7.8617,7.9633,7.9461,7.8617,7.9633,7.9358,7.8511,7.6638,7.6638,7.6638,7.6638,7.6145,7.548,7.4779,7.3814,7.3145,7.2981,7.2642,7.2653,7.345,7.3559,7.3885,7.4682,7.4754,7.508,7.5877,7.6167,7.6167,7.5949,7.6167,7.6275,7.6275,7.6275,7.6275,7.6275,7.6275,7.6275,7.6275,7.6275,7.6275,7.6275,7.6275,7.6275,7.6275,7.6275,7.6275,7.6275,7.6275,7.6275,7.6275,7.6275,7.6275,7.6275,7.6275,7.6637,7.7181,7.7434,7.7869,7.8484,7.9281,8.0114,8.0802,8.1056,8.1128,8.1128,8.1128,8.1128,8.1128,8.1128,8.1128,8.1128,8.1128,8.1128,8.1128,8.1128,8.1128,8.1128,8.1128,8.1128,8.1128,8.1128,8.1128,8.1128,8.1128,8.1128,8.1128,8.1128,8.1128,8.1128,8.1128,8.1128,8.1128,8.1128,8.1128,8.1128,8.1128,8.1128,8.1382,8.1925,8.2143,8.2831,8.3953,8.3953,8.3946,8.3882,8.4691,8.4931,8.4666,8.3981,8.3174,8.213,8.1187,8.0174,7.9251,7.9972,8.014,8.024,8.1057,8.1153,8.0863,8.0206,7.9837,7.9461,7.7396,7.7396,7.7396,7.7396,7.6979,7.6393,7.5868,7.4848,7.4162,7.4117,7.3567,7.3486,7.4319,7.4392,7.4718,7.5515,7.5587,7.5768,7.6275,7.6275,7.6275,7.6275,7.6275,7.6275,7.6275,7.6275,7.6275,7.6275,7.6275,7.6275,7.6275,7.6275,7.6275,7.6275,7.6275,7.6275,7.6275,7.6275,7.6275,7.6275,7.6275,7.6275,7.6275,7.6275,7.6275,7.6348,7.6637,7.7072,7.7579,7.8231,7.8992,7.9752,8.0223,8.073,8.1128,8.1128,8.1128,8.1128,8.1128,8.1128,8.1128,8.1128,8.1128,8.1128,8.1128,8.1128,8.1128,8.1128,8.1128,8.1128,8.1128,8.1128,8.1128,8.1128,8.1128,8.1128,8.1128,8.1128,8.1128,8.1128,8.1128,8.1128,8.1128,8.1128,8.1128,8.1128,8.1128,8.1128,8.1128,8.1418,8.178,8.2251,8.2903,8.37,8.4678,8.5004,8.5073,8.4922,8.5468,8.5531,8.5261,8.4792,8.3981,8.2998,8.2095,8.1091,8.0107,8.0736,8.0897,8.0897,8.2152,8.2335,8.1968,8.1022,8.0765,8.0569,7.7623,7.7623,7.7623,7.7623,7.7548,7.7344,7.6789,7.6131,7.555,7.5022,7.4405,7.4319,7.5152,7.5225,7.5515,7.6239,7.6275,7.6275,7.6275,7.6275,7.6275,7.6275,7.6275,7.6275,7.6275,7.6275,7.6275,7.6275,7.6275,7.6275,7.6275,7.6275,7.6275,7.6275,7.6275,7.6275,7.6275,7.6275,7.6275,7.6275,7.6275,7.6275,7.6311,7.6384,7.6384,7.6492,7.7326,7.7651,7.7941,7.9499,8.0513,8.1128,8.1128,8.1128,8.1128,8.1128,8.1128,8.1128,8.1128,8.1128,8.1128,8.1128,8.1128,8.1128,8.1128,8.1128,8.1128,8.1128,8.1128,8.1128,8.1128,8.1128,8.1128,8.1128,8.1128,8.1128,8.1128,8.1128,8.1128,8.1128,8.1128,8.1128,8.1128,8.1128,8.1128,8.1128,8.1165,8.1237,8.1237,8.1961,8.2432,8.2505,8.3917,8.4714,8.4786,8.5511,8.5909,8.5909,8.5909,8.5797,8.5572,8.5797,8.5261,8.41,8.347,8.2461,8.1379,8.1474,8.1379,8.1345,8.3138,8.3313,8.2481,8.2152,8.206,8.1688,7.9367,7.9367,7.9367,7.9367,7.8798,7.8301,7.8138,7.6743,7.5845,7.6273,7.5519,7.5152,7.5949,7.6022,7.6094,7.6275,7.6275,7.6275,7.6275,7.6275,7.6275,7.6275,7.6275,7.6275,7.6275,7.6275,7.6275,7.6275,7.6275,7.6275,7.6275,7.6275,7.6275,7.6275,7.6275,7.6275,7.6275,7.6275,7.6275,7.6275,7.6275,7.6275,7.6348,7.7,7.7217,7.7362,7.8159,7.8847,7.9535,8.0513,8.0984,8.1128,8.1128,8.1128,8.1128,8.1128,8.1128,8.1128,8.1128,8.1128,8.1128,8.1128,8.1128,8.1128,8.1128,8.1128,8.1128,8.1128,8.1128,8.1128,8.1128,8.1128,8.1128,8.1128,8.1128,8.1128,8.1128,8.1128,8.1128,8.1128,8.1128,8.1128,8.1128,8.1128,8.1128,8.1128,8.1672,8.2034,8.2034,8.2794,8.3519,8.4135,8.4497,8.5004,8.5619,8.5801,8.5909,8.5909,8.5909,8.5873,8.5797,8.5873,8.5339,8.4314,8.4148,8.3521,8.2641,8.3434,8.3692,8.3692,8.4676,8.4952,8.4676,8.3692,8.3313,8.2963,7.9898,7.9898,7.9898,7.9898,7.9519,7.9215,7.9215,7.8087,7.7334,7.7385,7.6691,7.6162,7.6306,7.6275,7.6275,7.6275,7.6275,7.6275,7.6275,7.6275,7.6275,7.6275,7.6275,7.6275,7.6275,7.6275,7.6275,7.6275,7.6275,7.6275,7.6275,7.6275,7.6275,7.6275,7.6275,7.6275,7.6275,7.6275,7.6275,7.6275,7.6275,7.6529,7.6927,7.7326,7.7724,7.8195,7.8992,7.9788,8.0549,8.0984,8.1128,8.1128,8.1128,8.1128,8.1128,8.1128,8.1128,8.1128,8.1128,8.1128,8.1128,8.1128,8.1128,8.1128,8.1128,8.1128,8.1128,8.1128,8.1128,8.1128,8.1128,8.1128,8.1128,8.1128,8.1128,8.1128,8.1128,8.1128,8.1128,8.1128,8.1128,8.1128,8.1128,8.1454,8.1672,8.1672,8.2396,8.2867,8.2867,8.3627,8.4243,8.4678,8.5076,8.5475,8.5909,8.5909,8.5909,8.5909,8.5909,8.5909,8.5909,8.5909,8.5608,8.5067,8.4595,8.4148,8.3727,8.4231,8.4396,8.4513,8.5339,8.5685,8.5531,8.4314,8.3485,8.2839,7.9898,7.9898,7.9898,7.9898,7.9898,7.9898,7.9898,7.9378,7.8816,7.8309,7.7636,7.7045,7.6505,7.6342,7.6275,7.6275,7.6275,7.6275,7.6275,7.6275,7.6275,7.6275,7.6275,7.6275,7.6275,7.6275,7.6275,7.6275,7.6275,7.6275,7.6275,7.6275,7.6275,7.6275,7.6275,7.6275,7.6275,7.6275,7.6275,7.6275,7.6275,7.6782,7.7507,7.7651,7.8195,7.9028,7.9825,8.0549,8.1128,8.1128,8.1128,8.1128,8.1128,8.1128,8.1128,8.1128,8.1128,8.1128,8.1128,8.1128,8.1128,8.1128,8.1128,8.1128,8.1128,8.1128,8.1128,8.1128,8.1128,8.1128,8.1128,8.1128,8.1128,8.1128,8.1128,8.1128,8.1128,8.1128,8.1128,8.1128,8.1237,8.1309,8.1309,8.2034,8.2505,8.2505,8.3229,8.37,8.37,8.446,8.4895,8.4895,8.5547,8.5909,8.5909,8.5909,8.5909,8.5909,8.5909,8.5909,8.5909,8.5909,8.5909,8.5873,8.5067,8.4676,8.4676,8.4676,8.4676,8.4792,8.5608,8.5909,8.5797,8.4676,8.3656,8.275,7.9898,7.9898,7.9898,7.9898,7.9898,7.9898,7.9898,7.9378,7.8966,7.8866,7.7923,7.7133,7.7107,7.6636,7.6275,7.6275,7.6275,7.6275,7.6275,7.6275,7.6275,7.6275,7.6275,7.6275,7.6275,7.6275,7.6275,7.6275,7.6275,7.6275,7.6275,7.6275,7.6275,7.6275,7.6275,7.6275,7.6275,7.6275,7.6275,7.6275,7.6275,7.6782,7.7579,7.8267,7.9028,7.9861,8.0658,8.102,8.1128,8.1128,8.1128,8.1128,8.1128,8.1128,8.1128,8.1128,8.1128,8.1128,8.1128,8.1128,8.1128,8.1128,8.1128,8.1128,8.1128,8.1128,8.1128,8.1128,8.1128,8.1128,8.1128,8.1128,8.1128,8.1128,8.1128,8.1128,8.1128,8.1128,8.1128,8.1128,8.1708,8.2143,8.2143,8.2867,8.3338,8.3338,8.4062,8.4533,8.4533,8.5293,8.5728,8.5728,8.5837,8.5909,8.5909,8.5909,8.5909,8.5909,8.5909,8.5909,8.5909,8.5909,8.5909,8.5909,8.5721,8.5721,8.5721,8.5721,8.5721,8.5721,8.5797,8.5909,8.5909,8.5721,8.5531,8.5225,8.0072,8.0072,8.003,7.9988,7.9946,7.9946,7.9898,7.9645,7.9378,7.9053,7.8559,7.809,7.7752,7.7133,7.6793,7.6793,7.6505,7.6275,7.6275,7.6275,7.6275,7.6275,7.6275,7.6275,7.6275,7.6275,7.6275,7.6275,7.6275,7.6275,7.6275,7.6275,7.6275,7.6275,7.6275,7.6275,7.6275,7.6275,7.6275,7.6348,7.6782,7.7434,7.8267,7.9064,7.9861,8.0621,8.0984,8.1128,8.1128,8.1128,8.1128,8.1128,8.1128,8.1128,8.1128,8.1128,8.1128,8.1128,8.1128,8.1128,8.1128,8.1128,8.1128,8.1128,8.1128,8.1128,8.1128,8.1128,8.1128,8.1128,8.1128,8.1128,8.1128,8.1128,8.1128,8.1128,8.1128,8.1128,8.1273,8.1708,8.2468,8.2939,8.2939,8.37,8.4171,8.4171,8.4895,8.5366,8.5366,8.5692,8.5909,8.5909,8.5909,8.5909,8.5909,8.5909,8.5909,8.5909,8.5909,8.5909,8.5909,8.5909,8.5909,8.5909,8.5909,8.5909,8.5909,8.5909,8.5909,8.5909,8.5909,8.5909,8.5909,8.5909,8.5909,8.5721]},{"header":{"parameterUnit":"m.s-1","parameterCategory":1,"la1":30.6,"la2":28.766,"lo1":-90.7593,"lo2":-88.6598,"dx":0.0162,"dy":0.0183,"nx":116,"ny":114,"refTime":"2022-12-11T18:00:00:Z","depth":0,"parameterNumber":3,"parameterNumberName":"V-component_of_WINDS"},"data":[0.0,0.0,0.0,0.0,0.0,0.0,0.0,0.0,0.0,0.0,0.0,0.0,0.0,0.0,0.0,0.0,0.0,0.0,0.0,0.0,0.0,0.0,0.0,0.0,0.0,0.0,0.0,0.0,0.0,0.0,0.0,0.0,0.0,0.0,0.0,0.0,0.0,0.0,0.0,0.0,0.0,0.0,0.0,0.0,0.0,0.0,0.0,0.0,0.0,0.0,0.0,0.0,0.0,0.0,0.0,0.0,0.0,0.0,0.0,0.0,0.0,0.0,0.0,0.0,0.0,0.0,0.0,0.0,0.0,0.0,0.0,0.0,0.0,0.0,0.0,0.0,0.0,0.0,0.0,0.0,0.0,0.0,0.0,0.0,0.0,0.0,0.0,0.0,0.0,0.0,0.0,0.0,0.0,0.0,0.0,0.0,0.0,0.0,0.0,0.0,0.0,0.0,0.0,0.0,0.0,0.0,0.0,0.0,0.0,0.0,0.0,0.0,0.0,0.0,0.0,0.0,0.0,0.0,0.0,0.0,0.0,0.0,0.0,0.0,0.0,0.0,0.0,0.0,0.0,0.0,0.0,0.0,0.0,0.0,0.0,0.0,0.0,0.0,0.0,0.0,0.0,0.0,0.0,0.0,0.0,0.0,0.0,0.0,0.0,0.0,0.0,0.0,0.0,0.0,0.0,0.0,0.0,0.0,0.0,0.0,0.0,0.0,0.0,0.0,0.0,0.0,0.0,0.0,0.0,0.0,0.0,0.0,0.0,0.0,0.0,0.0,0.0,0.0,0.0,0.0,0.0,0.0,0.0,0.0,0.0,0.0,0.0,0.0,0.0,0.0,0.0,0.0,0.0,0.0,0.0,0.0,0.0,0.0,0.0,0.0,0.0,0.0,0.0,0.0,0.0,0.0,0.0,0.0,0.0,0.0,0.0,0.0,0.0,0.0,0.0,0.0,0.0,0.0,0.0,0.0,0.0,0.0,0.0,0.0,0.0,0.0,0.0,0.0,0.0,0.0,0.0,0.0,0.0,0.0,0.0,0.0,0.0,0.0,0.0,0.0,0.0,0.0,0.0,0.0,0.0,0.0,0.0,0.0,0.0,0.0,0.0,0.0,0.0,0.0,0.0,0.0,0.0,0.0,0.0,0.0,0.0,0.0,0.0,0.0,0.0,0.0,0.0,0.0,0.0,0.0,0.0,0.0,0.0,0.0,0.0,0.0,0.0,0.0,0.0,0.0,0.0,0.0,0.0,0.0,0.0,0.0,0.0,0.0,0.0,0.0,0.0,0.0,0.0,0.0,0.0,0.0,0.0,0.0,0.0,0.0,0.0,0.0,0.0,0.0,0.0,0.0,0.0,0.0,0.0,0.0,0.0,0.0,0.0,0.0,0.0,0.0,0.0,0.0,0.0,0.0,0.0,0.0,0.0,0.0,0.0,0.0,0.0,0.0,0.0,0.0,0.0,0.0,0.0,0.0,0.0,0.0,0.0,0.0,0.0,0.0,0.0,0.0,0.0,0.0,0.0,0.0,0.0,0.0,0.0,0.0,0.0,0.0,0.0,0.0,0.0,0.0,0.0,0.0,0.0,0.0,0.0,0.0,0.0,0.0,0.0,0.0,0.0,0.0,0.0,0.0,0.0,0.0,0.0,0.0,0.0,0.0,0.0,0.0,0.0,0.0,0.0,0.0,0.0,0.0,0.0,0.0,0.0,0.0,0.0,0.0,0.0,0.0,0.0,0.0,0.0,0.0,0.0,0.0,0.0,0.0,0.0,0.0,0.0,0.0,0.0,0.0,0.0,0.0,0.0,0.0,0.0,0.0,0.0,0.0,0.0,0.0,0.0,0.0,0.0,0.0,0.0,0.0,0.0,0.0,0.0,0.0,0.0,0.0,0.0,0.0,0.0,0.0,0.0,0.0,0.0,0.0,0.0,0.0,0.0,0.0,0.0,0.0,0.0,0.0,0.0,0.0,0.0,0.0,0.0,0.0,0.0,0.0,0.0,0.0,0.0,0.0,0.0,0.0,0.0,0.0,0.0,0.0,0.0,0.0,0.0,0.0,0.0,0.0,0.0,0.0,0.0,0.0,0.0,0.0,0.0,0.0,0.0,0.0,0.0,0.0,0.0,0.0,0.0,0.0,0.0,0.0,0.0,0.0,0.0,0.0,0.0,0.0,0.0,0.0,0.0,0.0,0.0,0.0,0.0,0.0,0.0,0.0,0.0,0.0,0.0,0.0,0.0,0.0,0.0,0.0,0.0,0.0,0.0,0.0,0.0,0.0,0.0,0.0,0.0,0.0,0.0,0.0,0.0,0.0,0.0,0.0,0.0,0.0,0.0,0.0,0.0,0.0,0.0,0.0,0.0,0.0,0.0,0.0,0.0,0.0,0.0,0.0,0.0,0.0,0.0,0.0,0.0,0.0,0.0,0.0,0.0,0.0,0.0,0.0,0.0,0.0,0.0,0.0,0.0,0.0,0.0,0.0,0.0,0.0,0.0,0.0,0.0,0.0,0.0,0.0,0.0,0.0,0.0,0.0,0.0,0.0,0.0,0.0,0.0,0.0,0.0,0.0,0.0,0.0,0.0,0.0,0.0,0.0,0.0,0.0,0.0,0.0,0.0,0.0,0.0,0.0,0.0,0.0,0.0,0.0,0.0,0.0,0.0,0.0,0.0,0.0,0.0,0.0,0.0,0.0,0.0,0.0,0.0,0.0,0.0,0.0,0.0,0.0,0.0,0.0,0.0,0.0,0.0,0.0,0.0,0.0,0.0,0.0,0.0,0.0,0.0,0.0,0.0,0.0,0.0,0.0,0.0,0.0,0.0,0.0,0.0,0.0,0.0,0.0,0.0,0.0,0.0,0.0,0.0,0.0,0.0,0.0,0.0,0.0,0.0,0.0,0.0,0.0,0.0,0.0,0.0,0.0,0.0,0.0,0.0,0.0,0.0,0.0,0.0,0.0,0.0,0.0,0.0,0.0,0.0,0.0,0.0,0.0,0.0,0.0,0.0,0.0,0.0,0.0,0.0,0.0,0.0,0.0,0.0,0.0,0.0,0.0,0.0,0.0,0.0,0.0,0.0,0.0,0.0,0.0,0.0,0.0,0.0,0.0,0.0,0.0,0.0,0.0,0.0,0.0,0.0,0.0,0.0,0.0,0.0,0.0,0.0,0.0,0.0,0.0,0.0,0.0,0.0,0.0,0.0,0.0,0.0,0.0,0.0,0.0,0.0,0.0,0.0,0.0,0.0,0.0,0.0,0.0,0.0,0.0,0.0,0.0,0.0,0.0,0.0,0.0,0.0,0.0,0.0,0.0,0.0,0.0,0.0,0.0,0.0,0.0,0.0,0.0,0.0,0.0,0.0,0.0,0.0,0.0,0.0,0.0,0.0,0.0,0.0,0.0,0.0,0.0,0.0,0.0,0.0,0.0,0.0,0.0,0.0,0.0,0.0,0.0,0.0,0.0,0.0,0.0,0.0,0.0,0.0,0.0,0.0,0.0,0.0,0.0,0.0,0.0,0.0,0.0,0.0,0.0,0.0,0.0,0.0,0.0,0.0,0.0,0.0,0.0,0.0,0.0,0.0,0.0,0.0,0.0,0.0,0.0,0.0,0.0,0.0,0.0,0.0,0.0,0.0,0.0,0.0,0.0,0.0,0.0,0.0,0.0,0.0,0.0,0.0,0.0,0.0,0.0,0.0,0.0,0.0,0.0,0.0,0.0,0.0,0.0,0.0,0.0,0.0,0.0,0.0,0.0,0.0,0.0,0.0,0.0,0.0,0.0,0.0,0.0,0.0,0.0,0.0,0.0,0.0,0.0,0.0,0.0,0.0,0.0,0.0,0.0,0.0,0.0,0.0,0.0,0.0,0.0,0.0,0.0,0.0,0.0,0.0,0.0,0.0,0.0,0.0,0.0,0.0,0.0,0.0,0.0,0.0,0.0,0.0,0.0,0.0,0.0,0.0,0.0,0.0,0.0,0.0,0.0,0.0,0.0,0.0,0.0,0.0,0.0,0.0,0.0,0.0,0.0,0.0,0.0,0.0,0.0,0.0,0.0,0.0,0.0,0.0,0.0,0.0,0.0,0.0,0.0,0.0,0.0,0.0,0.0,0.0,0.0,0.0,0.0,0.0,0.0,0.0,0.0,0.0,0.0,0.0,0.0,0.0,0.0,0.0,0.0,0.0,0.0,0.0,0.0,0.0,0.0,0.0,0.0,0.0,0.0,0.0,0.0,0.0,0.0,0.0,0.0,0.0,0.0,0.0,0.0,0.0,0.0,0.0,0.0,0.0,0.0,0.0,0.0,0.0,0.0,0.0,0.0,0.0,0.0,0.0,0.0,0.0,0.0,0.0,0.0,0.0,0.0,0.0,0.0,0.0,0.0,0.0,0.0,0.0,0.0,0.0,0.0,0.0,0.0,0.0,0.0,0.0,0.0,0.0,0.0,0.0,0.0,0.0,0.0,0.0,0.0,0.0,0.0,0.0,0.0,0.0,0.0,0.0,0.0,0.0,0.0,0.0,0.0,0.0,0.0,0.0,0.0,0.0,0.0,0.0,0.0,0.0,0.0,0.0,0.0,0.0,0.0,0.0,0.0,0.0,0.0,0.0,0.0,0.0,0.0,0.0,0.0,0.0,0.0,0.0,0.0,0.0,0.0,0.0,0.0,0.0,0.0,0.0,0.0,0.0,0.0,0.0,0.0,0.0,0.0,0.0,0.0,0.0,0.0,0.0,0.0,0.0,0.0,0.0,0.0,0.0,0.0,0.0,0.0,0.0,0.0,0.0,0.0,0.0,0.0,0.0,0.0,0.0,0.0,0.0,0.0,0.0,0.0,0.0,0.0,0.0,0.0,0.0,0.0,0.0,0.0,0.0,0.0,0.0,0.0,0.0,0.0,0.0,0.0,0.0,0.0,0.0,0.0,0.0,0.0,0.0,0.0,0.0,0.0,0.0,0.0,0.0,0.0,0.0,0.0,0.0,0.0,0.0,0.0,0.0,0.0,0.0,0.0,0.0,0.0,0.0,0.0,0.0,0.0,0.0,0.0,0.0,0.0,0.0,0.0,0.0,0.0,0.0,0.0,0.0,0.0,0.0,0.0,0.0,0.0,0.0,0.0,0.0,0.0,0.0,0.0,0.0,0.0,0.0,0.0,0.0,0.0,0.0,0.0,0.0,0.0,0.0,0.0,0.0,0.0,0.0,0.0,0.0,0.0,0.0,0.0,0.0,0.0,0.0,0.0,0.0,0.0,0.0,0.0,0.0,0.0,0.0,0.0,0.0,0.0,0.0,0.0,0.0,0.0,0.0,0.0,0.0,0.0,0.0,0.0,0.0,0.0,0.0,0.0,0.0,0.0,0.0,0.0,0.0,0.0,0.0,0.0,0.0,0.0,0.0,0.0,0.0,0.0,0.0,0.0,0.0,0.0,0.0,0.0,0.0,0.0,0.0,0.0,0.0,0.0,0.0,0.0,0.0,0.0,0.0,0.0,0.0,0.0,0.0,0.0,0.0,0.0,0.0,0.0,0.0,0.0,0.0,0.0,0.0,0.0,0.0,0.0,0.0,0.0,0.0,0.0,0.0,0.0,0.0,0.0,0.0,0.0,0.0,0.0,0.0,0.0,0.0,0.0,0.0,0.0,0.0,0.0,0.0,0.0,0.0,0.0,0.0,0.0,0.0,0.0,0.0,0.0,0.0,0.0,0.0,0.0,0.0,0.0,0.0,0.0,0.0,0.0,0.0,0.0,0.0,0.0,0.0,0.0,0.0,0.0,0.0,0.0,0.0,0.0,0.0,0.0,0.0,0.0,0.0,0.0,0.0,0.0,0.0,0.0,0.0,0.0,0.0,0.0,0.0,0.0,0.0,0.0,0.0,0.0,0.0,0.0,0.0,0.0,0.0,0.0,0.0,0.0,0.0,0.0,0.0,0.0,0.0,0.0,0.0,0.0,0.0,0.0,0.0,0.0,0.0,0.0,0.0,0.0,0.0,0.0,0.0,0.0,0.0,0.0,0.0,0.0,0.0,0.0,0.0,0.0,0.0,0.0,0.0,0.0,0.0,0.0,0.0,0.0,0.0,0.0,0.0,0.0,0.0,0.0,-3.356,0.0,0.0,0.0,0.0,0.0,0.0,0.0,0.0,0.0,0.0,0.0,0.0,0.0,0.0,0.0,0.0,0.0,0.0,0.0,0.0,0.0,0.0,0.0,0.0,-2.6595,-2.6503,-2.6811,-2.6317,0.0,0.0,0.0,0.0,0.0,0.0,0.0,0.0,0.0,-2.4557,-2.4557,-2.4557,-2.4856,-2.5426,-2.5751,-2.5561,-2.5018,0.0,0.0,0.0,0.0,0.0,0.0,0.0,0.0,0.0,0.0,0.0,0.0,0.0,0.0,0.0,0.0,0.0,0.0,0.0,0.0,0.0,0.0,0.0,0.0,0.0,0.0,0.0,0.0,0.0,0.0,0.0,0.0,0.0,0.0,0.0,0.0,0.0,0.0,0.0,0.0,0.0,0.0,0.0,0.0,0.0,0.0,0.0,0.0,0.0,0.0,0.0,0.0,0.0,0.0,0.0,0.0,0.0,0.0,0.0,0.0,0.0,0.0,0.0,0.0,0.0,0.0,0.0,0.0,0.0,0.0,0.0,-3.3856,0.0,0.0,0.0,0.0,0.0,0.0,0.0,0.0,0.0,0.0,0.0,0.0,0.0,0.0,0.0,0.0,0.0,0.0,0.0,0.0,0.0,-2.6872,-2.6411,-2.6167,-2.6336,-2.701,-2.6441,-2.6278,-2.684,-2.6968,0.0,0.0,0.0,0.0,0.0,-2.5263,-2.5046,-2.5154,-2.5371,-2.605,-2.7135,-2.7244,-2.6809,-2.5941,-2.5507,0.0,0.0,0.0,0.0,0.0,0.0,0.0,0.0,0.0,0.0,0.0,0.0,0.0,0.0,0.0,0.0,0.0,0.0,0.0,0.0,0.0,0.0,0.0,0.0,0.0,0.0,0.0,0.0,0.0,0.0,0.0,0.0,0.0,0.0,0.0,0.0,0.0,0.0,0.0,0.0,0.0,0.0,0.0,0.0,0.0,0.0,0.0,0.0,0.0,0.0,0.0,0.0,0.0,0.0,0.0,0.0,0.0,0.0,0.0,0.0,0.0,0.0,0.0,-3.6524,-3.6768,-3.6768,-3.7311,-3.7528,-3.7419,-3.5358,-3.4492,-3.4335,-3.4492,0.0,0.0,0.0,0.0,0.0,0.0,0.0,0.0,0.0,0.0,0.0,0.0,0.0,0.0,0.0,0.0,0.0,0.0,0.0,-2.5764,-2.6287,-2.5394,-2.5032,-2.5691,-2.4809,-2.4267,-2.4402,-2.447,0.0,0.0,0.0,0.0,-2.5127,-2.5046,-2.5263,-2.5778,-2.6837,-2.7705,-2.8356,-2.8899,-2.9333,-2.9604,-2.7515,-2.6538,-2.6511,0.0,0.0,0.0,0.0,0.0,0.0,0.0,0.0,0.0,0.0,0.0,0.0,0.0,0.0,0.0,0.0,0.0,0.0,0.0,0.0,0.0,0.0,0.0,0.0,0.0,0.0,0.0,0.0,0.0,0.0,0.0,0.0,0.0,0.0,0.0,0.0,0.0,0.0,0.0,0.0,0.0,-3.1083,-3.1702,0.0,0.0,0.0,0.0,0.0,0.0,0.0,0.0,0.0,0.0,0.0,0.0,0.0,-3.6334,-3.6252,-3.6877,-3.7202,-3.7284,-3.7365,-3.7419,-3.7419,-3.7501,-3.7528,-3.7501,-3.7202,0.0,-3.6983,-3.6983,0.0,0.0,0.0,0.0,0.0,0.0,0.0,0.0,0.0,0.0,0.0,0.0,0.0,0.0,0.0,0.0,0.0,0.0,0.0,0.0,0.0,-2.4705,-2.4886,-2.5551,-2.4861,-2.4707,-2.5406,-2.5574,0.0,0.0,0.0,-2.6945,-2.6538,-2.7189,-2.7651,-2.7895,-2.879,-2.936,-2.9631,-2.9876,-3.0147,-3.0364,-2.9306,-2.8655,-2.8329,-2.86,0.0,0.0,0.0,0.0,0.0,0.0,0.0,0.0,0.0,0.0,0.0,0.0,0.0,0.0,0.0,0.0,0.0,0.0,0.0,0.0,0.0,0.0,0.0,0.0,0.0,0.0,0.0,0.0,0.0,0.0,0.0,0.0,0.0,0.0,0.0,0.0,0.0,0.0,0.0,-3.1957,-3.2697,-3.3288,-3.367,-3.3859,0.0,0.0,0.0,0.0,0.0,0.0,0.0,0.0,0.0,-3.6196,-3.6766,-3.7284,-3.7609,-3.7881,-3.8206,-3.8532,-3.8857,-3.902,-3.9047,-3.94,-3.9536,-3.9536,-3.9536,-3.9536,-3.9454,-3.8098,-3.7365,-3.7121,0.0,0.0,0.0,0.0,-3.6361,-3.6307,0.0,0.0,0.0,0.0,0.0,0.0,0.0,0.0,0.0,0.0,0.0,0.0,-2.4326,-2.4566,-2.507,-2.5897,-2.5455,-2.5522,-2.6662,-2.6777,-2.7026,-2.7461,-2.8465,-2.8682,-2.7949,-2.9116,-2.9794,-2.993,-3.0554,-3.0934,-3.1097,-3.1232,-3.1314,-3.1314,-3.1314,-3.0717,-2.9713,-2.9713,-2.9306,-2.86,0.0,0.0,0.0,0.0,0.0,0.0,0.0,0.0,0.0,0.0,0.0,0.0,0.0,0.0,0.0,0.0,0.0,0.0,0.0,0.0,0.0,0.0,0.0,0.0,0.0,0.0,0.0,0.0,0.0,0.0,0.0,0.0,0.0,0.0,0.0,0.0,0.0,-3.3215,-3.3853,-3.4445,-3.4446,-3.4313,0.0,0.0,0.0,0.0,0.0,0.0,-3.6849,-3.7419,-3.7772,-3.7772,-3.8043,-3.8423,-3.8857,-3.902,-3.94,-3.9997,-4.0431,-4.073,-4.0892,-4.1354,-4.1571,-4.1571,-4.1571,-4.1571,-4.1408,-3.9319,-3.8369,-3.8206,-3.8206,-3.8125,-3.7989,-3.7989,-3.7989,-3.7989,0.0,0.0,0.0,0.0,0.0,0.0,0.0,0.0,0.0,0.0,0.0,-2.4798,-2.5517,-2.51,-2.532,-2.6554,-2.6183,-2.6136,-2.6728,-2.6809,-2.6837,-2.6864,-2.7461,-2.803,-2.8546,-2.974,-3.0635,-3.1205,-3.1802,-3.2372,-3.2942,-3.3512,-3.368,-3.368,-3.368,-3.2508,-3.0364,-3.0364,-3.0663,-3.1015,-2.9849,0.0,0.0,0.0,0.0,0.0,0.0,0.0,0.0,0.0,0.0,0.0,0.0,0.0,0.0,0.0,0.0,0.0,0.0,0.0,0.0,0.0,0.0,0.0,0.0,0.0,0.0,0.0,0.0,0.0,0.0,0.0,0.0,0.0,0.0,0.0,0.0,0.0,0.0,-3.4445,-3.4684,0.0,0.0,0.0,0.0,-3.728,-3.7192,-3.7246,-3.7389,-3.8043,-3.8369,-3.8369,-3.9481,-4.0078,-4.0106,-4.0675,-4.1272,-4.1869,-4.1896,-4.2195,-4.2765,-4.2792,-4.2792,-4.2792,-4.2792,-4.2792,-4.2711,-4.1462,-4.0594,-4.0051,-4.0051,-3.9699,-3.921,-3.921,-3.921,-3.921,0.0,0.0,0.0,-2.6862,-2.6594,-2.6243,-2.5452,-2.5226,-2.4951,-2.4258,-2.448,-2.4674,-2.4685,-2.5163,-2.5684,-2.6123,-2.6358,-2.6755,-2.7352,-2.7759,-2.8139,-2.8519,-2.9496,-3.0473,-3.145,-3.1531,-3.2019,-3.2996,-3.3213,-3.343,-3.3647,-3.3761,-3.3869,-3.3869,-3.3869,-3.3409,-3.2698,-3.2698,-3.2589,-3.2372,-3.1531,-3.1341,0.0,0.0,0.0,0.0,0.0,0.0,0.0,0.0,0.0,0.0,0.0,0.0,0.0,0.0,0.0,0.0,0.0,0.0,0.0,0.0,0.0,0.0,0.0,0.0,0.0,0.0,0.0,0.0,0.0,0.0,0.0,0.0,0.0,0.0,0.0,0.0,0.0,-3.5547,-3.5736,0.0,-3.6868,-3.6949,-3.7192,-3.807,-3.8363,-3.8742,-3.921,-3.9834,-4.0323,-4.0703,-4.1137,-4.1734,-4.2493,-4.2711,-4.3145,-4.3742,-4.3742,-4.385,-4.4067,-4.4067,-4.4067,-4.4067,-4.4067,-4.4067,-4.404,-4.3606,-4.2846,-4.1924,-4.1924,-4.1788,-4.1598,-4.1598,-4.1598,-4.1598,0.0,0.0,0.0,-2.6038,-2.5894,-2.5638,-2.5018,-2.4899,-2.4674,-2.4269,-2.4531,-2.4773,-2.4721,-2.5426,-2.605,-2.6457,-2.7054,-2.7678,-2.8275,-2.8872,-2.9469,-3.0066,-3.1232,-3.2345,-3.3349,-3.2969,-3.3268,-3.4167,-3.4167,-3.4275,-3.4543,-3.4543,-3.4543,-3.4543,-3.4543,-3.4543,-3.4543,-3.4543,-3.4082,-3.3322,-3.2942,-3.2779,-3.2698,0.0,0.0,0.0,0.0,0.0,0.0,0.0,0.0,0.0,0.0,0.0,0.0,0.0,0.0,0.0,0.0,0.0,0.0,0.0,0.0,0.0,0.0,0.0,0.0,0.0,0.0,0.0,0.0,0.0,0.0,0.0,0.0,0.0,0.0,0.0,-3.5493,-3.6461,-3.6841,-3.7277,-3.7812,-3.8054,-3.8492,-3.9292,-3.9888,-4.0377,-4.0784,-4.1571,-4.2195,-4.2575,-4.2792,-4.328,-4.4094,-4.4094,-4.4393,-4.499,-4.499,-4.5098,-4.5316,-4.5316,-4.5316,-4.5316,-4.5316,-4.5316,-4.5316,-4.5316,-4.4827,-4.4067,-4.366,-4.3497,-4.3497,-4.3497,-4.3497,-4.3497,0.0,0.0,-2.6399,-2.6059,-2.5218,-2.4797,-2.5351,-2.4402,-2.3943,-2.4859,-2.4914,-2.5134,-2.5809,-2.5914,-2.643,-2.7596,-2.8275,-2.8872,-2.9442,-3.0093,-3.0744,-3.1341,-3.2481,-3.3376,-3.3896,-3.3896,-3.4194,-3.4869,-3.4869,-3.5167,-3.571,-3.571,-3.571,-3.571,-3.571,-3.571,-3.571,-3.571,-3.5058,-3.3923,-3.3923,-3.3896,-3.3842,0.0,0.0,0.0,0.0,0.0,0.0,0.0,0.0,0.0,0.0,0.0,0.0,0.0,0.0,0.0,0.0,0.0,0.0,0.0,0.0,0.0,0.0,0.0,0.0,0.0,0.0,0.0,0.0,0.0,0.0,0.0,0.0,0.0,-3.6075,-3.6243,-3.6569,-3.7187,-3.7952,-3.8695,-3.9292,-3.9888,-4.0513,-4.1137,-4.1734,-4.2059,-4.2086,-4.3172,-4.3823,-4.3823,-4.442,-4.4746,-4.4773,-4.4773,-4.5044,-4.5614,-4.5614,-4.5912,-4.6482,-4.6482,-4.6482,-4.6509,-4.6509,-4.6509,-4.6537,-4.6537,-4.6537,-4.6401,-4.5234,-4.4773,-4.4773,-4.4773,-4.4773,-4.4543,-2.5986,-2.5769,-2.5406,-2.4367,-2.4333,-2.4382,-2.4172,-2.4278,-2.4512,-2.4799,-2.5273,-2.5679,-2.586,-2.6674,-2.7352,-2.7678,-2.8627,-2.9306,-2.9469,-3.088,-3.2155,-3.3159,-3.3539,-3.3973,-3.457,-3.4597,-3.4869,-3.5465,-3.5465,-3.5547,-3.571,-3.571,-3.571,-3.571,-3.571,-3.571,-3.571,-3.571,-3.552,-3.5194,-3.476,-3.4597,-3.4516,0.0,0.0,0.0,0.0,0.0,0.0,0.0,0.0,0.0,0.0,0.0,0.0,0.0,0.0,0.0,0.0,0.0,0.0,0.0,0.0,0.0,0.0,0.0,0.0,0.0,0.0,0.0,0.0,0.0,0.0,0.0,-3.6976,-3.7601,-3.6914,-3.7407,-3.8066,-3.8661,-3.9346,-3.9943,-4.0567,-4.1164,-4.1761,-4.2358,-4.2955,-4.3497,-4.3932,-4.4257,-4.4637,-4.5071,-4.5261,-4.556,-4.5994,-4.5994,-4.6075,-4.6238,-4.6238,-4.6319,-4.6482,-4.6482,-4.6699,-4.7106,-4.7106,-4.7351,-4.7758,-4.7758,-4.7758,-4.7649,-4.6455,-4.5994,-4.5994,-4.5994,-4.555,-4.4997,-2.5356,-2.5133,-2.4584,-2.3496,-2.3937,-2.4301,-2.3884,-2.4317,-2.4831,-2.5163,-2.5625,-2.5995,-2.6267,-2.7135,-2.7895,-2.841,-2.9306,-3.0066,-3.0581,-3.2291,-3.3593,-3.4299,-3.457,-3.4841,-3.5194,-3.5194,-3.5384,-3.571,-3.571,-3.5845,-3.609,-3.609,-3.6225,-3.6469,-3.6469,-3.6469,-3.6469,-3.6469,-3.6469,-3.6415,-3.5818,-3.5411,-3.5167,-3.4814,-3.4679,-3.4706,-3.4787,-3.4841,-3.4787,-3.4543,0.0,0.0,0.0,0.0,0.0,0.0,0.0,0.0,0.0,0.0,0.0,0.0,0.0,0.0,0.0,0.0,0.0,0.0,0.0,0.0,0.0,0.0,0.0,0.0,-3.8168,-3.8769,-3.8843,-3.9013,-3.9373,-3.9997,-4.0811,-4.1462,-4.1815,-4.2629,-4.328,-4.3633,-4.4203,-4.4691,-4.5071,-4.5316,-4.5587,-4.5967,-4.5967,-4.613,-4.6482,-4.6727,-4.6835,-4.6835,-4.7106,-4.7215,-4.7215,-4.7215,-4.7405,-4.7731,-4.7731,-4.792,-4.8246,-4.8246,-4.8246,0.0,0.0,0.0,0.0,0.0,-4.6867,-4.6328,-2.5077,-2.457,-2.397,-2.3231,-2.3714,-2.4229,-2.4149,-2.4419,-2.4888,-2.5526,-2.5855,-2.6212,-2.6755,-2.7406,-2.8248,-2.9387,-3.0038,-3.0961,-3.2291,-3.3865,-3.4787,-3.4923,-3.5438,-3.571,-3.571,-3.571,-3.571,-3.571,-3.571,-3.6008,-3.6605,-3.6605,-3.6931,-3.7528,-3.7528,-3.7528,-3.7528,-3.7528,-3.7528,-3.7473,-3.6931,-3.6361,-3.5791,-3.5737,-3.571,-3.5655,-3.5113,-3.4923,-3.4841,-3.4248,0.0,0.0,0.0,0.0,0.0,0.0,0.0,0.0,0.0,0.0,0.0,0.0,0.0,0.0,0.0,0.0,0.0,0.0,0.0,0.0,0.0,0.0,0.0,0.0,-3.95,-4.0078,-4.1164,-4.0947,-4.0865,-4.1272,-4.2358,-4.309,-4.309,-4.4122,-4.48,-4.48,-4.5343,-4.5695,-4.5695,0.0,0.0,0.0,0.0,-4.6618,-4.6672,-4.7188,-4.7459,-4.7459,-4.8002,-4.8246,-4.8246,-4.8246,-4.8273,-4.8355,-4.8355,-4.8409,-4.8545,-4.8545,-4.8462,-4.8406,-4.8136,-4.8028,-4.8028,-4.7891,-4.7781,-4.7561,-2.4332,-2.3822,-2.3326,-2.3151,-2.3334,-2.3521,-2.3548,-2.4143,-2.4722,-2.4902,-2.5905,-2.6701,-2.6809,-2.7633,-2.8552,-2.9414,-2.9875,-3.1145,-3.3382,-3.3919,-3.4543,-3.5493,-3.5655,-3.571,-3.571,-3.571,-3.571,-3.571,-3.571,-3.6008,-3.6605,-3.6605,-3.6931,-3.7528,-3.7528,-3.7528,-3.7528,-3.7528,-3.7528,-3.7528,-3.7392,-3.6985,-3.6361,-3.59,-3.571,-3.5683,-3.5601,-3.5547,-3.552,-3.5411,-3.5384,-3.5384,-3.552,-3.5547,0.0,0.0,0.0,0.0,0.0,0.0,0.0,0.0,0.0,0.0,0.0,0.0,0.0,0.0,0.0,0.0,0.0,0.0,0.0,-3.9798,-4.1245,-4.2276,-4.2521,-4.328,-4.3525,-4.2656,-4.3606,-4.4339,-4.4339,-4.499,-4.5424,-4.5424,-4.5967,-4.6319,-4.6319,-4.6428,-4.6699,-4.7161,-4.7188,-4.7405,-4.7893,-4.8029,-4.8083,-4.8083,0.0,0.0,-4.8246,-4.8246,-4.8517,-4.8952,-4.8952,-4.9494,-5.039,-5.039,-5.0201,-4.9743,-4.7834,-4.7092,-4.698,-4.6169,-4.5514,-4.494,-2.4047,-2.3629,-2.3083,-2.2831,-2.3125,-2.3393,-2.3285,-2.4041,-2.461,-2.4681,-2.5899,-2.6688,-2.6627,-2.7651,-2.8663,-2.9578,-3.0734,-3.2125,-3.3761,-3.4062,-3.463,-3.5683,-3.5629,-3.5629,-3.571,-3.571,-3.571,-3.571,-3.6008,-3.6469,-3.7066,-3.7365,-3.7826,-3.8423,-3.8423,-3.8423,-3.8423,-3.8423,-3.8423,-3.8396,-3.8098,-3.7799,-3.7446,-3.6849,-3.6415,-3.6171,-3.6171,-3.5981,-3.571,-3.571,-3.571,-3.571,-3.571,-3.571,-3.571,0.0,0.0,0.0,0.0,0.0,0.0,0.0,0.0,0.0,0.0,0.0,0.0,0.0,0.0,-3.8351,-3.9033,0.0,-4.0513,-4.1381,-4.2304,-4.309,-4.3715,-4.4583,-4.48,-4.3904,-4.461,-4.5153,-4.5153,-4.5695,-4.6021,-4.6021,-4.6591,-4.6916,-4.6916,-4.7188,-4.7486,-4.7785,-4.7812,-4.7948,-4.8246,-4.8545,-4.868,-4.8707,-4.9277,-4.9576,-4.9576,-4.9901,-5.02,-5.0357,-4.9871,-5.0077,-5.0639,-5.0639,-5.0208,-4.9378,-4.8354,-4.7769,-4.7769,-4.7298,-4.6849,-4.6491,-2.3733,-2.3472,-2.308,-2.2609,-2.3034,-2.3405,-2.321,-2.3936,-2.4563,-2.4563,-2.5614,-2.6371,-2.6478,-2.7417,-2.8531,-2.9704,-3.1476,-3.2885,-3.3815,-3.4095,-3.466,-3.5521,-3.5467,-3.5467,-3.5548,-3.5629,-3.571,-3.5629,-3.6198,-3.6795,-3.7555,-3.8016,-3.8613,-3.9292,-3.9292,-3.9292,-3.9292,-3.9292,-3.9292,-3.9264,-3.8776,-3.8586,-3.8532,-3.8043,-3.7419,-3.6768,-3.6768,-3.6469,-3.6062,-3.6062,-3.6062,-3.6062,-3.6062,-3.6062,-3.6062,-3.6062,-3.6062,0.0,0.0,0.0,0.0,0.0,0.0,0.0,0.0,-3.779,-3.7973,-3.8742,-3.9141,-3.9708,-4.0567,-4.1137,-4.1842,-4.3036,-4.3335,-4.3742,-4.4746,-4.5397,-4.5587,-4.5098,-4.5478,-4.575,-4.575,-4.6292,-4.6645,-4.6645,-4.7188,-4.7541,-4.7541,-4.7975,-4.83,-4.8409,-4.8409,-4.8517,-4.8762,-4.9223,-4.9549,-4.9657,-5.0634,-5.0953,-5.0864,-5.1233,-5.1449,-5.1213,-5.0458,-5.0149,-5.0149,-5.0159,-4.9574,-4.8559,-4.8559,-4.8309,-4.8159,-4.8207,-4.828,-4.8131,-2.2792,-2.2923,-2.321,-2.3132,-2.3184,-2.321,-2.321,-2.3879,-2.4363,-2.4363,-2.5063,-2.5735,-2.6241,-2.6754,-2.7815,-2.9747,-3.1055,-3.223,-3.3584,-3.3536,-3.3966,-3.5114,-3.5331,-3.5331,-3.5168,-3.5548,-3.5629,-3.5386,-3.571,-3.6415,-3.7528,-3.7609,-3.8233,-3.9292,-3.9292,-3.9292,-3.9292,-3.9292,-3.9292,-3.9292,-3.9237,-3.921,-3.9183,-3.9129,-3.8396,-3.7419,-3.7419,-3.7392,-3.7338,-3.7338,-3.7338,-3.7338,-3.7338,-3.7338,-3.7338,-3.7338,-3.7338,-3.7338,-3.7338,-3.7392,-3.7446,-3.7501,-3.7935,-3.845,0.0,-3.9509,-4.0051,-4.0675,-4.0865,-4.1245,-4.2385,-4.2629,-4.309,-4.4312,-4.4936,-4.5343,-4.5478,-4.5994,-4.6347,-4.6292,-4.6347,-4.6374,-4.6374,-4.6916,-4.7269,-4.7269,-4.7812,-4.8138,-4.8138,-4.8219,-4.849,-4.9006,-4.9033,-4.9521,-5.058,-5.0661,-5.0987,-5.1529,-5.1665,-5.1223,-5.0393,-5.0446,-4.9992,-4.9142,-4.9533,-4.9739,-4.979,-4.9647,-4.8928,-4.7889,-4.7364,-4.6594,-4.5698,-4.6117,-4.6166,-4.6166,-2.355,-2.3576,-2.3733,-2.3733,-2.3733,-2.3864,-2.4178,-2.4498,-2.4774,-2.4807,-2.5104,-2.5474,-2.6056,-2.7117,-2.8433,-3.0069,-3.0944,-3.1867,-3.2844,-3.3382,-3.3887,-3.4553,-3.4899,-3.5086,-3.5086,-3.5386,-3.5467,-3.5386,-3.5817,-3.652,-3.7555,-3.7709,-3.8418,-3.9292,-3.9292,-3.9292,-3.9292,-3.9292,-3.9292,-3.9292,-3.9292,-3.9292,-3.9292,-3.9292,-3.8993,-3.8505,-3.8179,-3.7826,0.0,-3.7528,-3.7528,-3.7528,-3.7528,-3.7528,-3.7528,-3.7528,-3.7772,-3.8206,-3.8884,-3.9074,-3.9156,-3.9536,-3.9807,-4.0051,-4.0296,-4.054,-4.1001,-4.1951,-4.2141,-4.2521,-4.3715,-4.3959,-4.423,-4.5071,-4.5424,-4.5695,-4.6048,-4.6319,-4.6591,-4.6944,-4.6998,-4.6998,-4.6998,-4.7513,-4.7866,-4.7866,-4.8436,-4.8762,-4.8762,-4.9087,-4.9549,-5.0146,-5.0146,-5.0324,-5.0575,-5.1071,-5.1206,-5.0976,-5.1944,-5.1576,-5.0193,-5.0532,-4.9543,-4.7685,-4.7905,-4.7743,-4.7244,-4.77,-4.7425,-4.6358,-4.676,-4.6224,-4.5278,-4.5535,-4.5505,-4.5505,-2.4465,-2.436,-2.436,-2.436,-2.4491,-2.4674,-2.4996,-2.5092,-2.5205,-2.5169,-2.5143,-2.5353,-2.587,-2.7406,-2.8795,-2.9874,-3.0671,-3.1457,-3.2133,-3.3014,-3.3727,-3.4046,-3.4548,-3.4839,-3.4921,-3.5168,-3.5331,-3.5249,-3.5733,-3.6354,-3.7199,-3.7461,-3.8141,-3.9047,-3.9047,-3.9067,-3.9203,-3.9203,-3.9114,-3.9141,-3.9141,-3.9141,-3.9141,-3.9141,-3.9114,-3.9149,-3.8803,-3.8396,-3.8016,-3.8016,-3.8016,-3.8016,-3.8016,-3.8125,-3.826,-3.826,-3.8607,-3.9257,-4.0096,-4.034,-4.0448,-4.1001,-4.1245,-4.1408,-4.1571,-4.1734,-4.2141,-4.3172,-4.3389,-4.3715,-4.4644,-4.4834,-4.5153,-4.5619,-4.5831,-4.5994,-4.6428,-4.6618,-4.6889,-4.7296,-4.7649,-4.7839,-4.7839,-4.8246,-4.849,-4.849,-4.9033,-4.944,-4.9603,-5.001,-5.0525,-5.115,-5.1034,-5.0693,-5.0201,-5.083,-5.0763,-4.98,-5.0953,-5.0767,-4.9242,-4.9391,-4.8297,-4.6493,-4.6493,-4.5978,-4.5324,-4.5978,-4.5708,-4.5051,-4.5708,-4.5437,-4.464,-4.464,-4.4914,-4.5324,-2.504,-2.4996,-2.4996,-2.4996,-2.5406,-2.5589,-2.504,-2.5432,-2.5589,-2.5101,-2.5022,-2.5197,-2.5772,-2.734,-2.8481,-2.8739,-3.0151,-3.1123,-3.1299,-3.2226,-3.2986,-3.3561,-3.4383,-3.4673,-3.4397,-3.4895,-3.5003,-3.4839,-3.5003,-3.5571,-3.63,-3.6327,-3.7142,-3.845,-3.845,-3.8573,-3.8908,-3.8908,-3.8845,-3.8602,-3.8602,-3.8602,-3.8602,-3.8602,-3.8756,-3.8908,-3.9176,-3.9264,-3.9264,-3.9264,-3.9264,-3.9264,-3.9264,-3.9644,-4.0106,-4.0106,-4.0356,-4.0629,-4.0656,-4.0683,-4.0776,-4.1017,-4.1544,-4.2141,-4.2711,-4.328,-4.3877,-4.4529,-4.4664,-4.4726,-4.5012,-4.5326,-4.5646,-4.5899,-4.6218,-4.6455,-4.6482,-4.6971,-4.7351,-4.7351,-4.8382,-4.906,-4.906,-4.9087,-4.9087,-4.9087,-4.9657,-5.0227,-5.0797,-5.0851,-5.115,-5.1774,-5.1422,-5.095,-5.0111,-4.9764,-4.9242,-4.846,-4.846,-4.7987,-4.7003,-4.5978,-4.546,-4.5324,-4.5324,-4.5324,-4.5187,-4.4503,-4.4228,-4.4228,-4.358,-4.3324,-4.3324,-4.3324,-4.4112,-4.5187,-2.5641,-2.5537,-2.5537,-2.5537,-2.6007,-2.6321,-2.6138,-2.6269,-2.6321,-2.6112,-2.5772,0.0,0.0,0.0,0.0,0.0,-3.0288,-3.1048,-3.1123,-3.2123,-3.2777,-3.2986,-3.3642,-3.4114,-3.4397,-3.4756,-3.4839,-3.4756,-3.4839,-3.5296,-3.6106,-3.6106,-3.6619,-3.7569,-3.7569,-3.7892,-3.8343,-3.8167,-3.8318,-3.8602,-3.8602,-3.8602,-3.8602,-3.8602,-3.8692,-3.8666,0.0,-3.8935,-3.8997,-3.8997,-3.8935,-3.8926,-3.9509,-3.9661,-3.9865,-4.067,-4.1045,-4.1382,-4.1785,-4.2285,-4.2776,-4.2555,-4.3013,-4.3425,-4.3513,-4.3627,-4.3921,-4.4537,-4.4644,-4.4831,-4.5288,-4.5527,-4.5581,-4.5662,-4.6034,-4.6274,-4.6491,-4.6813,-4.7325,-4.8107,-4.8427,-4.8718,-4.9346,-4.9599,-4.9874,-5.0254,-5.027,-5.0505,-5.1098,-5.0917,-5.0684,-5.0368,-5.0272,-4.9515,-4.8028,-4.8521,-4.8337,-4.7377,-4.6979,-4.6445,-4.6066,-4.464,-4.3858,-4.3858,-4.3858,-4.3858,-4.3858,-4.358,-4.358,-4.3603,-4.3653,-4.3621,-4.3665,-4.3993,-4.4387,-4.4746,0.0,-2.6138,-2.6138,-2.6138,-2.6425,0.0,0.0,0.0,0.0,0.0,0.0,0.0,0.0,0.0,0.0,0.0,0.0,-3.0686,-3.0686,-3.1757,-3.2385,-3.2385,-3.3352,-3.3953,-3.411,-3.4485,-3.4673,-3.4673,-3.4673,-3.4941,-3.5562,-3.5562,-3.6049,-3.678,-3.678,-3.7016,-3.7491,-3.7289,-3.7679,-3.8304,-3.7854,-3.796,-3.8304,-3.7854,-3.7917,0.0,-3.8013,-3.8299,-3.8639,-3.8756,-3.8666,-3.8709,-3.9451,-3.9814,-4.0254,-4.1239,-4.163,-4.1834,-4.2646,-4.3103,-4.3425,-4.3614,-4.3862,-4.4109,-4.4117,-4.4067,-4.433,-4.4916,-4.5049,-4.5156,-4.5422,-4.5502,-4.5609,-4.5502,-4.5875,-4.6035,-4.5862,-4.6724,-4.7478,-4.7748,-4.8266,-4.8893,-4.971,-4.9391,-4.964,-5.0532,-5.0137,-5.0274,-5.1362,-5.0254,-4.9754,-4.9948,-4.9318,-4.8213,-4.6469,-4.6955,-4.6713,-4.5572,-4.5165,-4.4892,-4.4892,-4.3697,-4.3184,-4.3184,-4.3359,-4.3425,-4.3447,-4.3599,-4.3687,-4.3709,-4.3993,-4.4124,-4.4167,-4.4473,-4.4582,-4.4539,0.0,0.0,-2.6713,0.0,0.0,0.0,0.0,0.0,0.0,0.0,0.0,0.0,0.0,0.0,0.0,0.0,0.0,0.0,-3.0137,-3.1182,-3.181,-3.1759,-3.3404,-3.4058,-3.3639,-3.411,-3.4371,-3.4397,-3.4397,-3.4481,-3.4756,-3.4756,-3.5213,-3.5911,-3.5911,-3.6146,-3.6445,-3.6445,-3.6928,-3.7717,-3.6567,-3.6802,-3.7691,-3.6541,-3.6639,-3.7342,-3.7101,-3.7532,-3.816,-3.8485,-3.8655,-3.8789,-3.9203,-4.0186,-4.1373,-4.1906,-4.1921,-4.1954,-4.3038,-4.3024,-4.2933,-4.3975,-4.4033,-4.3987,-4.4545,-4.4573,-4.4811,-4.5369,-4.5475,-4.5395,-4.518,-4.5287,-4.5395,-4.5072,-4.579,-4.5941,-4.4643,-4.6664,-4.774,-4.6334,-4.7832,-4.9249,-4.9807,-4.8677,-4.8463,-4.9823,0.0,-4.947,-5.1345,-4.8913,-4.8377,-5.0232,-4.8664,-4.7112,-4.5661,-4.5414,-4.4481,-4.3184,-4.3184,-4.3184,-4.3206,-4.3206,-4.3228,-4.3272,-4.3709,-4.3905,-4.3927,-4.4408,-4.4582,-4.4582,-4.4626,-4.4626,-4.4626,-4.4648,-4.467,-4.467,0.0,0.0,0.0,0.0,0.0,0.0,0.0,0.0,0.0,0.0,0.0,0.0,0.0,0.0,0.0,0.0,0.0,0.0,-3.0163,-3.079,-3.1392,-3.1733,-3.2254,-3.3038,-3.4162,-3.3927,-3.4005,-3.4397,-3.4397,-3.4397,-3.4481,-3.4673,-3.4918,-3.5133,-3.5133,-3.5394,-3.5838,-3.5693,-3.6,-3.6541,-3.6227,-3.6279,-3.6541,-3.6227,-3.6201,-3.6498,-3.6854,-3.709,-3.7363,-3.8081,-3.8886,-3.9532,-3.9501,-4.0342,-4.1314,-4.1471,-4.1913,-4.2409,-4.277,-4.3433,-4.4226,-4.4281,-4.452,-4.4544,-4.3541,-4.3347,-4.3398,-4.3526,-4.3577,-4.3797,-4.4722,-4.4152,-4.3577,-4.3466,-4.4284,-4.4796,-4.4611,-4.6472,-4.7581,-4.6637,-4.7078,-4.7605,-4.8094,-4.7359,-4.7478,-4.8884,-4.8108,-4.7898,-4.8828,-4.7971,-4.7125,-4.6579,-4.6201,-4.5278,-4.3836,-4.3836,-4.358,-4.3184,-4.3184,-4.3359,-4.3687,-4.3687,-4.3883,-4.4233,-4.4364,-4.4408,-4.4408,-4.4539,-4.4582,-4.4626,-4.4997,-4.5129,-4.5172,-4.5522,-4.5631,-4.5631,0.0,0.0,0.0,0.0,0.0,0.0,0.0,0.0,0.0,0.0,0.0,0.0,0.0,0.0,0.0,0.0,0.0,0.0,0.0,-3.0817,-3.113,-3.1444,-3.2202,-3.2829,-3.3273,-3.3718,-3.3979,-3.4058,-3.4267,-3.4397,-3.4397,-3.4564,-3.4673,-3.4673,-3.4673,-3.4748,-3.5063,-3.4978,-3.5365,0.0,0.0,-3.5652,-3.6044,-3.5547,-3.5521,-3.5783,-3.6123,-3.6593,-3.709,-3.7847,-3.8819,-3.9764,-3.9599,-4.0383,-4.1376,-4.1738,-4.2128,-4.2598,-4.3303,-4.3912,-4.4362,-4.4626,-4.4487,-4.4152,-4.3797,-4.2911,-4.2213,-4.2774,-4.2886,-4.3108,-4.3797,-4.3797,-4.3466,-4.2997,-4.4153,-4.4675,-4.3065,-4.5364,-4.6493,-4.4939,-4.5576,-4.6241,-4.6712,-4.6102,-4.6049,-4.7075,-4.6681,-4.6669,-4.7641,-4.6358,-4.5414,-4.5278,-4.4755,-4.3974,-4.3184,-4.3381,-4.3468,-4.3468,-4.3709,-4.3927,-4.4189,-4.4189,-4.432,-4.4604,-4.4823,-4.491,-4.4932,-4.5129,-4.5216,-4.5238,-4.5522,-4.5609,-4.5653,-4.5915,-4.6002,-4.6002,0.0,0.0,0.0,0.0,0.0,0.0,0.0,0.0,0.0,0.0,-2.5746,-2.6086,-2.6164,-2.7549,0.0,0.0,0.0,0.0,0.0,0.0,-3.0973,-3.0973,-3.2515,-3.296,-3.2097,-3.3535,-3.4058,-3.3587,-3.4136,-3.4371,-3.4293,-3.4371,-3.4397,-3.4397,-3.4397,-3.4397,-3.4397,-3.4397,-3.4972,-3.5783,-3.4789,-3.4999,-3.5783,0.0,-3.4789,-3.5208,-3.5338,-3.6009,-3.691,-3.7599,-3.8658,-3.9599,-3.9407,-4.0285,-4.1428,-4.2105,-4.2315,-4.2603,-4.4228,-4.415,-4.3988,-4.4941,-4.3932,-4.2911,-4.3932,-4.2463,-4.1076,-4.2188,-4.255,-4.2662,-4.2886,-4.3577,-4.3932,-4.2774,-4.4433,-4.4568,-4.1219,-4.3675,-4.5013,-4.2616,-4.382,-4.5103,-4.5605,-4.4844,-4.4549,-4.5255,-4.5142,-4.5549,-4.676,-4.4503,-4.3697,-4.5028,-4.3902,-4.3272,-4.3272,-4.3731,-4.3949,-4.3971,-4.4386,-4.4626,-4.4692,-4.4692,-4.4713,-4.4801,-4.5216,-4.5412,-4.5434,-4.5828,-4.6002,-4.6002,-4.6002,-4.6002,-4.6002,-4.6002,-4.6002,-4.6002,0.0,0.0,0.0,0.0,0.0,0.0,0.0,0.0,0.0,0.0,-2.7183,-2.7419,0.0,0.0,0.0,0.0,0.0,0.0,0.0,0.0,0.0,-3.0973,-3.1731,-3.2515,-3.3273,-3.3587,-3.3692,-3.3587,-3.4136,-3.4162,-3.3744,-3.4188,-3.4397,-3.4397,-3.4397,-3.4397,-3.4397,-3.4397,-3.4502,-3.4685,-3.4476,-3.4528,-3.4737,-3.5025,0.0,0.0,-3.5626,-3.5852,-3.5923,-3.7416,-3.8658,-3.9407,-3.8481,-3.9668,-4.1227,-4.095,-4.1853,-4.3023,-4.3808,-4.3527,-4.3339,-4.4479,-4.3134,-4.1444,-4.1672,-4.0616,-3.9569,-3.9803,-4.0731,-4.1761,-4.2774,-4.2213,-4.1672,-4.1444,-4.1613,-4.156,-4.0854,-4.2942,-4.4147,-4.2949,-4.3456,-4.4094,-4.4758,-4.3961,-4.3863,-4.5142,-4.4228,-4.3697,-4.3974,-4.3441,-4.3302,-4.358,-4.3675,-4.3752,-4.3752,-4.4233,-4.4473,-4.4473,-4.4539,-4.4801,-4.5194,-4.5194,-4.5391,-4.5762,-4.5849,0.0,-4.5893,-4.5959,-4.6002,-4.6002,-4.6002,-4.6002,-4.6002,-4.6002,-4.6002,-4.6002,0.0,0.0,0.0,0.0,0.0,0.0,0.0,-2.8072,-2.8438,-2.8438,-2.8699,-2.8882,-2.8856,-2.9379,-2.9954,0.0,0.0,0.0,0.0,0.0,0.0,-3.0973,-3.1522,-3.2097,-3.2672,-3.3273,-3.3587,-3.3587,0.0,-3.411,-3.3613,-3.4136,-3.4241,-3.4005,-3.4267,-3.4397,-3.4397,-3.4397,-3.4397,-3.4397,-3.4397,-3.4397,-3.4424,0.0,0.0,0.0,-3.5678,-3.5989,-3.5904,-3.6801,-3.7756,-3.8579,-3.8063,-3.9044,-4.0466,-4.0509,-4.0827,-4.1594,-4.3384,-4.2924,-4.2213,-4.3466,-4.1874,-4.0268,-4.0985,-3.9592,-3.841,-3.9098,-3.9686,-4.0268,-4.0822,-4.1076,-4.087,-4.0268,-4.1022,-4.1341,-3.9893,-4.1729,-4.2939,-4.2073,-4.2436,-4.2929,-4.3444,-4.3294,-4.3441,-4.409,-4.358,-4.3184,-4.3184,-4.3403,-4.3534,-4.3534,-4.3993,-4.4233,-4.4233,-4.4713,-4.4976,-4.4976,-4.5216,-4.5456,-4.5675,-4.5675,-4.5806,-4.6002,-4.6002,-4.6002,-4.6002,-4.6002,-4.6002,-4.6002,-4.6002,-4.6002,-4.6002,-4.6002,-4.6155,-4.6374,0.0,0.0,0.0,0.0,0.0,0.0,0.0,-2.9065,-2.9405,-2.9301,-2.9666,-2.9771,-2.9327,-2.9797,-3.0372,0.0,0.0,0.0,0.0,0.0,0.0,0.0,0.0,0.0,0.0,0.0,0.0,-3.3587,-3.4136,0.0,0.0,0.0,0.0,0.0,-3.4031,-3.4293,-3.4397,-3.4397,-3.4397,0.0,0.0,-3.4397,0.0,0.0,0.0,0.0,0.0,-3.5745,-3.5838,-3.5931,-3.6649,-3.7568,-3.7568,-3.8314,-3.9283,-3.9643,-3.9623,-4.0026,-4.2474,-4.1929,-4.0961,-4.2213,-4.0592,-3.9098,-4.0384,-3.9003,-3.7736,-3.8648,-3.9072,-3.9354,-3.9239,-4.013,-4.0526,-3.9357,-4.0572,-4.0982,-3.9066,-4.0449,-4.164,-4.1198,-4.1481,-4.1918,-4.2529,-4.2857,-4.3053,-4.3163,-4.3272,-4.3316,-4.3316,-4.3665,-4.3905,-4.4014,-4.4495,-4.4757,-4.4757,-4.5216,-4.5456,-4.5478,-4.5828,-4.6002,-4.6002,-4.6002,-4.6002,-4.6002,-4.6002,-4.6002,-4.6002,-4.6002,-4.6002,-4.6002,-4.6002,-4.6068,-4.6155,-4.6155,-4.6461,-4.6898,0.0,0.0,0.0,0.0,0.0,0.0,0.0,-2.9693,-2.9876,-2.9353,-2.9327,-2.9327,-2.9301,-2.9797,-3.0372,0.0,0.0,0.0,0.0,0.0,0.0,0.0,0.0,0.0,0.0,0.0,0.0,-3.3587,-3.4136,0.0,0.0,0.0,0.0,0.0,0.0,-3.3927,-3.4397,-3.4397,0.0,0.0,0.0,0.0,0.0,0.0,0.0,0.0,0.0,-3.4765,-3.476,-3.4893,-3.5572,-3.6416,-3.6416,-3.7163,-3.7998,-3.7575,-3.8446,-3.9633,-4.0498,-4.0097,-3.9686,-4.0985,-3.9357,-3.7834,-3.9121,-3.8291,-3.7374,-3.7495,-3.8792,-3.979,-3.9308,-3.9748,-3.991,-3.9308,-3.8882,-3.8561,-3.8772,-3.9423,-4.0234,-4.1459,-4.1655,-4.207,-4.301,-4.2726,-4.2682,-4.3141,-4.3556,-4.3796,-4.3796,-4.384,-4.4058,-4.4517,-4.4997,-4.526,-4.526,-4.5718,-4.5937,-4.5937,-4.598,-4.6002,-4.6002,-4.6002,-4.6002,-4.6002,-4.6002,-4.6002,0.0,-4.6002,-4.6002,-4.6002,-4.6002,-4.6264,-4.6658,-4.6658,-4.6985,-4.7422,0.0,0.0,0.0,0.0,0.0,0.0,-2.9745,-2.998,-2.9797,-2.8856,-2.8752,-2.8752,-2.8752,-2.9274,-2.9849,-3.0424,0.0,0.0,0.0,0.0,0.0,0.0,0.0,0.0,0.0,0.0,-3.3221,-3.3587,-3.3796,0.0,0.0,0.0,0.0,0.0,0.0,-3.3901,-3.4397,-3.4397,0.0,0.0,0.0,0.0,0.0,0.0,0.0,0.0,0.0,0.0,-3.4529,-3.4314,-3.4501,-3.4816,-3.4497,-3.488,-3.5756,-3.7214,-3.7293,-3.7379,-3.9324,-3.8849,-3.8073,-3.9616,-3.8648,-3.7495,-3.7954,-3.7714,-3.7374,-3.7374,-3.8011,-3.8319,-3.8118,-3.823,-3.8439,-3.8096,-3.8133,-3.827,-3.8772,-3.9253,-4.0083,-4.1524,-4.1699,-4.2092,-4.3075,-4.2988,-4.3075,-4.3556,-4.3752,-4.4124,-4.4713,-4.4735,-4.4823,-4.5019,-4.5478,-4.5718,-4.5718,-4.5915,-4.6002,-4.6002,-4.6002,-4.6002,-4.6002,-4.6002,-4.6002,-4.6002,-4.6002,-4.6002,0.0,-4.6002,-4.6177,-4.6439,-4.6439,-4.6745,-4.7182,-4.7182,-4.7488,-4.7903,0.0,0.0,0.0,0.0,0.0,-3.0085,-2.9902,-2.9876,-2.9457,-2.8281,-2.8124,-2.8203,-2.836,-2.8908,-2.951,-3.0085,-3.066,0.0,0.0,0.0,0.0,0.0,0.0,0.0,0.0,0.0,-3.2829,-3.3587,-3.3404,-3.2803,0.0,0.0,-3.2698,-3.2725,0.0,0.0,0.0,0.0,0.0,0.0,0.0,0.0,0.0,0.0,0.0,0.0,0.0,0.0,0.0,0.0,0.0,-3.3617,-3.3414,-3.3612,-3.4207,-3.6264,-3.6135,-3.5597,-3.7715,-3.7428,-3.6824,-3.8095,-3.7762,-3.7003,-3.7134,-3.7068,-3.6959,-3.6959,-3.7178,-3.7374,-3.7374,-3.7505,-3.7593,-3.7593,-3.7767,-3.8117,-3.875,-3.9122,-3.993,-4.1503,-4.1699,-4.2092,-4.3075,-4.3294,-4.3468,-4.3643,-4.4058,-4.4582,-4.5281,-4.5456,-4.5522,-4.5522,-4.5828,-4.6002,-4.6002,-4.6002,-4.6002,-4.6002,-4.6002,-4.6002,-4.6002,-4.6002,-4.6002,-4.6002,-4.6002,-4.609,0.0,-4.6221,-4.6505,-4.6963,-4.6963,-4.7247,-4.7684,-4.7684,-4.799,-4.8383,0.0,0.0,0.0,0.0,0.0,0.0,-2.9379,-2.9301,-2.8856,-2.7706,-2.7549,-2.7758,-2.8307,-2.8908,-2.951,-3.0085,-3.066,0.0,0.0,0.0,0.0,0.0,0.0,0.0,0.0,0.0,-3.2411,-3.3587,-3.2986,-3.2411,-3.1785,-3.2437,-3.2698,-3.2725,0.0,0.0,0.0,0.0,0.0,0.0,0.0,0.0,-3.3043,0.0,0.0,0.0,0.0,0.0,0.0,0.0,0.0,0.0,0.0,-3.396,-3.3901,-3.4382,-3.484,-3.5212,-3.5212,-3.5583,-3.6085,-3.6588,-3.6347,-3.6107,-3.6588,-3.6326,-3.5976,-3.5976,-3.6719,-3.7374,-3.7374,-3.7767,-3.8095,-3.8095,-3.7702,-3.7724,-3.8707,-3.8838,-3.9558,-4.1459,-4.1699,-4.2092,-4.3075,-4.3578,-4.3665,-4.3228,-4.4495,0.0,-4.5325,-4.574,-4.6002,-4.6002,-4.6002,-4.6002,-4.6002,-4.6002,-4.6002,-4.6002,-4.6002,-4.6002,-4.6002,-4.6002,-4.6002,-4.6002,-4.6002,-4.6264,0.0,-4.6723,-4.7029,-4.7488,-4.7488,-4.7772,-4.8165,-4.8165,-4.8471,-4.8886,0.0,0.0,0.0,0.0,0.0,0.0,0.0,-2.9876,-2.9431,-2.8255,-2.8124,-2.8177,-2.836,-2.8908,-2.951,-3.0085,-3.066,0.0,0.0,0.0,0.0,0.0,0.0,0.0,0.0,-3.2515,-3.2594,-3.2986,-3.2385,-3.2019,-3.1759,-3.2019,-3.2542,-3.33,-3.3509,-3.3901,0.0,0.0,0.0,0.0,0.0,-3.325,-3.2932,0.0,0.0,0.0,0.0,0.0,0.0,0.0,0.0,0.0,0.0,0.0,0.0,-3.3792,-3.436,-3.4818,-3.5124,-3.5321,-3.5561,-3.6063,-3.6085,-3.5998,-3.6151,-3.6085,-3.5976,-3.5976,-3.6195,-3.661,-3.7265,-3.7243,-3.7352,-3.8008,-3.7702,-3.7724,-3.8707,-3.8838,-3.9537,-4.1459,-4.2289,-4.2835,-4.3141,-4.3599,-4.3949,-4.4124,-4.4866,-4.5456,-4.5762,-4.5915,-4.6002,-4.6002,-4.6002,-4.6002,-4.6002,-4.6002,-4.6002,-4.6002,-4.6002,-4.6002,-4.6002,-4.6002,-4.6002,-4.6024,-4.6352,-4.6592,-4.6767,-4.7094,-4.7531,-4.7946,-4.7946,-4.8252,-4.8667,-4.8667,-4.8776,-4.8907,0.0,0.0,0.0,0.0,0.0,0.0,0.0,-3.0137,-2.9797,-2.8856,-2.8726,-2.8804,-2.9013,-2.9379,-2.9823,-3.0398,-3.079,0.0,0.0,0.0,0.0,0.0,0.0,0.0,-3.2672,-3.2489,-3.2463,-3.2698,-3.2123,-3.1967,-3.2176,-3.2385,-3.2881,-3.3613,-3.3796,-3.4084,0.0,0.0,0.0,0.0,-3.3784,-3.3335,-3.2821,0.0,0.0,0.0,0.0,0.0,0.0,0.0,0.0,0.0,0.0,0.0,0.0,0.0,-3.3726,-3.436,-3.4818,-3.4949,-3.5059,-3.5561,-3.5539,-3.5474,-3.5648,-3.5539,-3.5474,-3.5648,-3.5845,-3.626,-3.7199,-3.7156,-3.7199,-3.7986,-3.7702,-3.7724,-3.8707,-3.8838,-3.9537,-4.1459,-4.2573,-4.325,-4.3425,-4.3862,-4.4342,-4.4823,-4.5303,-4.5696,-4.598,-4.6002,-4.6002,-4.6002,-4.6002,-4.5915,-4.574,-4.5915,-4.6002,-4.6002,-4.6002,-4.6002,-4.6002,-4.6002,-4.6111,-4.6286,-4.6592,-4.6942,0.0,-4.7619,-4.8034,-4.8449,-4.8449,-4.8645,-4.8907,-4.8907,-4.8907,-4.8907,0.0,0.0,0.0,0.0,0.0,0.0,0.0,-3.0189,-2.998,-2.9405,-2.9353,-2.9536,-3.0032,-3.0085,-3.032,-3.0921,0.0,0.0,0.0,0.0,0.0,0.0,0.0,0.0,-3.2751,-3.2202,-3.2176,-3.2751,-3.2176,-3.2202,-3.2777,-3.3326,-3.3613,-3.3666,-3.4162,-3.4397,0.0,0.0,0.0,0.0,-3.4314,-3.3784,0.0,0.0,0.0,0.0,0.0,0.0,0.0,0.0,0.0,0.0,0.0,0.0,0.0,0.0,0.0,0.0,0.0,-3.4491,-3.4622,-3.5059,-3.484,-3.4622,-3.5059,-3.4862,0.0,-3.5124,-3.5605,-3.626,-3.7199,-3.7352,-3.7505,-3.8029,-3.7724,-3.7767,-3.8707,-3.8947,-3.9711,-4.1524,-4.2595,-4.3359,-4.3818,-4.4298,-4.4801,-4.5281,-4.574,-4.6002,-4.6002,-4.6002,-4.598,-4.5959,-4.598,-4.5806,-4.5369,-4.5784,-4.6002,-4.6002,-4.6002,-4.6002,-4.6002,-4.6024,-4.6308,0.0,-4.681,-4.7335,-4.8165,-4.8208,-4.8492,-4.8907,-4.8907,-4.8907,-4.8907,-4.8907,-4.8907,-4.8907,0.0,0.0,0.0,0.0,0.0,0.0,0.0,0.0,0.0,0.0,-2.9928,-2.9823,-2.951,-2.9483,-2.9876,0.0,0.0,0.0,0.0,0.0,0.0,0.0,0.0,0.0,-3.3378,-3.2803,-3.2777,-3.3378,-3.2777,-3.2803,-3.3378,-3.3535,-3.3822,-3.4214,-3.4345,-3.4397,0.0,0.0,0.0,0.0,-3.359,-3.2796,0.0,0.0,0.0,0.0,-2.9714,-2.9415,0.0,0.0,0.0,0.0,0.0,0.0,0.0,0.0,-3.2547,-3.2896,-3.3748,0.0,-3.4556,-3.4666,-3.46,-3.4556,0.0,-3.4862,-3.5081,-3.519,-3.5605,-3.626,-3.7199,-3.709,-3.7134,-3.7964,-3.8008,-3.8139,-3.875,-4.0083,-4.1328,-4.2158,-4.2791,-4.3359,-4.3818,-4.4298,-4.4801,-4.5281,-4.574,-4.6002,-4.6002,-4.6002,-4.5849,-4.55,-4.5806,-4.5959,-4.5849,-4.5937,-4.6002,-4.6002,-4.6002,-4.6002,-4.6024,-4.6395,-4.6614,-4.6767,-4.7509,-4.7968,-4.8208,-4.858,-4.8798,-4.8907,-4.8907,-4.8907,-4.8907,-4.8907,-4.8907,-4.8907,0.0,0.0,0.0,0.0,0.0,0.0,0.0,0.0,0.0,0.0,0.0,-3.0006,-2.9719,-2.9431,0.0,0.0,0.0,0.0,0.0,0.0,0.0,0.0,0.0,-3.2855,-3.3169,-3.2855,-3.2986,-3.3587,-3.3273,-3.3404,-3.3953,-3.354,-3.3669,-3.4397,-3.4397,-3.4397,0.0,0.0,0.0,-3.37,-3.3164,0.0,0.0,0.0,0.0,0.0,-2.9139,-2.9117,0.0,-2.9445,-2.951,-2.9576,0.0,0.0,0.0,0.0,-3.2022,-3.2503,-3.3005,-3.3661,-3.425,-3.4469,-3.4534,-3.4534,-3.4534,-3.4884,-3.5277,-3.5496,-3.5954,-3.6522,-3.7243,-3.7178,-3.7178,-3.768,-3.7964,-3.8423,-3.9362,-4.076,-4.1874,-4.2354,-4.3053,-4.3687,0.0,-4.4648,-4.5129,-4.5609,-4.5849,-4.6002,-4.6002,-4.6002,-4.5893,-4.5631,-4.5871,-4.5893,-4.5696,-4.5893,-4.6002,-4.6002,-4.6002,-4.6002,-4.6024,-4.6505,-4.6854,-4.7116,-4.7859,-4.8296,-4.8536,-4.8798,-4.8907,-4.8907,-4.8907,-4.8907,-4.8907,-4.8907,-4.8907,-4.8907,0.0,0.0,0.0,0.0,0.0,0.0,0.0,0.0,0.0,0.0,0.0,0.0,0.0,0.0,0.0,0.0,0.0,0.0,0.0,0.0,0.0,0.0,-3.2777,-3.2829,-3.2829,-3.2829,-3.3036,-3.3554,-3.3636,-3.3762,-3.3953,-3.3335,-3.342,-3.423,-3.423,-3.4314,-3.4397,0.0,-3.37,-3.2993,-3.2796,0.0,0.0,0.0,0.0,0.0,0.0,0.0,0.0,-2.8986,-2.9095,-2.9379,-2.9467,0.0,0.0,0.0,0.0,0.0,-3.2372,-3.3027,-3.3814,-3.4294,-3.4469,-3.4534,-3.4622,-3.4993,-3.5474,-3.5976,-3.6457,-3.6915,-3.7309,-3.7374,-3.7396,-3.7483,-3.7964,-3.8838,-4.0301,-4.1175,-4.1896,-4.2464,-4.3316,0.0,-4.4539,-4.5041,-4.55,-4.5959,-4.6002,-4.6002,-4.6002,-4.6002,-4.6002,-4.6002,-4.6002,-4.5806,-4.5434,-4.5806,-4.6002,-4.6002,-4.6002,-4.6046,-4.6133,-4.6614,-4.7116,-4.7619,-4.8077,0.0,-4.8907,-4.8907,-4.8907,-4.8907,-4.8907,-4.8907,-4.8907,-4.8907,-4.8907,-4.8907,0.0,0.0,0.0,0.0,0.0,0.0,0.0,0.0,0.0,0.0,0.0,0.0,0.0,0.0,0.0,0.0,0.0,0.0,0.0,0.0,0.0,-3.2698,-3.3169,-3.3456,-3.3456,-3.3456,-3.3364,-3.3123,-3.3933,-3.3513,-3.2016,-3.2735,-3.3079,-3.325,-3.325,-3.37,-3.4314,-3.3505,-3.3164,-3.2907,-3.2103,0.0,0.0,0.0,0.0,0.0,0.0,0.0,0.0,-2.9248,-2.9139,-2.8943,-2.9358,0.0,0.0,0.0,0.0,0.0,-3.2263,-3.2765,-3.3289,-3.3792,-3.4229,-3.4622,-3.5015,-3.5496,-3.5998,-3.6479,-3.6959,-3.7287,-3.7374,-3.7374,-3.7505,-3.792,-3.875,-3.9821,-4.1284,-4.159,-4.2027,-4.2944,0.0,-4.4058,-4.4539,-4.5041,-4.55,-4.5959,-4.6002,-4.6002,-4.6002,-4.6002,-4.6002,-4.6002,-4.6002,-4.5959,-4.5893,-4.5959,-4.6002,-4.6002,-4.6002,-4.6221,-4.6636,-4.7138,-4.7619,-4.8099,0.0,-4.8842,-4.8907,-4.8907,-4.8907,-4.8907,-4.8907,-4.8907,-4.8907,-4.8907,-4.8907,-4.8907,0.0,0.0,0.0,0.0,0.0,0.0,0.0,0.0,0.0,0.0,0.0,0.0,0.0,0.0,0.0,0.0,0.0,0.0,0.0,0.0,-3.1939,-3.2672,-3.2735,-3.2644,-3.2337,-3.2644,-3.2634,-3.2277,-3.271,-3.2451,-3.1577,-3.2016,-3.1928,-3.1488,-3.2016,-3.2451,-3.2907,-3.2451,-3.1928,-3.1488,0.0,0.0,0.0,0.0,0.0,0.0,0.0,0.0,0.0,0.0,-2.8943,-2.879,-2.9008,0.0,0.0,0.0,0.0,0.0,-3.2175,-3.2721,-3.318,-3.3683,-3.4338,-3.4949,-3.5168,-3.5801,-3.6435,-3.6653,-3.7046,-3.7374,-3.7374,-3.7593,-3.8008,-3.8772,-3.9471,-4.0345,-4.1524,-4.1918,-4.2354,0.0,0.0,-4.4342,-4.4561,-4.526,-4.5784,-4.598,-4.6002,-4.6002,-4.6002,-4.6002,-4.6002,-4.6002,-4.6002,-4.6002,-4.6002,-4.6002,-4.6002,-4.6002,-4.6002,-4.6264,-4.6745,-4.7247,-4.775,-4.8208,0.0,-4.8907,-4.8907,-4.8907,-4.8907,-4.8907,-4.8907,-4.8907,-4.8907,-4.8907,-4.8907,-4.8907,0.0,0.0,0.0,0.0,0.0,0.0,0.0,0.0,0.0,0.0,0.0,0.0,0.0,0.0,0.0,0.0,0.0,0.0,0.0,-3.0573,-3.1448,-3.2329,-3.2092,-3.1705,-3.1279,-3.1763,-3.1798,-3.1223,-3.1488,-3.1488,-3.1223,-3.1045,-3.0687,-3.026,-3.0956,-3.14,-3.1577,-3.14,-3.0866,-3.017,0.0,0.0,0.0,0.0,0.0,0.0,0.0,0.0,0.0,0.0,0.0,0.0,0.0,0.0,0.0,-3.01,-3.0624,-3.1258,-3.2154,-3.2721,-3.3202,-3.3814,-3.46,-3.5233,-3.5364,-3.6063,-3.6719,-3.6828,-3.7134,-3.7418,-3.7527,-3.8029,-3.8685,-3.9427,-4.0061,-4.0738,-4.1568,-4.2114,-4.2638,-4.3272,-4.408,-4.4626,-4.4757,-4.55,-4.6002,-4.6002,-4.6002,-4.6002,-4.6002,-4.6002,-4.6002,-4.6002,-4.6002,-4.6002,-4.6002,-4.6002,-4.6002,-4.6002,-4.6111,-4.6439,-4.692,-4.7422,-4.7903,-4.8361,-4.8733,-4.8907,-4.8907,-4.8907,-4.8907,-4.8907,-4.8907,-4.8907,-4.8907,-4.8907,-4.8907,-4.8907,0.0,0.0,0.0,0.0,0.0,0.0,0.0,0.0,0.0,0.0,0.0,0.0,0.0,0.0,0.0,0.0,0.0,0.0,0.0,-2.9106,-2.9493,-3.1367,-3.1386,-3.1304,-3.1254,-3.1516,-3.1199,-3.026,-3.1134,-3.1134,-3.026,-2.9371,-2.9463,-3.017,-3.026,-3.0777,-3.1577,-3.0687,-3.026,-3.0079,-2.9301,0.0,0.0,0.0,0.0,0.0,0.0,0.0,0.0,0.0,0.0,0.0,0.0,0.0,-3.0166,-3.0209,-3.0865,-3.1695,-3.2241,-3.2721,-3.3289,-3.4229,-3.484,-3.5321,-3.5801,-3.6326,-3.6806,-3.7243,-3.7352,-3.7505,-3.7964,-3.8816,-3.9471,-3.9537,-4.0345,-4.1131,-4.1612,0.0,-4.2769,-4.3709,-4.4277,-4.4757,-4.5216,-4.5718,-4.6002,-4.6002,-4.6002,-4.6002,-4.6002,-4.6002,-4.6002,-4.6002,-4.6002,-4.6002,-4.6002,-4.6002,-4.6002,-4.6002,-4.6461,-4.6942,-4.7444,-4.7903,-4.8383,-4.8842,-4.8886,-4.8907,-4.8907,-4.8907,-4.8907,-4.8907,-4.8907,-4.8907,-4.8907,-4.8907,-4.8907,-4.8907,0.0,0.0,0.0,0.0,0.0,0.0,0.0,0.0,0.0,0.0,0.0,0.0,0.0,0.0,0.0,0.0,0.0,0.0,0.0,-2.8373,-2.8943,-3.1286,-3.0264,-2.9593,-2.9593,-3.0349,-3.026,-2.9371,-2.9624,-2.9646,-2.9279,-2.8932,-2.9024,-2.9371,-2.9371,-2.9555,-2.9829,-2.9463,-2.9371,-2.9279,-2.8932,-2.8746,0.0,0.0,0.0,0.0,0.0,0.0,0.0,0.0,-2.8746,-2.8746,-2.8746,-2.9226,-2.9816,-3.0122,-3.0668,-3.1411,-3.2503,-3.294,-3.3377,-3.4644,-3.5321,-3.5801,-3.6304,-3.6784,-3.7178,-3.7352,-3.7374,-3.7614,-3.8401,-3.91,-3.9755,-4.0367,-4.1,-4.159,-4.207,-4.2573,-4.3141,-4.3774,-4.4298,-4.4779,-4.526,-4.574,-4.6002,-4.6002,-4.6002,-4.6002,-4.6002,-4.6002,-4.6002,-4.6002,-4.6002,-4.6002,-4.6002,-4.6002,-4.6155,-4.6461,-4.6636,-4.7138,-4.7924,-4.8099,-4.8449,-4.8907,-4.8907,-4.8907,-4.8907,-4.8907,-4.8907,-4.8907,-4.8907,-4.8907,-4.8907,-4.8907,-4.8907,-4.8907,0.0,0.0,0.0,0.0,0.0,0.0,0.0,0.0,0.0,0.0,0.0,0.0,0.0,0.0,0.0,0.0,0.0,0.0,-2.8116,-2.7775,-2.8363,-3.044,-2.9338,-2.8505,-2.8158,-2.9218,-2.9463,-2.8746,-2.8746,-2.8746,-2.8746,-2.8746,-2.8746,-2.8746,-2.8746,-2.8746,-2.8746,-2.8746,-2.8746,-2.8746,-2.8746,-2.8746,0.0,0.0,0.0,0.0,0.0,0.0,0.0,0.0,-2.8746,-2.8746,-2.8746,-2.9205,-2.9773,-3.0122,-3.0756,-3.1607,-3.2765,-3.3289,-3.3835,-3.5124,-3.5823,-3.6326,-3.6806,-3.7156,-3.7374,-3.7374,-3.7614,-3.8095,-3.8903,-3.958,-4.0236,-4.0891,-4.1524,-4.2027,-4.2376,-4.2857,-4.3403,-4.4014,-4.4386,-4.4845,-4.5478,-4.5806,-4.6002,-4.6002,-4.6002,-4.6002,-4.6002,-4.6002,-4.6002,-4.6002,-4.6002,-4.6002,-4.6002,-4.6155,-4.6483,-4.6963,-4.7116,-4.7531,-4.8187,-4.8339,-4.858,-4.8907,-4.8907,-4.8907,-4.8907,-4.8907,-4.8907,-4.8907,-4.8907,-4.8907,-4.8907,-4.8907,-4.8907,-4.8907,0.0,0.0,0.0,0.0,0.0,0.0,0.0,0.0,0.0,0.0,0.0,0.0,0.0,0.0,0.0,0.0,0.0,0.0,-2.7174,-2.7244,-2.7621,-2.8694,-2.8654,-2.8158,-2.7304,-2.8265,-2.8746,-2.8746,-2.8746,-2.8746,-2.8746,-2.8746,-2.8746,-2.8746,-2.8746,-2.8746,-2.8746,-2.8746,-2.8746,-2.8746,-2.8746,-2.8746,-2.8746,0.0,0.0,0.0,0.0,0.0,0.0,0.0,-2.8746,-2.8746,-2.8746,-2.9423,-3.0209,-3.0209,-3.1236,-3.2481,-3.294,-3.3792,-3.4753,-3.5736,-3.6326,-3.6806,-3.7265,-3.7374,-3.7396,-3.7396,-3.816,-3.8991,-3.9471,-4.0345,-4.1,-4.1022,-4.1808,-4.242,-4.242,-4.2857,-4.3534,-4.4473,-4.4604,-4.4976,-4.5915,-4.6002,-4.6002,-4.6002,-4.6002,-4.6002,-4.6002,-4.6002,-4.6002,-4.6002,-4.6002,-4.6002,-4.6002,-4.6483,-4.6985,-4.7509,-4.7946,-4.8165,-4.8187,-4.8689,-4.8907,-4.8907,-4.8907,-4.8907,-4.8907,-4.8907,-4.8907,-4.8907,-4.8907,-4.8907,-4.8907,-4.8907,-4.8907,-4.8907,0.0,0.0,0.0,0.0,0.0,0.0,0.0,0.0,0.0,0.0,0.0,0.0,0.0,0.0,0.0,0.0,0.0,0.0,-2.6668,-2.6513,-2.6903,-2.8165,-2.7577,-2.7238,-2.7304,-2.8265,-2.8746,-2.8746,-2.8746,-2.8746,-2.8746,-2.8746,-2.8746,-2.8746,-2.8746,-2.8746,-2.8746,-2.8746,-2.8746,-2.8746,-2.8746,-2.8746,-2.8746,0.0,0.0,0.0,0.0,0.0,0.0,0.0,0.0,0.0,-2.8746,-2.9423,-3.0209,-3.0209,-3.1236,-3.2481,-3.294,-3.3792,-3.4753,-3.5736,-3.6326,-3.6806,-3.7265,-3.7636,-3.7986,-3.8335,-3.8903,-3.9384,-3.9515,-4.0345,-4.1109,-4.1437,-4.2005,-4.2551,-4.29,-4.3359,-4.3883,-4.4517,-4.4888,-4.5347,-4.5937,-4.6002,-4.6002,-4.6002,-4.6002,-4.6002,-4.6002,-4.6002,-4.6002,-4.6002,-4.6002,-4.6177,-4.6505,-4.6658,-4.7138,-4.7968,-4.8099,-4.8361,-4.8689,-4.8842,-4.8907,-4.8907,-4.8907,-4.8907,-4.8907,-4.8907,-4.8907,-4.8907,-4.8907,-4.8907,-4.8907,-4.8907,-4.8907,-4.8907,0.0,0.0,0.0,0.0,0.0,0.0,0.0,0.0,-2.3272,-2.3308,-2.3026,-2.2927,0.0,0.0,0.0,-2.3001,-2.3722,-2.4679,-2.5984,-2.5754,-2.6157,-2.7392,-2.6863,-2.6933,-2.7588,-2.8178,-2.8571,-2.8746,-2.8746,-2.8746,-2.8746,-2.8746,-2.8746,-2.8746,-2.8746,-2.8746,-2.8746,-2.8746,-2.8746,-2.8746,-2.8746,-2.8746,-2.8746,0.0,0.0,0.0,0.0,0.0,0.0,0.0,0.0,0.0,-2.8746,-2.9292,-2.9969,-3.0166,-3.1236,-3.2481,-3.294,-3.4054,-3.5233,-3.5823,-3.6457,-3.709,-3.7571,-3.7898,-3.8248,-3.8728,-3.9209,-3.9668,-4.0061,-4.076,0.0,-4.1896,-4.2398,-4.2835,-4.3141,-4.3578,-4.4036,-4.4539,-4.5019,-4.55,-4.5959,-4.6002,-4.6002,-4.6002,-4.6002,-4.6002,-4.6002,-4.6002,-4.6002,-4.6002,-4.6177,-4.6439,-4.6723,-4.7116,-4.7597,-4.8165,-4.8361,-4.8623,-4.8907,-4.8907,-4.8907,-4.8907,-4.8907,-4.8907,-4.8907,-4.8907,-4.8907,-4.8907,-4.8907,-4.8907,-4.8907,-4.8907,-4.8907,-4.8907,0.0,0.0,0.0,0.0,0.0,0.0,0.0,-2.3012,-2.3033,-2.2832,-2.2724,-2.2777,0.0,0.0,0.0,-2.3001,-2.3438,-2.4115,-2.5054,-2.5142,-2.5579,-2.6518,-2.6519,-2.6933,-2.7894,-2.7913,-2.8244,-2.868,-2.8724,-2.8746,-2.8746,-2.8746,-2.8746,-2.8746,-2.8746,-2.8746,-2.8746,-2.8746,-2.8746,-2.8746,-2.8746,-2.8746,-2.8746,-2.8746,0.0,0.0,0.0,0.0,0.0,0.0,0.0,0.0,-2.8746,-2.9095,-2.948,-3.0078,-3.1214,-3.2437,-3.2918,-3.4425,-3.5867,-3.5954,-3.6675,-3.7505,-3.7942,-3.8117,-3.8313,-3.8794,-3.9274,-3.9908,-4.0825,-4.1371,-4.1852,-4.2333,-4.2857,-4.3184,-4.3184,-4.3621,-4.4102,-4.4539,-4.5063,-4.5544,-4.5959,-4.6002,-4.6002,-4.6002,-4.6002,-4.6002,-4.6002,-4.6002,-4.6024,-4.6068,-4.6505,-4.6767,-4.6854,-4.7728,-4.8187,-4.8252,-4.8689,-4.8907,-4.8907,-4.8907,-4.8907,-4.8907,-4.8907,-4.8907,-4.8907,-4.8907,-4.8907,-4.8907,-4.8907,-4.8907,-4.8907,-4.8907,-4.8907,-4.8907,0.0,0.0,0.0,0.0,0.0,0.0,-2.3864,-2.3276,-2.2928,-2.3208,-2.294,-2.2777,-2.3001,-2.3001,0.0,-2.3001,-2.3438,-2.3984,-2.4596,-2.4967,-2.5426,-2.6037,-2.6259,-2.6541,-2.6933,-2.7475,-2.7909,-2.82,-2.8571,-2.8746,-2.8746,-2.8746,-2.8746,-2.8746,-2.8746,-2.8746,-2.8746,-2.8746,-2.8746,-2.8746,-2.8746,-2.8746,-2.8746,-2.8746,-2.8746,0.0,0.0,0.0,0.0,0.0,0.0,0.0,-2.8488,-2.8623,-2.9,-2.9667,-3.0651,-3.1793,-3.2831,-3.3923,-3.5015,-3.578,-3.6675,-3.7396,-3.7505,-3.8117,-3.8816,-3.9296,-3.9777,-4.0301,-4.0891,-4.1371,-4.1852,-4.2333,-4.2857,-4.3184,-4.3184,-4.3905,-4.4473,-4.4582,-4.5347,-4.5893,-4.6002,-4.6002,-4.6002,-4.6002,-4.6002,-4.6002,-4.6002,-4.6002,-4.6177,-4.657,-4.6679,-4.7094,-4.7859,-4.8077,-4.8361,-4.8755,-4.8842,-4.8907,-4.8907,-4.8907,-4.8907,-4.8907,-4.8907,-4.8907,-4.8907,-4.8907,-4.8907,-4.8907,-4.8907,-4.8907,-4.8907,-4.8907,-4.8907,-4.8907,0.0,0.0,0.0,0.0,0.0,0.0,0.0,0.0,-2.3154,-2.2871,-2.2551,-2.2478,-2.2703,-2.2703,0.0,0.0,-2.294,-2.3285,-2.3781,-2.4393,-2.506,-2.5695,-2.5892,-2.613,-2.6455,-2.6756,-2.7119,-2.7865,-2.8012,-2.8343,-2.8746,-2.8675,-2.8675,-2.8746,-2.8675,-2.8675,-2.8746,-2.8675,-2.8675,-2.8746,-2.8746,-2.8768,-2.8581,-2.8581,-2.856,-2.8373,-2.8395,0.0,0.0,0.0,0.0,0.0,0.0,0.0,-2.8508,-2.9385,-3.0135,-3.1051,-3.2531,-3.3442,-3.4458,-3.5765,-3.6731,-3.7374,-3.7374,-3.8139,-3.8903,-3.9165,-3.9777,-4.0498,-4.1197,-4.1524,-4.1939,-4.266,-4.301,-4.325,-4.3468,-4.4124,-4.467,-4.491,-4.5565,-4.6002,-4.6002,-4.6002,-4.6002,-4.6002,-4.6002,-4.6002,-4.6002,-4.6002,-4.6221,-4.6723,-4.6963,-4.7444,-4.8165,-4.8405,-4.8645,-4.8907,-4.8907,-4.8907,-4.8907,-4.8907,-4.8907,-4.8907,-4.8907,-4.8907,-4.8907,-4.8907,-4.8907,-4.8907,-4.8907,-4.8907,-4.8907,-4.8907,-4.8907,-4.8907,0.0,0.0,0.0,0.0,0.0,0.0,0.0,0.0,0.0,-2.2268,-2.2101,-2.2176,-2.2402,-2.2402,-2.2402,0.0,0.0,0.0,-2.3083,-2.3853,-2.4643,-2.5527,-2.5486,-2.5658,-2.6152,-2.5957,-2.6427,-2.7554,-2.7345,-2.7714,-2.8653,-2.8395,-2.8488,-2.8653,-2.8395,-2.8488,-2.8653,-2.8395,-2.8488,-2.8653,-2.8653,-2.8581,-2.8301,-2.8301,-2.8186,-2.7998,-2.8207,-2.8301,-2.8301,-2.8301,0.0,0.0,0.0,0.0,-2.8094,-2.9027,-2.96,-3.0317,-3.2126,-3.3351,-3.4375,-3.5672,-3.672,-3.7374,-3.7374,-3.8139,-3.8838,-3.8838,-3.9602,-4.0563,-4.1524,-4.1699,-4.2005,-4.301,-4.3184,-4.3337,-4.3796,-4.4277,-4.4757,-4.526,-4.5718,-4.6002,-4.6002,-4.6002,-4.6002,-4.6002,-4.6002,-4.6002,-4.6002,-4.609,-4.6352,-4.6854,-4.7335,-4.7837,-4.8296,-4.8711,-4.8907,-4.8907,-4.8907,-4.8907,-4.8907,-4.8907,-4.8907,-4.8907,-4.8907,-4.8907,-4.8907,-4.8907,-4.8907,-4.8907,-4.8907,-4.8907,-4.8907,-4.8907,-4.8907,-4.8907,0.0,0.0,0.0,0.0,0.0,0.0,0.0,0.0,0.0,0.0,-2.2101,-2.2176,-2.2402,-2.2402,-2.2402,-2.2402,-2.2402,-2.2594,-2.3083,0.0,0.0,-2.5274,-2.5126,-2.5232,-2.5656,-2.5614,-2.6101,-2.7101,-2.7034,-2.7366,-2.8092,-2.8092,-2.8092,-2.8092,-2.8092,-2.8092,-2.8092,-2.8092,-2.8092,-2.8092,-2.8092,-2.8092,-2.8092,-2.8092,-2.7998,-2.7998,-2.7831,-2.7809,-2.7998,-2.7809,-2.7736,0.0,0.0,0.0,-2.7619,-2.8733,-2.9147,-2.9589,-3.1721,-3.3711,-3.522,-3.5179,-3.6242,-3.7253,-3.7032,-3.7892,-3.8838,-3.8838,-3.9602,-4.0563,-4.1524,-4.1699,-4.2005,-4.301,-4.3184,-4.3337,-4.3796,-4.4277,-4.4757,-4.526,-4.5718,-4.6002,-4.6002,-4.6002,-4.6002,-4.6002,-4.6002,-4.6002,-4.6002,-4.6395,-4.6854,-4.7378,-4.7837,-4.8318,-4.8798,-4.8864,-4.8907,-4.8907,-4.8907,-4.8907,-4.8907,-4.8907,-4.8907,-4.8907,-4.8907,-4.8907,-4.8907,-4.8907,-4.8907,-4.8907,-4.8907,-4.8907,-4.8907,-4.8907,-4.8907,-4.8907,0.0,0.0,0.0,0.0,0.0,0.0,0.0,0.0,0.0,0.0,0.0,-2.1949,-2.2025,-2.2025,-2.2025,-2.2025,-2.2025,-2.2415,-2.3308,-2.3731,-2.428,-2.4999,-2.4956,-2.5041,-2.5211,-2.5081,-2.5417,-2.6232,-2.6088,-2.6334,-2.6844,-2.7117,-2.7462,-2.7998,-2.7809,-2.7809,-2.7998,-2.7809,-2.7904,-2.7998,-2.7998,-2.7904,-2.7809,-2.7809,-2.7715,-2.762,-2.7641,-2.7715,-2.7715,-2.7641,-2.7641,-2.7547,-2.7452,0.0,0.0,0.0,-2.8598,-2.9203,-3.1186,-3.3098,-3.459,-3.4774,-3.5648,-3.6445,-3.6603,-3.7305,-3.7863,-3.8143,-3.8744,-3.9844,-4.1459,-4.1699,-4.2005,-4.2709,-4.3023,-4.3337,-4.3512,-4.4133,-4.4634,-4.4966,-4.557,-4.5853,-4.5704,-4.5853,-4.6002,-4.6002,-4.6002,-4.6002,-4.6002,-4.6461,-4.6963,-4.7466,-4.7636,-4.8091,-4.8886,-4.8749,-4.8749,-4.8907,-4.8907,-4.8749,-4.8591,-4.8591,-4.8749,-4.8907,-4.8907,-4.8907,-4.8907,-4.8907,-4.8907,-4.8907,-4.8907,-4.8907,-4.8907,-4.8591,-4.8591,-4.8591,0.0,0.0,0.0,0.0,0.0,0.0,0.0,0.0,0.0,0.0,0.0,-2.2108,-2.2004,0.0,0.0,0.0,-2.1797,-2.2268,-2.3363,-2.3531,-2.3949,-2.4744,-2.4786,-2.4871,-2.4871,-2.4615,-2.4843,-2.5564,-2.5321,-2.5461,-2.5896,-2.6227,-2.6827,-2.764,-2.7579,-2.762,-2.7809,-2.7641,-2.762,-2.7809,-2.7809,-2.7715,-2.7547,-2.7547,-2.7514,-2.7427,-2.7619,-2.7714,-2.7714,-2.7714,-2.763,-2.7547,-2.7357,-2.7262,0.0,0.0,0.0,-2.927,-3.0657,-3.228,-3.3692,-3.4169,-3.5036,-3.5848,-3.6194,-3.6639,-3.7189,0.0,-3.8103,-3.9,-4.071,-4.1255,-4.1575,-4.2118,-4.2548,-4.2764,-4.3064,-4.3738,-4.4192,-4.4503,-4.5274,-4.5555,-4.5405,-4.5555,-4.5704,-4.5853,-4.5704,-4.5704,-4.5704,-4.6268,-4.6789,-4.7158,-4.7432,-4.7906,-4.8569,-4.8251,-4.8251,-4.8749,-4.8569,-4.841,-4.8092,-4.8092,-4.8251,-4.8569,-4.8569,-4.8569,-4.8569,-4.8569,-4.8569,-4.8749,-4.8591,-4.8569,-4.8749,-4.8251,-4.8092,-4.8092,0.0,0.0,0.0,0.0,0.0,0.0,0.0,0.0,0.0,0.0,0.0,-2.2956,-2.2501,-2.2459,-2.2273,-2.1838,-2.1797,-2.219,-2.3122,-2.3598,-2.4053,-2.4509,-2.4529,0.0,-2.485,-2.4615,-2.4843,-2.5564,-2.5321,-2.5461,-2.5875,-2.5896,-2.6165,-2.6713,-2.7149,-2.7357,-2.7357,-2.7357,-2.7357,-2.7357,-2.7357,-2.7357,-2.7357,-2.7357,-2.7531,-2.7883,-2.7883,-2.7883,-2.7883,-2.7883,-2.7614,-2.7357,-2.7262,-2.7262,-2.7345,0.0,0.0,0.0,-3.0036,-3.1579,-3.3266,-3.3402,-3.4568,-3.5707,-3.5928,-3.6516,-3.7103,-3.7125,-3.7869,-3.8678,-3.9341,-4.0039,-4.0784,-4.1252,-4.1337,-4.1656,-4.2592,-4.2741,-4.3082,-4.3997,-4.4507,-4.4955,-4.5405,-4.5106,-4.4955,-4.5405,-4.5106,-4.4805,-4.4805,-4.5677,-4.6209,-4.623,-4.7103,-4.7571,-4.7613,-4.7592,-4.7933,-4.8273,-4.7933,-4.7613,-4.7613,-4.7613,-4.7592,-4.7613,-4.7613,-4.7613,-4.7613,-4.7613,-4.7933,-4.8273,-4.7773,-4.7933,-4.8251,-4.7773,-4.7613,-4.7592,0.0,0.0,0.0,0.0,0.0,0.0,0.0,0.0,0.0,0.0,0.0,0.0,0.0,-2.2936,-2.2873,-2.2708,-2.2687,-2.2956,-2.3598,-2.3784,-2.4074,-2.4529,-2.455,-2.4529,-2.4615,-2.4529,-2.4612,-2.4864,-2.4778,-2.4861,-2.5026,-2.5316,-2.5709,-2.6144,-2.6599,-2.6993,-2.7262,-2.7262,-2.7262,-2.7262,-2.7262,-2.7427,-2.7696,-2.7696,-2.7966,-2.8359,-2.8359,0.0,-2.8359,-2.8359,-2.8069,-2.7696,-2.7696,-2.7489,-2.7345,-2.78,-2.8276,-2.8856,-2.9746,-3.0784,-3.1761,-3.2706,-3.3872,-3.4784,-3.5143,-3.5581,-3.6122,-3.6415,-3.675,-3.721,-3.7984,-3.9284,-4.0286,-4.0911,-4.0923,-4.1082,-4.1461,-4.194,-4.2364,-4.271,-4.3743,-4.4465,-4.4633,-4.4805,-4.4805,-4.4955,-4.4805,-4.4805,-4.4805,-4.572,-4.623,-4.623,-4.6828,-4.7153,-4.7153,-4.7453,-4.7592,-4.7773,-4.7592,-4.7453,-4.7153,-4.7153,-4.6993,-4.6811,-4.6811,-4.7132,-4.7592,-4.7592,-4.7773,-4.7773,-4.7613,-4.7773,-4.7773,-4.7314,-4.7153,-4.7153,0.0,0.0,0.0,0.0,0.0,0.0,0.0,0.0,-2.5502,-2.4467,0.0,0.0,0.0,0.0,-2.335,-2.3205,-2.3329,-2.3557,-2.3867,-2.4012,-2.424,-2.4529,-2.455,-2.455,-2.455,-2.4695,-2.4695,-2.455,-2.4695,-2.4695,-2.455,-2.4861,-2.5316,-2.5896,-2.6206,-2.6682,-2.7262,-2.7262,-2.7262,-2.7262,-2.7427,-2.7655,-2.7945,-2.8276,-2.8669,-2.9083,0.0,0.0,0.0,-2.8897,-2.8545,-2.8152,-2.8152,-2.7841,-2.751,-2.7655,-2.78,-2.8152,-2.9228,-2.9973,-3.0781,-3.2168,-3.3058,-3.3824,-3.459,-3.4983,-3.5335,-3.579,-3.5997,-3.6308,-3.6908,-3.8172,-3.9361,-4.0034,-4.0171,-4.033,-4.0368,-4.0948,-4.1551,-4.1707,-4.2732,-4.3615,-4.3928,-4.4268,-4.4504,-4.4654,-4.4504,0.0,-4.4352,-4.5258,-4.5911,-4.6206,-4.6518,-4.6852,-4.7014,-4.7153,-4.7293,-4.7453,-4.7293,-4.6972,-4.6852,-4.6852,-4.6509,-4.6347,-4.6347,-4.6649,-4.7132,-4.7132,-4.7293,-4.7453,-4.7293,-4.7293,-4.7293,-4.6993,-4.6852,-4.6691,0.0,0.0,0.0,0.0,0.0,0.0,0.0,0.0,-2.5751,-2.5337,0.0,0.0,0.0,0.0,0.0,-2.3267,-2.3639,-2.3888,-2.3888,-2.4302,-2.455,-2.455,-2.455,-2.455,-2.455,-2.4985,-2.4985,-2.455,-2.4985,-2.4985,-2.455,-2.455,-2.5026,-2.5875,-2.5875,-2.6392,-2.7262,-2.7262,-2.7262,-2.7324,-2.7738,-2.7945,-2.8069,-2.898,-2.9622,0.0,-3.0036,-3.0036,0.0,-2.9518,-2.9042,-2.8649,-2.8628,-2.8297,-2.7841,-2.7407,-2.7572,-2.8007,0.0,0.0,0.0,-3.165,-3.2354,-3.3078,-3.4403,-3.4734,-3.4879,-3.5314,-3.5769,-3.6101,-3.6121,-3.6846,-3.7757,-3.8667,-3.9206,-3.9516,-3.9537,-3.9909,-4.0344,-4.08,-4.1669,-4.2562,-4.3446,-4.3455,-4.3746,-4.4201,-4.3767,-4.3615,-4.3615,-4.4484,-4.5416,-4.6306,-4.6347,-4.6509,-4.7014,-4.6509,-4.6509,-4.7014,-4.6509,-4.6347,-4.6347,-4.6347,-4.6347,-4.6347,-4.6347,-4.6347,-4.6347,-4.6347,-4.6509,-4.7014,-4.6509,-4.6509,-4.6852,-4.6509,-4.6347,-4.6347,0.0,0.0,0.0,0.0,0.0,-2.633,-2.6537,-2.6455,-2.633,0.0,0.0,0.0,-2.5378,-2.5047,-2.4674,-2.4219,-2.4281,-2.4364,-2.4364,-2.4467,-2.455,-2.455,-2.455,-2.455,-2.455,-2.4674,-2.4674,-2.455,-2.4674,-2.4674,-2.455,-2.455,-2.5026,-2.5875,-2.5875,-2.6392,-2.7262,-2.7262,0.0,-2.7738,-2.7883,-2.8317,0.0,0.0,0.0,0.0,0.0,-3.0988,-3.0967,0.0,-3.0263,-2.9497,-2.8835,-2.8297,-2.7903,-2.7779,-2.7593,-2.7552,-2.7986,0.0,0.0,0.0,0.0,0.0,-3.3203,-3.4051,-3.4797,-3.4921,-3.5293,-3.5707,-3.6059,-3.6328,-3.6804,-3.7715,-3.8253,-3.8792,-3.9454,-3.964,-3.9889,-4.0365,-4.1214,-4.2084,-4.2541,-4.2849,-4.3242,0.0,-4.3615,-4.3615,-4.3615,-4.4484,-4.5416,-4.6306,-4.6347,-4.6347,-4.6509,-4.6347,-4.6347,-4.6509,-4.6347,-4.6347,-4.6347,-4.6347,-4.6347,-4.6347,-4.6347,-4.6347,-4.6347,-4.6347,-4.6347,-4.6509,-4.6347,-4.6347,-4.6509,-4.6347,-4.6347,-4.6347,0.0,0.0,-2.6579,-2.6579,-2.6351,-2.6248,-2.6517,-2.6579,-2.6496,0.0,0.0,0.0,-2.5916,-2.5647,-2.5399,-2.513,-2.5109,-2.5026,-2.484,-2.4819,-2.4736,-2.455,-2.455,-2.455,-2.455,-2.4736,-2.4736,-2.455,-2.4736,-2.4736,-2.4464,-2.4736,-2.5213,-2.5896,-2.6082,-2.6579,-2.7262,-2.7469,-2.7696,0.0,-2.8566,0.0,0.0,-3.0532,-3.1008,0.0,0.0,0.0,-3.1878,-3.1505,-3.0884,0.0,-2.9415,-2.8876,-2.8421,-2.8028,-2.7738,-2.7593,-2.7862,-2.8462,-2.9166,-2.9829,0.0,0.0,-3.2602,-3.3492,-3.43,0.0,-3.5107,-3.55,-3.5769,-3.5976,-3.6287,-3.6825,-3.7301,-3.7922,-3.8833,-3.9144,-3.9413,-3.9889,-4.0572,-4.1255,0.0,-4.2538,-4.3035,-4.3304,-4.3511,-4.3698,-4.3884,-4.4588,-4.5333,-4.6037,-4.6244,-4.6347,-4.6347,-4.6347,-4.6347,-4.6347,-4.6347,-4.6347,-4.6347,-4.6347,-4.6347,-4.6347,-4.6347,-4.6347,-4.6347,-4.6347,-4.6347,-4.6347,-4.6347,-4.6347,-4.6347,-4.6347,-4.6347,-4.6347,0.0,-2.6372,-2.6403,-2.6465,-2.6424,-2.6517,-2.6558,-2.6579,-2.6434,0.0,-2.6041,-2.602,-2.5958,-2.5958,-2.5937,-2.5875,-2.5875,-2.5709,-2.5337,-2.5295,-2.513,-2.4716,-2.4654,-2.4612,-2.4612,-2.4964,-2.4964,-2.455,-2.4964,-2.4964,-2.4633,-2.5047,-2.5482,-2.5978,-2.6392,-2.6827,-2.7282,-2.7779,-2.8028,-2.8193,-2.9477,-3.0036,0.0,0.0,-3.2126,-3.2126,-3.223,-3.254,-3.2747,-3.1767,-3.1059,0.0,0.0,0.0,-2.9065,-2.8301,-2.809,-2.7986,-2.7924,-2.8255,-2.8814,-2.9642,-3.0263,0.0,-3.223,-3.2913,-3.3534,0.0,-3.4962,-3.5355,-3.5355,-3.5728,-3.6059,-3.6101,-3.6453,-3.7074,-3.8046,-3.8523,-3.8937,-3.9413,-3.9909,0.0,-4.1338,-4.2228,-4.2807,-4.2911,-4.3346,-4.3801,-4.4277,-4.4753,-4.5209,-4.5664,-4.6119,-4.6347,-4.6347,-4.6347,-4.6347,-4.6347,-4.6347,-4.6347,-4.6347,-4.6347,-4.6347,-4.6347,-4.6347,-4.6347,-4.6347,-4.6347,-4.6347,-4.6347,-4.6347,-4.6347,-4.6347,-4.6347,-4.6347,-4.6347,-2.45,-2.4791,-2.5,-2.5263,-2.5695,-2.6144,-2.6517,-2.6579,-2.6662,-2.6951,-2.6993,-2.6848,-2.6475,-2.6434,-2.6289,-2.5916,-2.5875,-2.5834,-2.5751,-2.5751,-2.5709,-2.5627,-2.5275,-2.5088,-2.5088,-2.4819,-2.4633,-2.455,-2.4633,-2.4819,-2.5109,-2.5192,-2.5668,-2.6434,-2.6537,-2.6827,-2.7324,-2.8131,-2.869,-2.9083,-2.9746,0.0,-3.0698,-3.2064,-3.2602,-3.2685,-3.341,-3.3741,-3.3602,-3.1838,-3.1033,-3.0715,0.0,0.0,0.0,-2.9434,-2.9063,-2.84,-2.8028,-2.8255,-2.8649,-2.8835,-2.9787,0.0,-3.1029,-3.2002,-3.2913,0.0,-3.4072,-3.4879,-3.4879,-3.5252,-3.5687,-3.6059,-3.6183,-3.6701,-3.8005,-3.8253,-3.8481,0.0,0.0,0.0,-4.0448,-4.1296,-4.2124,-4.287,-4.3346,-4.3801,-4.4277,-4.4753,-4.5209,-4.5664,-4.6119,-4.6347,-4.6347,-4.6347,-4.6347,-4.6347,-4.6347,-4.6347,-4.6347,-4.6347,-4.6347,-4.6347,-4.6347,-4.6347,-4.6347,-4.6347,-4.6347,-4.6347,-4.6347,-4.6347,-4.6347,-4.6347,-4.6347,-4.6347,-2.3529,-2.4184,-2.4785,-2.5,-2.5724,-2.6372,-2.6848,-2.691,-2.6993,-2.722,-2.7262,-2.7179,-2.6931,-2.6439,-2.6054,-2.5832,-2.5812,-2.5712,-2.549,-2.5931,-2.6123,-2.5896,-2.5668,-2.5564,-2.5564,-2.5109,-2.4881,-2.4881,-2.4567,-2.4778,-2.5233,-2.5461,-2.5644,-2.5812,-2.6619,-2.6873,-2.6956,-2.8119,-2.9021,-2.9704,-3.0408,0.0,-3.1795,-3.2706,-3.3203,-3.3451,-3.3906,-3.4072,-3.3932,-3.2453,-3.2018,0.0,0.0,-2.9527,-2.9414,0.0,-2.8866,-2.8307,-2.8243,-2.8607,-2.8959,-2.8959,0.0,0.0,0.0,-3.1402,-3.2126,-3.2333,-3.3285,-3.4072,-3.4072,-3.4631,-3.5169,-3.5397,-3.5625,-3.6101,-3.7032,-3.755,-3.8005,0.0,0.0,0.0,-4.0158,-4.082,-4.169,-4.2828,-4.3139,-4.347,-4.3925,-4.4401,-4.4857,-4.5333,-4.5788,-4.6119,-4.6347,-4.6347,-4.6347,-4.6347,-4.6347,-4.6347,-4.6347,-4.6347,-4.6347,-4.6347,-4.6347,-4.6347,-4.6347,-4.6347,-4.6347,-4.6347,-4.6347,-4.6347,-4.6347,-4.6347,-4.6347,-4.6347,-2.2661,-2.3518,-2.4393,-2.4469,-2.5441,-2.6243,-2.6607,-2.6668,-2.6688,-2.679,-2.6982,-2.7023,-2.6911,-2.6133,-2.5544,-2.5544,-2.5544,-2.5352,-2.4929,-2.5769,-2.6133,-2.587,-2.5767,-2.5817,-2.5999,-2.5585,-2.5269,-2.5002,-2.4898,-2.4939,-2.5125,-2.5743,-2.5695,-2.5176,-2.6491,-2.6798,-2.6486,-2.7885,0.0,-2.9884,0.0,-3.184,-3.2789,-3.341,-3.3865,-3.4217,-3.43,-3.432,-3.4142,-3.2858,-3.2831,-3.2791,-2.9989,-2.961,0.0,0.0,0.0,0.0,0.0,0.0,0.0,0.0,0.0,-2.9761,0.0,0.0,0.0,0.0,0.0,0.0,0.0,0.0,0.0,0.0,0.0,0.0,0.0,-3.6535,0.0,0.0,0.0,0.0,-3.9765,-4.0468,-4.1379,-4.2559,-4.2828,-4.3077,-4.3449,-4.4008,-4.4526,-4.4981,-4.5436,-4.5892,-4.6347,-4.6347,-4.6347,-4.6347,-4.6347,-4.6347,-4.6347,-4.6347,-4.6347,-4.6347,-4.6347,-4.6347,-4.6347,-4.6347,-4.6347,-4.6347,-4.6347,-4.6347,-4.6347,-4.6347,-4.6347,-4.6368,-2.1119,-2.1761,-2.2449,-2.2698,-2.3628,-2.4436,-2.4473,-2.4492,-2.4622,-2.4876,-2.5733,-2.6068,-2.5433,-2.5264,-2.5179,-2.5179,-2.5179,-2.4996,-2.4693,-2.4757,-2.5088,-2.5663,-2.5366,-2.5545,-2.6496,-2.6041,-2.534,-2.4408,-2.5279,-2.5503,-2.4996,-2.6084,-2.6162,-2.5644,-2.6133,-2.6369,-2.6526,0.0,-2.8486,0.0,-3.027,-3.1552,0.0,-3.4134,-3.4631,-3.4734,-3.5128,-3.5273,-3.4882,0.0,-3.2093,-3.2455,0.0,-2.9261,-2.9989,-2.9076,0.0,0.0,0.0,0.0,0.0,0.0,-2.831,0.0,0.0,0.0,-3.0781,-3.0822,0.0,0.0,0.0,0.0,0.0,0.0,0.0,0.0,-3.3803,-3.519,-3.6432,-3.6908,0.0,0.0,0.0,-3.9909,-4.111,-4.1669,-4.2456,-4.2952,-4.2994,-4.3822,-4.4526,-4.4981,-4.5436,-4.5892,-4.6347,-4.6347,-4.6347,-4.6347,-4.6347,-4.6347,-4.6347,-4.6347,-4.6347,-4.6347,-4.6347,-4.6347,-4.6347,-4.6347,-4.6347,-4.6347,-4.6347,-4.6347,-4.6347,-4.6347,-4.6347,-4.6409,-2.0655,-2.1561,-2.2329,-2.2501,-2.3402,-2.4097,-2.4097,-2.4299,-2.4491,-2.4893,-2.5459,-2.5767,-2.5514,-2.513,-2.4753,-2.4526,0.0,-2.4333,0.0,0.0,-2.508,-2.532,-2.5008,-2.4979,-2.5469,-2.4813,-2.4277,-2.3805,-2.4604,-2.4702,-2.4068,-2.5792,-2.5939,-2.4805,-2.5817,-2.6179,-2.6201,0.0,-2.8468,0.0,0.0,0.0,0.0,-3.3396,-3.3777,-3.3893,-3.3301,-3.298,-3.2727,0.0,-3.0956,0.0,0.0,0.0,0.0,-2.8429,0.0,0.0,0.0,0.0,0.0,0.0,0.0,0.0,-3.0519,0.0,-3.1008,0.0,0.0,0.0,0.0,0.0,0.0,0.0,-3.3803,0.0,0.0,0.0,-3.5604,0.0,0.0,0.0,0.0,0.0,0.0,0.0,-4.2021,-4.2642,-4.2911,-4.3532,-4.4236,-4.496,-4.5188,-4.5623,-4.6347,-4.6347,-4.6347,-4.6347,-4.6347,-4.6347,-4.6347,-4.6347,-4.6347,-4.6347,-4.6347,-4.6347,-4.6347,-4.6347,-4.6347,-4.6347,-4.6347,-4.6347,-4.6347,-4.6347,-4.6513,-4.6782,-2.0591,-2.1342,-2.203,-2.203,-2.2719,-2.3238,-2.3344,-2.3901,-2.4328,-2.4509,-2.504,-2.5397,-2.5283,-2.4804,0.0,0.0,-2.4122,-2.3971,0.0,0.0,-2.4757,-2.4843,-2.4575,0.0,-2.4601,-2.4016,-2.3572,-2.317,-2.3841,-2.3841,-2.317,-2.5005,-2.5083,-2.3719,-2.4931,-2.5441,-2.5415,0.0,-2.7863,-2.8379,-2.9832,-3.0964,-3.1935,-3.2691,-3.3029,-3.2791,-3.1875,-3.1653,-3.1393,-2.9969,-3.0407,0.0,-2.8245,0.0,-2.8639,0.0,0.0,0.0,-2.7453,0.0,0.0,0.0,0.0,0.0,0.0,0.0,0.0,0.0,0.0,0.0,0.0,0.0,0.0,0.0,0.0,-3.3782,0.0,-3.4113,0.0,0.0,0.0,0.0,0.0,0.0,0.0,0.0,0.0,-4.2124,-4.2704,-4.318,-4.3842,-4.4774,-4.4919,-4.5374,-4.6161,-4.6285,-4.6347,-4.6347,-4.6347,-4.6347,-4.6347,-4.6347,-4.6347,-4.6347,-4.6347,-4.6347,-4.6347,-4.6347,-4.6347,-4.6347,-4.6347,-4.6347,-4.6368,-4.6492,-4.674,-4.7072,-2.0909,-2.0909,-2.0925,-2.0925,-2.1027,-2.1139,-2.149,-2.2656,-2.3476,0.0,0.0,0.0,0.0,0.0,0.0,0.0,0.0,-2.3981,-2.3514,0.0,-2.3747,-2.4122,-2.4071,-2.4245,0.0,-2.4564,-2.3859,-2.2501,-2.3565,-2.3565,-2.2501,-2.3683,-2.3583,-2.2552,-2.3288,-2.3943,-2.4373,-2.5604,-2.642,-2.6969,-2.7826,-2.8914,-3.0195,0.0,-3.3062,-3.1964,-3.2235,0.0,0.0,-3.0767,-3.0909,0.0,0.0,0.0,0.0,0.0,0.0,0.0,0.0,0.0,0.0,-2.8828,0.0,0.0,0.0,0.0,-2.7918,0.0,0.0,0.0,0.0,0.0,0.0,-3.0988,0.0,0.0,0.0,0.0,0.0,0.0,0.0,0.0,0.0,0.0,0.0,0.0,0.0,0.0,-4.2228,-4.2704,-4.3366,-4.4298,-4.4753,-4.5229,-4.5705,-4.614,-4.6347,-4.6347,-4.6347,-4.6347,-4.6347,-4.6347,-4.6347,-4.6347,-4.6347,-4.6347,-4.6347,-4.6347,-4.6347,-4.6347,-4.6347,-4.6347,-4.6409,-4.6844,-4.703,-4.7154,-2.0925,-2.0925,-2.0925,-2.0925,-2.1115,-2.1465,-2.2053,-2.2763,0.0,0.0,0.0,0.0,0.0,-2.496,-2.5103,0.0,0.0,-2.4849,-2.4277,-2.4452,0.0,0.0,0.0,-2.3615,0.0,-2.2845,-2.2204,-2.1778,-2.2638,-2.2518,-2.1522,-2.3302,-2.3502,-2.2552,-2.3306,-2.3883,0.0,0.0,0.0,0.0,0.0,-2.8757,-2.8656,0.0,0.0,-3.0763,-2.9936,-2.9576,0.0,-2.9044,-2.9083,-2.9257,-2.8317,-2.8237,-2.8467,-2.7605,-2.7375,0.0,0.0,0.0,-2.6939,-2.8191,0.0,0.0,0.0,0.0,0.0,0.0,0.0,0.0,0.0,0.0,-3.2582,-3.2126,0.0,0.0,0.0,0.0,0.0,0.0,0.0,0.0,0.0,0.0,0.0,0.0,0.0,0.0,0.0,-4.2683,-4.3346,-4.4277,-4.4753,-4.5209,-4.5685,-4.6119,-4.6347,-4.6347,-4.6347,-4.6347,-4.6347,-4.6347,-4.6347,-4.6347,-4.6347,-4.6347,-4.6347,-4.6347,-4.6347,-4.6347,-4.6347,-4.6533,-4.6823,-4.6989,-4.7217,-4.7589,-2.0925,-2.102,-2.1068,-2.0941,-2.1322,-2.1862,-2.2561,0.0,0.0,0.0,-2.4484,0.0,-2.5421,0.0,-2.5818,0.0,-2.5818,-2.5628,-2.5167,-2.5357,0.0,-2.4452,-2.4213,0.0,0.0,0.0,-2.1941,-2.1814,-2.1947,-2.1718,-2.1099,-2.2367,-2.2687,-2.2162,-2.2878,-2.3695,-2.4447,-2.5527,-2.6101,0.0,0.0,-2.839,0.0,0.0,-2.9576,-2.9688,0.0,-2.8789,-2.8789,-2.8789,-2.871,-2.8583,-2.8456,-2.8329,-2.8186,-2.7963,-2.79,-2.7804,-2.7343,-2.7312,0.0,-2.8483,-2.8348,0.0,-2.9259,0.0,-2.8622,0.0,0.0,0.0,0.0,0.0,0.0,-3.1325,0.0,0.0,0.0,-3.1639,0.0,0.0,0.0,0.0,0.0,0.0,0.0,0.0,0.0,0.0,0.0,0.0,-4.3035,-4.378,-4.4588,-4.5147,-4.5436,-4.6037,-4.6347,-4.6347,-4.6347,-4.6347,-4.6347,-4.6347,-4.6347,-4.6347,-4.6347,-4.6347,-4.6347,-4.6347,-4.6347,-4.6368,-4.6533,-4.6782,-4.7051,-4.7217,-4.7651,-4.8252,-2.0972,-2.1258,-2.1401,-2.1084,-2.1576,-2.2243,0.0,0.0,-2.3975,0.0,-2.5135,-2.5421,-2.6104,-2.6168,-2.6184,-2.6199,-2.6199,0.0,-2.6168,-2.6184,0.0,0.0,-2.5151,-2.4674,-2.3642,0.0,0.0,-2.2513,-2.183,-2.1497,-2.1465,-2.1131,-2.1147,-2.1513,-2.2196,-2.3085,-2.4102,-2.4833,-2.5755,-2.6787,-2.7455,-2.7947,-2.8297,-2.8646,-2.8805,-2.8916,-2.9584,-2.9838,-2.9854,-2.9854,-2.9631,-2.9282,-2.8948,-2.8614,-2.8329,-2.8281,-2.8281,-2.8265,-2.8233,-2.7995,-2.8028,-2.9328,0.0,0.0,0.0,0.0,-2.6584,0.0,0.0,0.0,0.0,0.0,0.0,-2.8929,0.0,0.0,0.0,0.0,0.0,0.0,0.0,0.0,0.0,0.0,0.0,0.0,0.0,0.0,0.0,0.0,-4.2456,-4.2911,-4.4277,-4.5002,-4.5002,-4.5892,-4.6347,-4.6347,-4.6347,-4.6347,-4.6347,-4.6347,-4.6347,-4.6347,-4.6347,-4.6347,-4.6347,-4.6347,-4.6368,-4.643,-4.6865,-4.7072,-4.7154,-4.7568,-4.8293,-4.9059,-2.1687,-2.1973,-2.2275,-2.245,-2.2625,-2.2895,0.0,0.0,0.0,0.0,-2.5564,-2.6041,-2.6485,-2.6533,-2.6644,-2.6914,-2.693,0.0,0.0,0.0,0.0,-2.5914,-2.5882,-2.5516,-2.4722,-2.4102,0.0,-2.2879,-2.2434,-2.2084,-2.183,-2.1735,-2.1735,-2.1862,-2.2561,-2.3308,-2.4118,-2.5087,-2.6263,-2.7471,-2.7661,-2.809,-2.8662,0.0,-2.9329,-2.9584,-2.9758,-2.9981,-3.0187,-3.0187,-3.0124,-3.0044,-2.9949,-2.9854,-2.9679,-2.9171,-2.9028,-2.89,-2.836,-2.8154,-2.809,-2.8503,-2.8221,-2.7892,0.0,0.0,0.0,0.0,0.0,0.0,0.0,0.0,0.0,0.0,0.0,0.0,0.0,0.0,0.0,0.0,0.0,0.0,0.0,0.0,0.0,0.0,0.0,0.0,0.0,0.0,0.0,-4.2911,-4.4277,-4.5002,-4.5002,-4.5892,-4.6347,-4.6347,-4.6347,-4.6347,-4.6347,-4.6347,-4.6347,-4.6347,-4.6347,-4.6347,-4.6347,-4.6347,-4.6554,-4.6865,-4.6989,-4.7444,-4.8045,-4.8148,-4.8562,-4.9059,-2.2418,-2.2704,-2.3101,-2.361,-2.3715,0.0,-2.396,0.0,0.0,-2.5486,-2.6008,0.0,-2.6867,-2.6899,-2.6994,-2.7185,-2.72,0.0,-2.6914,0.0,0.0,-2.6406,-2.6374,-2.612,-2.558,-2.5024,0.0,-2.3927,0.0,-2.2768,-2.2418,-2.21,-2.2132,-2.245,-2.299,-2.38,-2.4817,-2.5882,-2.6867,-2.7741,-2.7884,-2.8376,0.0,-2.9393,-2.9838,-3.0283,-3.0283,-3.0394,-3.0553,-3.0553,-3.0553,-3.0521,-3.0362,-3.0315,-3.0235,-2.9854,-2.9743,-2.9663,-2.925,-2.9028,-2.8885,-2.8726,-2.8567,-2.8376,-2.8027,-2.7947,-2.7836,0.0,0.0,0.0,0.0,0.0,0.0,0.0,0.0,0.0,0.0,0.0,0.0,0.0,0.0,0.0,0.0,0.0,0.0,0.0,0.0,0.0,0.0,0.0,0.0,-4.2621,-4.3359,-4.4173,-4.4981,-4.5068,-4.5515,-4.6347,-4.6347,-4.6347,-4.6347,-4.6347,-4.6347,-4.6347,-4.6347,-4.6347,-4.6347,-4.6347,-4.6616,-4.7072,-4.7465,-4.8045,-4.8686,-4.8686,-4.8831,-4.9059,-2.3228,-2.3514,-2.3959,-2.4611,-2.4794,0.0,0.0,-2.5313,0.0,-2.6059,0.0,-2.6867,-2.7169,-2.72,-2.72,-2.72,0.0,-2.72,-2.72,-2.72,-2.7073,-2.6756,-2.674,-2.6581,-2.6215,-2.5929,0.0,0.0,0.0,-2.3562,-2.3213,-2.2545,-2.2561,-2.3165,-2.3562,-2.4499,-2.5834,-2.6851,-2.7471,-2.7836,-2.8217,-2.8773,-2.9409,-2.9806,-3.033,-3.0871,-3.0918,-3.0934,-3.0934,-3.0934,-3.0934,-3.0871,-3.0553,-3.0426,-3.0378,-3.033,-3.0283,-3.0251,-3.0251,-3.0044,-2.9758,-2.9488,-2.9202,-2.8869,-2.8519,-2.8392,-2.8344,-2.8297,-2.8027,-2.7788,0.0,0.0,0.0,0.0,0.0,0.0,0.0,0.0,0.0,0.0,0.0,0.0,0.0,0.0,0.0,0.0,0.0,0.0,0.0,0.0,0.0,-4.2249,-4.2517,-4.33,-4.5002,0.0,-4.4782,-4.6347,-4.6347,-4.6347,-4.6347,-4.6347,-4.6347,-4.6347,-4.6347,-4.6347,-4.6347,-4.6409,-4.674,-4.7299,-4.8148,-4.8707,-4.9059,-4.9059,-4.9059,-4.9059,-2.4309,-2.4595,-2.496,-2.5373,0.0,-2.5742,-2.5497,-2.5789,-2.5997,-2.6106,-2.665,-2.7137,-2.72,-2.72,-2.72,-2.72,-2.72,0.0,0.0,0.0,0.0,-2.7121,-2.7105,-2.6946,-2.6597,-2.6517,-2.6184,0.0,0.0,-2.4658,-2.4293,-2.388,-2.3753,-2.3896,-2.4547,-2.5453,-2.6549,-2.7312,0.0,-2.8186,-2.8853,-2.9361,-2.9806,-3.0442,-3.0759,-3.0902,-3.1188,-3.13,-3.13,-3.13,-3.13,-3.1284,-3.122,-3.0998,-3.0712,-3.041,-3.0124,-2.9917,-2.9917,-2.987,-2.987,-3.0092,-3.0092,-2.9965,-2.9615,-2.9314,-2.9028,-2.8742,-2.8392,-2.8138,-2.8138,0.0,0.0,0.0,0.0,0.0,0.0,0.0,0.0,0.0,0.0,0.0,0.0,0.0,0.0,0.0,0.0,0.0,0.0,0.0,0.0,0.0,-4.3351,0.0,0.0,0.0,-4.5653,-4.6347,-4.6347,-4.6347,-4.6347,-4.6347,-4.6347,-4.6347,-4.6347,-4.6347,-4.6368,-4.6761,-4.7403,-4.8189,-4.8728,-4.8997,-4.9059,-4.9059,-4.9059,-4.9059,0.0,0.0,0.0,0.0,0.0,0.0,0.0,-2.6011,0.0,-2.6398,-2.6532,-2.6806,-2.7437,-2.7311,-2.728,-2.7453,-2.7605,-2.7725,-2.7725,-2.7725,-2.7661,-2.7486,-2.7471,0.0,-2.6962,-2.6946,-2.6692,-2.6168,0.0,-2.5469,-2.5119,-2.477,-2.4706,-2.4913,-2.5612,-2.6295,-2.6978,0.0,0.0,-2.8805,-2.9155,-2.9727,-3.0394,-3.0728,-3.0982,-3.1157,-3.1331,-3.1506,-3.1633,-3.1458,-3.1395,-3.1395,-3.1395,-3.1268,-3.1109,-3.0934,-3.0759,-3.0632,-3.0632,-3.0505,-3.0362,-3.033,-3.0187,-3.0029,-2.9854,-2.9695,-2.9568,-2.9568,-2.9298,-2.8948,-2.8583,-2.8344,0.0,0.0,0.0,0.0,0.0,0.0,0.0,0.0,0.0,0.0,0.0,0.0,0.0,0.0,0.0,0.0,0.0,0.0,0.0,0.0,0.0,0.0,0.0,0.0,0.0,-4.6347,-4.6347,-4.6347,-4.6347,-4.6347,-4.6347,-4.6347,-4.6347,-4.6492,-4.6761,-4.7444,-4.7982,-4.8417,-4.8893,-4.9059,-4.9059,-4.9059,-4.9059,-4.9059,0.0,-2.6118,0.0,0.0,-2.5973,0.0,-2.6115,-2.6067,-2.619,-2.6603,-2.6512,-2.6679,-2.7493,-2.7523,-2.7507,-2.7788,-2.8145,-2.8456,-2.8456,-2.8237,-2.8079,-2.7963,-2.7747,-2.7573,-2.7423,-2.7423,-2.7248,0.0,0.0,0.0,-2.5516,-2.5389,-2.5564,-2.5993,-2.6549,0.0,0.0,0.0,-2.8535,-2.9314,-2.9536,-3.0124,-3.0871,-3.095,-3.1141,-3.1395,-3.1474,-3.1681,-3.1887,-3.1681,-3.1601,-3.1601,-3.1601,-3.1554,-3.1506,-3.1506,-3.1443,-3.1411,-3.149,-3.13,-3.1029,-3.0823,-3.0569,-3.0378,-3.0378,-3.0267,-3.0203,-3.0394,-3.0108,-2.9679,-2.9186,-2.8869,0.0,0.0,0.0,0.0,0.0,0.0,0.0,0.0,0.0,0.0,0.0,0.0,0.0,0.0,0.0,0.0,0.0,0.0,0.0,0.0,0.0,-4.2923,-4.4488,0.0,-4.4905,-4.6347,-4.6347,-4.6347,-4.6347,-4.6347,-4.6347,-4.6347,-4.6347,-4.6658,-4.7237,-4.8045,-4.8438,-4.8562,-4.8914,-4.9059,-4.9059,-4.9059,-4.9059,-4.9059,0.0,0.0,0.0,0.0,0.0,0.0,-2.6489,-2.6254,-2.6114,-2.6549,-2.6783,-2.7046,-2.7122,-2.7663,-2.813,-2.8162,-2.8727,-2.9202,-2.9202,-2.8617,-2.8287,-2.8678,-2.8098,-2.7771,-2.8122,-2.8122,-2.7963,0.0,0.0,-2.6438,0.0,-2.5771,-2.6406,-2.7057,0.0,0.0,0.0,-2.8853,-2.9202,-2.9377,-3.033,-3.0775,-3.0902,-3.122,-3.1363,-3.1427,-3.176,-3.1887,-3.1967,-3.2221,-3.2316,-3.2316,-3.2316,-3.211,-3.1872,-3.1872,-3.1649,-3.1458,-3.1776,-3.184,-3.1887,-3.2142,-3.2189,-3.2173,-3.2173,-3.1697,-3.1157,-3.0871,-3.0283,-2.9901,-3.0124,-3.014,-3.0029,0.0,0.0,0.0,0.0,0.0,0.0,0.0,0.0,0.0,0.0,0.0,0.0,0.0,0.0,0.0,0.0,0.0,0.0,-3.8335,0.0,-4.2111,-4.2663,-4.4481,-4.5793,-4.6347,-4.6347,-4.6347,-4.6347,-4.6347,-4.6347,-4.6347,-4.6347,-4.6823,-4.7672,-4.8169,-4.8624,-4.8997,-4.9038,-4.9059,-4.9059,-4.9059,-4.9059,-4.9059,0.0,0.0,0.0,0.0,0.0,0.0,0.0,-2.6629,-2.6676,-2.7156,-2.6974,-2.7012,-2.7545,-2.7855,-2.8167,-2.838,-2.8811,-2.9183,-2.9183,-2.8912,-2.8888,-2.896,-2.8504,-2.835,-2.8551,-2.8329,-2.8154,0.0,0.0,0.0,0.0,-2.7169,-2.7534,-2.782,0.0,-2.8201,-2.8885,-2.9171,-2.9663,-3.0267,-3.0696,-3.0982,-3.1188,-3.1331,-3.1522,-3.1729,-3.1872,-3.2189,-3.2571,-3.2698,-3.2587,-3.2412,-3.2412,-3.2316,-3.2221,-3.2221,-3.211,-3.203,-3.2173,-3.2078,-3.1951,-3.2078,-3.1951,-3.1856,-3.2062,-3.1903,-3.1729,-3.1776,-3.1411,-3.1061,-3.0982,-3.0791,-3.0537,0.0,0.0,0.0,0.0,0.0,0.0,0.0,0.0,0.0,0.0,0.0,0.0,0.0,0.0,0.0,0.0,0.0,0.0,-3.7558,0.0,-4.3318,-4.2344,-4.4864,-4.6182,-4.6347,-4.6347,-4.6347,-4.6347,-4.6347,-4.6492,-4.6782,-4.703,-4.7506,-4.8127,-4.8603,-4.8893,-4.9059,-4.9059,-4.9059,-4.9059,-4.9059,-4.9059,-4.9059,-2.6633,0.0,-2.6748,0.0,-2.6676,-2.6712,-2.6749,-2.7071,-2.7349,-2.7583,-2.7305,-2.735,-2.7851,-2.8119,-2.8417,-2.8656,-2.9079,-2.9442,-2.9442,-2.92,-2.9183,-2.9384,-2.8912,0.0,-2.8947,-2.8553,-2.846,-2.8395,-2.8395,0.0,-2.7423,-2.7661,-2.8043,0.0,-2.8535,-2.8932,-2.96,-2.9711,-3.0187,-3.0871,-3.0982,-3.1172,-3.1411,-3.1506,-3.1697,-3.1951,-3.2158,-3.2539,-3.2968,-3.3079,-3.2936,-3.273,-3.273,-3.273,-3.273,-3.273,-3.273,-3.273,-3.273,-3.2555,-3.238,-3.238,-3.2189,-3.2078,-3.2316,-3.2301,-3.2269,-3.238,-3.2142,-3.1872,-3.1713,-3.149,-3.1236,-3.0966,0.0,0.0,0.0,0.0,0.0,0.0,-3.0315,-3.0362,-3.0473,0.0,0.0,0.0,0.0,0.0,0.0,0.0,0.0,0.0,0.0,0.0,0.0,-4.4279,-4.584,-4.6347,-4.6347,-4.6347,-4.6347,-4.6347,-4.6596,-4.7072,-4.7506,-4.7941,-4.8417,-4.8873,-4.9059,-4.9059,-4.9059,-4.9059,-4.9059,-4.9059,-4.9059,-4.9059,-2.6593,-2.6298,-2.612,-2.6442,-2.6764,-2.7086,-2.7422,-2.773,-2.7934,-2.7949,-2.8212,-2.83,-2.7978,-2.8517,-2.9015,-2.9015,-2.9623,-3.0114,-3.0114,-2.9348,-2.9168,0.0,0.0,-2.8672,-2.9137,-2.9122,-2.8949,-2.8722,0.0,0.0,-2.6692,-2.6692,-2.7614,-2.9282,-2.9282,-2.9663,-3.033,-3.0696,-3.0855,-3.0886,-3.1252,-3.1379,-3.1427,-3.1776,-3.1919,-3.2015,-3.2698,-3.2952,-3.3015,-3.3365,-3.3476,-3.3476,-3.3476,-3.3476,-3.3476,-3.3476,-3.3476,-3.3476,-3.3476,-3.346,-3.346,-3.346,-3.346,-3.346,-3.346,-3.319,-3.2841,-3.2475,-3.2142,-3.2015,-3.2332,-3.2396,-3.2396,-3.238,0.0,0.0,0.0,0.0,0.0,-3.0362,-3.0315,-3.0458,-3.0823,0.0,0.0,0.0,0.0,0.0,0.0,0.0,0.0,-3.4119,-3.6125,0.0,-4.0345,-4.2614,-4.4658,-4.6347,-4.6347,-4.6347,-4.6347,-4.6347,-4.6596,-4.7072,-4.7506,-4.7941,-4.8417,-4.8873,-4.9059,-4.9059,-4.9059,-4.9059,-4.9059,-4.9059,-4.9059,-4.9059,-2.6791,-2.7011,-2.7115,-2.7437,-2.7583,-2.7686,-2.7788,-2.8081,-2.8286,-2.8286,-2.8549,-2.871,-2.8608,-2.8836,-2.8894,0.0,-2.9138,-2.9353,0.0,-2.9109,-2.9049,-2.9513,-2.9045,-2.9018,-2.9473,-2.9259,-2.9045,-2.898,0.0,0.0,0.0,-2.8932,-2.9234,-2.9997,-2.9997,-3.0108,-3.0346,-3.0712,-3.0855,-3.0886,-3.1252,-3.1538,-3.176,-3.1872,-3.2205,-3.265,-3.2873,-3.3111,-3.3333,-3.3444,-3.3492,-3.3492,-3.3492,-3.3492,-3.3492,-3.3492,-3.3492,-3.3492,-3.3492,-3.3492,-3.3492,-3.3492,-3.3492,-3.3492,-3.3492,-3.3397,-3.3286,-3.3174,-3.3063,-3.2936,-3.2809,-3.2777,-3.2698,-3.2444,-3.2316,0.0,-3.2094,0.0,-3.1872,-3.176,-3.1744,-3.1792,0.0,-3.1919,0.0,0.0,0.0,0.0,0.0,0.0,0.0,0.0,-3.7145,0.0,-4.0363,-4.1434,-4.3322,-4.6347,-4.5169,-4.5169,-4.6368,-4.6678,-4.7051,-4.7506,-4.7962,-4.8417,-4.8852,-4.8997,-4.9059,-4.9059,-4.9059,-4.9059,-4.9059,-4.9059,-4.9059,-4.9059,-2.7158,-2.751,-2.7715,-2.792,-2.8052,-2.8139,-2.8139,-2.8403,-2.8608,-2.8608,-2.8769,-2.8886,-2.8886,-2.8886,0.0,-2.8886,-2.8886,-2.8886,-2.8886,-2.8886,-2.9042,-2.9212,-2.9005,-2.9056,-2.9348,-2.9168,0.0,-2.9033,-2.9363,-2.9586,-2.9884,-2.9665,-2.9759,-3.0222,-3.0222,-3.03,-3.0442,-3.0814,-3.0909,-3.0941,-3.1288,-3.1557,-3.1951,-3.2205,-3.2571,-3.2968,-3.3111,-3.3301,-3.3492,-3.3492,-3.3492,-3.3492,-3.3492,-3.3492,-3.3492,-3.3492,-3.3492,-3.3492,-3.3492,-3.3492,-3.3492,-3.3492,-3.3492,-3.3492,-3.3492,-3.3492,-3.3492,-3.3492,-3.3492,-3.3413,-3.319,-3.3158,-3.3079,-3.2857,-3.2809,-3.2761,-3.2634,0.0,-3.2571,0.0,0.0,0.0,0.0,-3.2539,0.0,0.0,0.0,0.0,0.0,0.0,0.0,-3.3858,-3.6541,0.0,-3.9599,-3.9831,-4.1807,-4.5332,-4.4842,-4.5169,-4.6368,-4.6823,-4.7279,-4.7713,-4.8169,-4.8645,-4.9059,-4.9059,-4.9059,-4.9059,-4.9059,-4.9059,-4.9059,-4.9059,-4.9059,-4.9059,-2.751,-2.7827,-2.7993,0.0,-2.8271,0.0,-2.8476,-2.871,-2.8886,-2.8886,-2.8886,-2.8886,-2.8886,-2.8886,-2.8886,-2.8886,0.0,0.0,0.0,-2.8886,-2.8886,-2.8886,-2.8886,-2.8886,-2.8886,-2.8886,-2.8894,-2.906,-2.9064,-2.9063,-2.9213,-2.9213,-2.9532,-3.0143,-3.0143,-3.0451,-3.0747,-3.0778,-3.0778,-3.081,-3.1137,-3.1622,-3.2062,-3.2714,-3.2968,-3.3031,-3.3365,-3.3476,-3.3476,-3.3476,-3.3476,-3.3476,-3.3492,-3.3476,-3.3492,-3.3492,-3.3492,-3.3492,-3.3492,-3.3492,-3.3492,-3.3492,-3.3492,-3.3492,-3.3492,-3.3508,-3.3524,-3.3524,-3.354,-3.3556,-3.3556,-3.3556,-3.3556,-3.3556,-3.3556,-3.3444,-3.3111,-3.3063,-3.2936,0.0,0.0,0.0,0.0,-3.2857,-3.3063,0.0,0.0,0.0,0.0,0.0,-3.3889,-3.4525,-3.4859,-3.6052,-3.8289,-3.8118,-3.9974,-4.3487,-4.5352,-4.6368,-4.6409,-4.6865,-4.732,-4.7755,-4.8231,-4.8666,-4.9059,-4.9059,-4.9059,-4.9059,-4.9059,-4.9059,-4.9059,-4.9059,-4.9059,-4.9059,0.0,0.0,-2.8388,-2.8622,-2.8725,-2.8783,-2.8783,-2.8842,-2.8886,-2.8886,-2.8886,-2.8886,-2.8886,-2.8886,-2.8886,-2.8886,-2.8886,-2.8886,-2.8886,-2.8886,-2.8886,-2.8886,-2.8886,-2.8886,-2.8886,-2.8886,-2.9012,-2.9419,-2.9329,-2.9607,-2.99,-2.99,-2.9946,-3.0176,-3.0176,-3.0069,-2.9931,-3.0176,-3.0454,-3.081,-3.1137,-3.1588,-3.2248,-3.2404,-3.2476,-3.2397,-3.2803,-3.2983,-3.2983,-3.2983,-3.3148,-3.3492,-3.3148,-3.3148,-3.3492,-3.3492,-3.3492,-3.3492,-3.3492,-3.3492,-3.3492,-3.3492,-3.3492,-3.3492,-3.3492,-3.3699,-3.3889,-3.3889,-3.408,-3.4271,-3.4271,-3.4271,-3.4271,-3.4271,-3.4271,-3.4239,-3.4144,-3.4144,-3.4112,0.0,-3.4016,-3.4016,-3.4016,-3.3746,-3.3809,0.0,0.0,0.0,0.0,-3.4557,-3.4747,-3.4906,-3.4986,-3.6052,-3.8289,-3.6929,-3.81,-4.1639,-4.4822,-4.6533,-4.6885,-4.732,-4.7775,-4.8231,-4.8707,-4.8955,-4.9059,-4.9059,-4.9059,-4.9059,-4.9059,-4.9059,-4.9059,-4.9059,-4.9059,-4.9059,-2.5766,-2.6744,-2.7749,-2.87,-2.8886,-2.8886,-2.8886,-2.8886,-2.8886,-2.8886,-2.8886,-2.8886,-2.8886,-2.8886,-2.8886,-2.8886,-2.8886,-2.8886,-2.8886,-2.8886,-2.8886,-2.8886,-2.8886,-2.8886,-2.8886,-2.8886,-2.9042,-2.9212,-2.9212,-2.9368,-2.9508,-2.9508,-2.9664,-2.9834,-2.9834,-2.9819,-2.9804,-2.9985,-3.0308,-3.0648,-3.0968,-3.148,-3.1996,-3.2165,-3.2171,-3.2174,-3.2505,-3.2505,-3.2505,-3.2505,-3.267,-3.2834,-3.2819,-3.2834,-3.2999,-3.3312,-3.3492,-3.3492,-3.3492,-3.3492,-3.3524,-3.3683,-3.373,-3.3762,-3.3921,-3.4096,-3.4239,-3.4239,-3.4382,-3.4509,-3.4509,-3.4509,-3.4509,-3.4509,-3.434,-3.417,-3.417,-3.4001,-3.3816,-3.3816,-3.3816,-3.3816,-3.3816,-3.3646,-3.3646,-3.3816,-3.3801,0.0,-3.4065,-3.4392,-3.469,-3.469,-3.502,-3.5713,-3.6757,-3.7602,-3.9108,-4.1118,-4.4658,-4.6596,-4.7051,-4.7486,-4.7941,-4.8396,-4.8873,-4.9059,-4.9059,-4.9059,-4.9059,-4.9059,-4.9059,-4.9059,-4.9059,-4.9059,-4.9059,-4.9059,-2.5225,-2.6188,-2.6819,-2.8573,-2.8886,-2.8886,-2.8886,-2.8886,-2.8886,-2.8886,-2.8886,-2.8886,-2.8886,-2.8886,-2.8886,-2.8886,-2.8886,-2.8886,-2.8886,-2.8886,-2.8886,-2.8886,-2.8886,-2.8886,-2.8886,-2.8886,-2.8886,-2.8886,-2.8886,-2.8886,-2.8886,-2.8886,-2.9071,-2.9442,-2.9442,-2.9635,-2.9933,-2.9933,-3.0126,-3.0615,-3.0884,-3.1182,-3.1599,-3.1887,-3.2009,-3.2009,-3.2009,-3.2009,-3.2009,-3.2009,-3.2174,-3.2174,-3.2489,-3.2505,-3.2339,-3.3164,-3.3328,-3.3328,-3.3312,-3.336,-3.3651,-3.4001,-3.408,-3.3992,-3.4277,-3.4371,-3.4419,-3.4419,-3.445,-3.4498,-3.4498,-3.4498,-3.4498,-3.4498,-3.4157,-3.3816,-3.3816,-3.3475,-3.3304,-3.3304,-3.3304,-3.3304,-3.3304,-3.3132,-3.3132,-3.3304,-3.3391,-3.3558,-3.3731,-3.4006,-3.4211,-3.4266,-3.5067,-3.5399,-3.505,-3.8938,-4.095,-4.1118,-4.4718,-4.6699,-4.7154,-4.7589,-4.8045,-4.85,-4.8893,-4.9059,-4.9059,-4.9059,-4.9059,-4.9059,-4.9059,-4.9059,-4.9059,-4.9059,-4.9059,-4.9059,-2.378,-2.5384,-2.6819,-2.8573,-2.8886,-2.8886,-2.8886,-2.8886,-2.8886,-2.8886,-2.8886,-2.8886,-2.8886,-2.8886,-2.8886,-2.8886,-2.8886,-2.8886,-2.8886,-2.8886,-2.8886,-2.8886,-2.8886,-2.8886,-2.8886,-2.8886,-2.8886,-2.8886,-2.8886,-2.8886,-2.8886,-2.8886,-2.9032,-2.9468,-2.9468,-2.9645,-2.9954,-2.9954,-3.0292,-3.0914,-3.0958,-3.1153,-3.1587,-3.1632,-3.1316,-3.0998,-3.1497,-3.1647,-3.1647,-3.1647,-3.1828,-3.2174,-3.1828,-3.1994,-3.2174,-3.2339,-3.2339,-3.2505,-3.2834,-3.3037,-3.3516,-3.4182,-3.4092,-3.3753,-3.3985,-3.3878,-3.3751,-3.3751,-3.3981,-3.4196,-3.4196,-3.4196,-3.4196,-3.4196,-3.4196,-3.4196,-3.4196,-3.4021,-3.4021,-3.4021,-3.4021,-3.4021,-3.4021,-3.3671,-3.3671,-3.4021,-3.3716,-3.3746,-3.4097,-3.4143,-3.3983,-3.3571,-3.4494,-3.5225,-3.5399,-3.9108,-4.095,-4.1118,-4.5038,-4.7154,-4.761,-4.8065,-4.8521,-4.8955,-4.9038,-4.9059,-4.9059,-4.9059,-4.9059,-4.9059,-4.9059,-4.9059,-4.9059,-4.9059,-4.9059,-4.9059,-2.3312,-2.443,-2.5859,-2.8417,-2.8886,-2.8886,-2.8886,-2.8886,-2.8886,-2.8886,-2.8886,-2.8886,-2.8886,-2.8886,-2.8886,-2.8886,-2.8886,-2.8886,-2.8886,-2.8886,-2.8886,-2.8886,-2.8886,-2.8886,-2.8886,-2.8886,-2.8973,-2.9149,-2.9149,-2.9237,-2.9412,-2.9412,-2.95,-2.9647,-2.9647,-2.9822,-3.0129,-3.0129,-3.0469,-3.0928,-3.0928,-3.1017,-3.115,-3.115,-3.0984,-3.0817,-3.0984,-3.115,-3.115,-3.115,-3.1331,-3.1497,-3.1482,-3.1497,-3.1497,-3.2009,-3.2296,-3.2418,-3.2585,-3.2998,-3.3337,-3.3847,-3.3925,-3.3815,-3.4,-3.3996,-3.3929,-3.3929,-3.4067,-3.4174,-3.4174,-3.4174,-3.4174,-3.4174,-3.3998,-3.3822,-3.3822,-3.3646,-3.347,-3.347,-3.347,-3.347,-3.347,-3.3293,-3.3293,-3.347,-3.3293,-3.3293,-3.347,-3.347,-3.3293,-3.3117,-3.3998,-3.4875,-3.5573,-3.9108,-4.106,-4.145,-4.5217,-4.7403,-4.8065,-4.8272,-4.8624,-4.9059,-4.9059,-4.9059,-4.9059,-4.9059,-4.9059,-4.9059,-4.9059,-4.9059,-4.9059,-4.9059,-4.9059,-4.9059,-2.2671,-2.314,-2.4099,-2.7134,-2.7776,-2.7776,-2.8246,-2.8261,-2.8417,-2.8886,-2.8886,-2.8886,-2.8886,-2.8886,-2.8886,-2.8886,-2.8886,-2.8915,-2.9003,-2.9003,-2.9003,-2.9003,-2.9076,-2.912,-2.912,-2.912,-2.9237,-2.9486,-2.9486,-2.9617,-2.9866,-2.9866,-2.991,-2.9983,-2.9983,-3.0159,-3.0466,-3.0466,-3.0598,-3.0817,-3.0817,-3.0817,-3.0817,-3.0817,-3.0817,-3.0817,-3.0817,-3.0817,-3.0817,-3.0817,-3.0817,-3.0817,-3.115,-3.1209,-3.1101,-3.1783,-3.2236,-3.2538,-3.2707,-3.2889,-3.3178,-3.3685,-3.3603,-3.3664,-3.3937,-3.3998,-3.3822,-3.3822,-3.3822,-3.3822,-3.3822,-3.3822,-3.3822,-3.3822,-3.3646,-3.3293,-3.3293,-3.294,-3.2778,-3.2778,-3.2778,-3.2778,-3.2778,-3.2778,-3.2778,-3.2778,-3.2778,-3.2778,-3.2778,-3.2778,-3.2778,-3.294,-3.3646,-3.4525,-3.5225,-3.8426,-4.0475,-4.1537,-4.4394,-4.64,-4.7678,-4.778,-4.8025,-4.8523,-4.8887,-4.9059,-4.9059,-4.9059,-4.9059,-4.9059,-4.9059,-4.9059,-4.9059,-4.9059,-4.9059,-4.9059,-2.106,-2.1372,-2.2017,-2.378,-2.4099,-2.4748,-2.6188,-2.6504,-2.7134,-2.873,-2.8886,-2.8886,-2.8886,-2.8886,-2.8886,-2.8886,-2.8886,-2.9017,-2.9325,-2.9339,-2.9339,-2.9339,-2.9632,-2.9793,-2.9793,-2.9793,-2.9807,-2.9822,-2.9822,-2.9837,-2.9866,-2.9866,-3.0027,-3.032,-3.032,-3.0495,-3.0788,-3.0788,-3.0803,-3.0817,-3.0817,-3.0817,-3.0817,-3.0817,-3.0817,-3.0817,-3.0817,-3.0817,-3.0817,-3.0817,-3.0817,-3.0832,-3.0817,-3.1037,-3.1271,-3.1271,-3.1896,-3.2381,-3.2902,-3.2917,-3.3195,-3.3876,-3.3792,-3.344,-3.347,-3.3293,-3.2955,-3.2955,-3.2955,-3.2955,-3.2955,-3.2955,-3.2955,-3.2955,-3.294,-3.2778,-3.2778,-3.2763,-3.2778,-3.2778,-3.2778,-3.2778,-3.2778,-3.2778,-3.2778,-3.2778,-3.2778,-3.2778,-3.2778,-3.2778,-3.294,-3.347,-3.347,-3.3822,-3.4349,-3.6205,-3.8426,-4.1007,-4.156,-4.321,-4.5778,-4.615,-4.6346,-4.654,-4.8351,-4.9059,-4.9059,-4.9059,-4.9059,-4.9059,-4.9059,-4.9059,-4.9059,-4.9059,-4.9059,-4.9059,-2.0899,-2.1222,-2.1695,-2.346,-2.378,-2.443,-2.603,-2.6346,-2.6977,-2.873,-2.8886,-2.8886,-2.8886,-2.8886,-2.8973,-2.9178,-2.9193,-2.9325,-2.9661,-2.9676,-2.9676,-2.9676,-2.9793,-2.9866,-2.9866,-2.9866,-2.9954,-3.0159,-3.0159,-3.0261,-3.0466,-3.0466,-3.0525,-3.0642,-3.0642,-3.0715,-3.0817,-3.0817,-3.0817,-3.0817,-3.0817,-3.0817,-3.0817,-3.0817,-3.0817,-3.0817,-3.0817,-3.0817,-3.0817,-3.0817,-3.0817,-3.0861,-3.1066,-3.1212,-3.1388,-3.1798,-3.209,-3.2324,-3.2705,-3.2939,-3.2969,-3.3264,-3.3117,-3.3132,-3.3132,-3.2955,-3.2778,-3.2778,-3.2778,-3.2778,-3.2778,-3.2778,-3.2778,-3.2778,-3.2778,-3.2778,-3.2778,-3.2778,-3.2778,-3.2778,-3.2778,-3.2778,-3.2778,-3.2778,-3.2778,-3.2778,-3.2778,-3.2778,-3.2778,-3.2778,-3.294,-3.3117,-3.3132,-3.347,-3.4174,-3.6082,-3.7916,-3.967,-4.1087,-4.2554,-4.4228,-4.5589,-4.6191,-4.6366,-4.8351,-4.9059,-4.9059,-4.9059,-4.9059,-4.9059,-4.9059,-4.9059,-4.9059,-4.9059,-4.9059,-4.9059,-2.0272,-2.0424,-2.0748,-2.2028,-2.2189,-2.2992,-2.5225,-2.5542,-2.6333,-2.8573,-2.8886,-2.893,-2.9032,-2.9047,-2.9178,-2.95,-2.9529,-2.9676,-2.9998,-3.0115,-3.0115,-3.0027,-3.0115,-3.0159,-3.0159,-3.0159,-3.0276,-3.0495,-3.0495,-3.0612,-3.0817,-3.0817,-3.0817,-3.0817,-3.0817,-3.0817,-3.0817,-3.0817,-3.0817,-3.0817,-3.0817,-3.0817,-3.0817,-3.0817,-3.0817,-3.0817,-3.0817,-3.0817,-3.0846,-3.0934,-3.0978,-3.1037,-3.1359,-3.1534,-3.1724,-3.228,-3.2441,-3.2485,-3.2705,-3.2778,-3.2778,-3.2778,-3.2778,-3.2778,-3.2778,-3.2778,-3.2778,-3.2778,-3.2778,-3.2778,-3.2778,-3.2778,-3.2778,-3.2778,-3.2778,-3.2778,-3.2778,-3.2778,-3.2778,-3.2778,-3.2778,-3.2778,-3.2778,-3.2778,-3.2778,-3.2778,-3.2778,-3.2778,-3.2778,-3.2778,-3.2778,-3.2778,-3.2866,-3.3265,-3.3796,-3.5218,-3.6773,-3.8474,-3.9244,-4.0641,-4.23,-4.3334,-4.4416,-4.514,-4.6927,-4.8179,-4.8887,-4.8887,-4.8887,-4.9059,-4.8351,-4.8523,-4.9059,-4.8351,-4.8523,-4.9059,-1.8683,-1.8683,-1.8683,-1.8683,-1.8683,-1.9795,-2.3312,-2.3792,-2.5053,-2.8417,-2.89,-2.9017,-2.9339,-2.9383,-2.9515,-2.9837,-2.9866,-3.0012,-3.0334,-3.0656,-3.0685,-3.0364,-3.0656,-3.0817,-3.0817,-3.0817,-3.0817,-3.0817,-3.0817,-3.0817,-3.0817,-3.0817,-3.0817,-3.0817,-3.0817,-3.0817,-3.0817,-3.0817,-3.0817,-3.0817,-3.0817,-3.0817,-3.0817,-3.0817,-3.0817,-3.0817,-3.0817,-3.0817,-3.0876,-3.1198,-3.1315,-3.1373,-3.1695,-3.2017,-3.2354,-3.2676,-3.2778,-3.2778,-3.2778,-3.2778,-3.2778,-3.2778,-3.2778,-3.2778,-3.2778,-3.2778,-3.2778,-3.2778,-3.2778,-3.2778,-3.2778,-3.2778,-3.2778,-3.2778,-3.2778,-3.2778,-3.2778,-3.2778,-3.2778,-3.2778,-3.2778,-3.2778,-3.2778,-3.2778,-3.2778,-3.2778,-3.2778,-3.2778,-3.2778,-3.2778,-3.2778,-3.2778,-3.3085,-3.3246,-3.3246,-3.3246,-3.4787,-3.7743,-3.5807,-3.6725,-3.9789,-3.9209,-4.03,-4.2694,-4.4258,-4.6211,-4.8351,-4.8372,-4.8716,-4.8887,-4.6908,-4.7275,-4.8887,-4.6908,-4.7448,-4.9059,-1.9108,-1.9108,-1.9108,-1.9108,-1.8985,-1.9696,-2.1796,-2.3097,-2.4652,-2.7105,-2.8431,-2.9354,-2.9676,-2.972,-2.9851,-3.0173,-3.0203,-3.0334,-3.0656,-3.0773,-3.0773,-3.0685,-3.0773,-3.0817,-3.0817,-3.0817,-3.0817,-3.0817,-3.0817,-3.0817,-3.0817,-3.0817,-3.0817,-3.0817,-3.0817,-3.0817,-3.0817,-3.0817,-3.0817,-3.0817,-3.0817,-3.0817,-3.0817,-3.0817,-3.0817,-3.0817,-3.0817,-3.0964,-3.1183,-3.1285,-3.1461,-3.171,-3.2032,-3.2368,-3.2646,-3.2749,-3.2778,-3.2778,-3.2778,-3.2778,-3.2778,-3.2778,-3.2778,-3.2778,-3.2778,-3.2778,-3.2778,-3.2778,-3.2778,-3.2778,-3.2778,-3.2778,-3.2778,-3.2778,-3.2778,-3.2778,-3.2778,-3.2778,-3.2778,-3.2778,-3.2778,-3.2778,-3.2778,-3.2778,-3.2778,-3.2778,-3.2778,-3.2778,-3.2778,-3.2778,-3.288,-3.31,-3.3188,-3.3466,-3.3919,-3.3919,-3.4557,-3.5822,-3.5514,-3.6051,-3.7254,-3.8494,-4.0118,-4.23,-4.4081,-4.6056,-4.7854,-4.6405,-4.6036,-4.5861,-4.4239,-4.4063,-4.4593,-4.5842,-4.656,-4.7275,-1.9297,-1.9297,-1.9297,-1.9297,-1.9193,-1.9757,-2.1397,-2.3062,-2.4814,-2.6611,-2.8424,-2.969,-3.0027,-3.0056,-3.0188,-3.051,-3.0539,-3.0612,-3.0817,-3.0817,-3.0817,-3.0817,-3.0817,-3.0817,-3.0817,-3.0817,-3.0817,-3.0817,-3.0817,-3.0817,-3.0817,-3.0817,-3.0817,-3.0817,-3.0817,-3.0817,-3.0817,-3.0817,-3.0817,-3.0817,-3.0817,-3.0817,-3.0817,-3.0817,-3.0817,-3.0846,-3.0964,-3.1139,-3.1344,-3.1607,-3.1915,-3.2222,-3.2412,-3.2617,-3.2778,-3.2778,-3.2778,-3.2778,-3.2778,-3.2778,-3.2778,-3.2778,-3.2778,-3.2778,-3.2778,-3.2778,-3.2778,-3.2778,-3.2778,-3.2778,-3.2778,-3.2778,-3.2778,-3.2778,-3.2778,-3.2778,-3.2778,-3.2778,-3.2778,-3.2778,-3.2778,-3.2778,-3.2778,-3.2778,-3.2778,-3.2778,-3.2778,-3.2778,-3.2778,-3.2895,-3.3041,-3.3232,-3.3495,-3.3817,-3.4212,-3.4344,-3.4588,-3.4959,-3.4966,-3.5428,-3.5972,-3.6869,-3.8494,-4.0481,-4.2282,-4.4258,-4.625,-4.4983,-4.4612,-4.4612,-4.2085,-4.1726,-4.2443,-4.4221,-4.4769,-4.5121,-1.9354,-1.9354,-1.9354,-1.9354,-1.9335,-1.9823,-2.1296,-2.3275,-2.5096,-2.6751,-2.8748,-3.0027,-3.0364,-3.0393,-3.051,-3.0803,-3.0817,-3.0817,-3.0817,-3.0817,-3.0817,-3.0817,-3.0817,-3.0817,-3.0817,-3.0817,-3.0817,-3.0817,-3.0817,-3.0817,-3.0817,-3.0817,-3.0817,-3.0817,-3.0817,-3.0817,-3.0817,-3.0817,-3.0817,-3.0817,-3.0817,-3.0817,-3.0832,-3.0861,-3.0861,-3.0905,-3.1242,-3.1373,-3.149,-3.212,-3.2529,-3.2778,-3.2778,-3.2778,-3.2778,-3.2778,-3.2778,-3.2778,-3.2778,-3.2778,-3.2778,-3.2778,-3.2778,-3.2778,-3.2778,-3.2778,-3.2778,-3.2778,-3.2778,-3.2778,-3.2778,-3.2778,-3.2778,-3.2778,-3.2778,-3.2778,-3.2778,-3.2778,-3.2778,-3.2778,-3.2778,-3.2778,-3.2778,-3.2778,-3.2778,-3.2778,-3.2793,-3.2822,-3.2822,-3.3115,-3.3305,-3.3334,-3.3905,-3.4227,-3.4256,-3.4549,-3.471,-3.471,-3.471,-3.4882,-3.5226,-3.4882,-3.5972,-3.8327,-3.959,-4.1564,-4.3727,-4.3549,-4.3727,-4.3708,-4.0101,-3.9738,-4.1349,-4.2085,-4.2264,-4.2978,-1.9788,-1.9788,-1.9788,-1.9788,-1.9647,-1.9704,-2.0026,-2.2732,-2.4826,-2.5521,-2.8235,-3.0364,-3.0685,-3.0715,-3.0744,-3.0817,-3.0817,-3.0817,-3.0817,-3.0817,-3.0817,-3.0817,-3.0817,-3.0817,-3.0817,-3.0817,-3.0817,-3.0817,-3.0817,-3.0817,-3.0817,-3.0817,-3.0817,-3.0817,-3.0817,-3.0817,-3.0817,-3.0817,-3.0817,-3.0817,-3.0817,-3.0817,-3.0846,-3.111,-3.1198,-3.1256,-3.1578,-3.1856,-3.2134,-3.2529,-3.2719,-3.2778,-3.2778,-3.2778,-3.2778,-3.2778,-3.2778,-3.2778,-3.2778,-3.2778,-3.2778,-3.2778,-3.2778,-3.2778,-3.2778,-3.2778,-3.2778,-3.2778,-3.2778,-3.2778,-3.2778,-3.2778,-3.2778,-3.2778,-3.2778,-3.2778,-3.2778,-3.2778,-3.2778,-3.2778,-3.2778,-3.2778,-3.2778,-3.2778,-3.2778,-3.2778,-3.2997,-3.3144,-3.3144,-3.3451,-3.3744,-3.3993,-3.4139,-3.4344,-3.4592,-3.4666,-3.471,-3.471,-3.471,-3.4695,-3.4882,-3.4695,-3.5786,-3.7759,-3.8127,-3.9391,-4.1203,-3.9573,-3.9026,-3.9026,-3.7038,-3.6498,-3.7038,-3.9026,-3.9738,-4.0464,-1.9921,-1.9921,-1.9921,-1.9921,-1.9826,-1.9751,-1.9751,-2.2023,-2.4013,-2.5144,-2.7535,-2.9618,-3.0636,-3.0817,-3.0817,-3.0817,-3.0817,-3.0817,-3.0817,-3.0817,-3.0817,-3.0817,-3.0817,-3.0817,-3.0817,-3.0817,-3.0817,-3.0817,-3.0817,-3.0817,-3.0817,-3.0817,-3.0817,-3.0817,-3.0817,-3.0817,-3.0817,-3.0817,-3.0817,-3.0817,-3.0817,-3.092,-3.1081,-3.1242,-3.1402,-3.1593,-3.1915,-3.2237,-3.2544,-3.2719,-3.2778,-3.2778,-3.2778,-3.2778,-3.2778,-3.2778,-3.2778,-3.2778,-3.2778,-3.2778,-3.2778,-3.2778,-3.2778,-3.2778,-3.2778,-3.2778,-3.2778,-3.2778,-3.2778,-3.2778,-3.2778,-3.2778,-3.2778,-3.2778,-3.2778,-3.2778,-3.2778,-3.2778,-3.2778,-3.2778,-3.2778,-3.2778,-3.2778,-3.291,-3.2997,-3.2997,-3.329,-3.348,-3.348,-3.3788,-3.4036,-3.4212,-3.4373,-3.4534,-3.471,-3.471,-3.471,-3.471,-3.471,-3.471,-3.471,-3.471,-3.5241,-3.6328,-3.7223,-3.8127,-3.9043,-3.7943,-3.7575,-3.7407,-3.5786,-3.5054,-3.5428,-3.7759,-3.9374,-4.0627,-1.9921,-1.9921,-1.9921,-1.9921,-1.9921,-1.9921,-1.9921,-2.1455,-2.3159,-2.4691,-2.6732,-2.8615,-3.0136,-3.0651,-3.0817,-3.0817,-3.0817,-3.0817,-3.0817,-3.0817,-3.0817,-3.0817,-3.0817,-3.0817,-3.0817,-3.0817,-3.0817,-3.0817,-3.0817,-3.0817,-3.0817,-3.0817,-3.0817,-3.0817,-3.0817,-3.0817,-3.0817,-3.0817,-3.0817,-3.0817,-3.0817,-3.1022,-3.1315,-3.1373,-3.1593,-3.1929,-3.2251,-3.2544,-3.2778,-3.2778,-3.2778,-3.2778,-3.2778,-3.2778,-3.2778,-3.2778,-3.2778,-3.2778,-3.2778,-3.2778,-3.2778,-3.2778,-3.2778,-3.2778,-3.2778,-3.2778,-3.2778,-3.2778,-3.2778,-3.2778,-3.2778,-3.2778,-3.2778,-3.2778,-3.2778,-3.2778,-3.2778,-3.2778,-3.2778,-3.2778,-3.2822,-3.2851,-3.2851,-3.3144,-3.3334,-3.3334,-3.3627,-3.3817,-3.3817,-3.4124,-3.43,-3.43,-3.4563,-3.471,-3.471,-3.471,-3.471,-3.471,-3.471,-3.471,-3.471,-3.471,-3.471,-3.4695,-3.6328,-3.7038,-3.7038,-3.7038,-3.7038,-3.6869,-3.5241,-3.471,-3.4882,-3.7038,-3.901,-4.0808,-1.9921,-1.9921,-1.9921,-1.9921,-1.9921,-1.9921,-1.9921,-2.1455,-2.2643,-2.2987,-2.5884,-2.8265,-2.8446,-2.9802,-3.0817,-3.0817,-3.0817,-3.0817,-3.0817,-3.0817,-3.0817,-3.0817,-3.0817,-3.0817,-3.0817,-3.0817,-3.0817,-3.0817,-3.0817,-3.0817,-3.0817,-3.0817,-3.0817,-3.0817,-3.0817,-3.0817,-3.0817,-3.0817,-3.0817,-3.0817,-3.0817,-3.1022,-3.1344,-3.1622,-3.1929,-3.2266,-3.2588,-3.2734,-3.2778,-3.2778,-3.2778,-3.2778,-3.2778,-3.2778,-3.2778,-3.2778,-3.2778,-3.2778,-3.2778,-3.2778,-3.2778,-3.2778,-3.2778,-3.2778,-3.2778,-3.2778,-3.2778,-3.2778,-3.2778,-3.2778,-3.2778,-3.2778,-3.2778,-3.2778,-3.2778,-3.2778,-3.2778,-3.2778,-3.2778,-3.2778,-3.3012,-3.3188,-3.3188,-3.348,-3.3671,-3.3671,-3.3963,-3.4154,-3.4154,-3.4461,-3.4636,-3.4636,-3.468,-3.471,-3.471,-3.471,-3.471,-3.471,-3.471,-3.471,-3.471,-3.471,-3.471,-3.471,-3.5069,-3.5069,-3.5069,-3.5069,-3.5069,-3.5069,-3.4882,-3.471,-3.471,-3.5069,-3.5428,-3.5957,-1.9039,-1.9039,-1.9214,-1.9388,-1.9563,-1.9563,-1.9921,-2.0598,-2.1455,-2.2481,-2.4018,-2.5373,-2.6393,-2.8265,-2.9286,-2.9286,-3.0136,-3.0817,-3.0817,-3.0817,-3.0817,-3.0817,-3.0817,-3.0817,-3.0817,-3.0817,-3.0817,-3.0817,-3.0817,-3.0817,-3.0817,-3.0817,-3.0817,-3.0817,-3.0817,-3.0817,-3.0817,-3.0817,-3.0817,-3.0846,-3.1022,-3.1285,-3.1622,-3.1944,-3.2266,-3.2573,-3.2719,-3.2778,-3.2778,-3.2778,-3.2778,-3.2778,-3.2778,-3.2778,-3.2778,-3.2778,-3.2778,-3.2778,-3.2778,-3.2778,-3.2778,-3.2778,-3.2778,-3.2778,-3.2778,-3.2778,-3.2778,-3.2778,-3.2778,-3.2778,-3.2778,-3.2778,-3.2778,-3.2778,-3.2778,-3.2778,-3.2778,-3.2778,-3.2837,-3.3012,-3.3319,-3.351,-3.351,-3.3817,-3.4007,-3.4007,-3.43,-3.449,-3.449,-3.4622,-3.471,-3.471,-3.471,-3.471,-3.471,-3.471,-3.471,-3.471,-3.471,-3.471,-3.471,-3.471,-3.471,-3.471,-3.471,-3.471,-3.471,-3.471,-3.471,-3.471,-3.471,-3.471,-3.471,-3.471,-3.471,-3.5069]}]]